<?xml version="1.0" encoding="UTF-8" standalone="no" ?>
<gpx xmlns="http://www.topografix.com/GPX/1/1" creator="www.cicloide.com" version="1.1" xmlns:xsi="http://www.w3.org/2001/XMLSchema-instance" xsi:schemaLocation="http://www.topografix.com/GPX/1/1 http://www.topografix.com/GPX/1/1/gpx.xsd">
  <trk>
    <name>www.cicloide.com 14153</name>
    <desc>www.cicloide.com 14153</desc>
    <trkseg>
      <trkpt lat="41.605746218" lon="2.540324403">
        <ele>118.86</ele>
        <time>2013-06-16T07:32:34Z</time>
      </trkpt>
      <trkpt lat="41.605759880" lon="2.540319290">
        <ele>118.86</ele>
        <time>2013-06-16T07:32:42Z</time>
      </trkpt>
      <trkpt lat="41.605749990" lon="2.540310573">
        <ele>118.86</ele>
        <time>2013-06-16T07:33:02Z</time>
      </trkpt>
      <trkpt lat="41.605777734" lon="2.540368995">
        <ele>118.86</ele>
        <time>2013-06-16T07:33:14Z</time>
      </trkpt>
      <trkpt lat="41.605852417" lon="2.540369833">
        <ele>118.86</ele>
        <time>2013-06-16T07:33:20Z</time>
      </trkpt>
      <trkpt lat="41.605938666" lon="2.540375868">
        <ele>118.86</ele>
        <time>2013-06-16T07:33:26Z</time>
      </trkpt>
      <trkpt lat="41.606019971" lon="2.540382573">
        <ele>118.86</ele>
        <time>2013-06-16T07:33:29Z</time>
      </trkpt>
      <trkpt lat="41.606215185" lon="2.540412329">
        <ele>118.86</ele>
        <time>2013-06-16T07:33:37Z</time>
      </trkpt>
      <trkpt lat="41.606374190" lon="2.540489359">
        <ele>118.86</ele>
        <time>2013-06-16T07:33:44Z</time>
      </trkpt>
      <trkpt lat="41.606538308" lon="2.540588265">
        <ele>119.34</ele>
        <time>2013-06-16T07:33:52Z</time>
      </trkpt>
      <trkpt lat="41.606740982" lon="2.540688429">
        <ele>120.30</ele>
        <time>2013-06-16T07:34:01Z</time>
      </trkpt>
      <trkpt lat="41.606887498" lon="2.540736122">
        <ele>120.78</ele>
        <time>2013-06-16T07:34:08Z</time>
      </trkpt>
      <trkpt lat="41.607085311" lon="2.540796723">
        <ele>121.26</ele>
        <time>2013-06-16T07:34:16Z</time>
      </trkpt>
      <trkpt lat="41.607321178" lon="2.540856403">
        <ele>121.74</ele>
        <time>2013-06-16T07:34:25Z</time>
      </trkpt>
      <trkpt lat="41.607503400" lon="2.540849697">
        <ele>122.22</ele>
        <time>2013-06-16T07:34:32Z</time>
      </trkpt>
      <trkpt lat="41.607671122" lon="2.540827401">
        <ele>122.71</ele>
        <time>2013-06-16T07:34:39Z</time>
      </trkpt>
      <trkpt lat="41.607870025" lon="2.540806949">
        <ele>123.19</ele>
        <time>2013-06-16T07:34:47Z</time>
      </trkpt>
      <trkpt lat="41.608110669" lon="2.540803261">
        <ele>124.15</ele>
        <time>2013-06-16T07:34:56Z</time>
      </trkpt>
      <trkpt lat="41.608319546" lon="2.540756909">
        <ele>125.11</ele>
        <time>2013-06-16T07:35:04Z</time>
      </trkpt>
      <trkpt lat="41.608496572" lon="2.540708881">
        <ele>125.59</ele>
        <time>2013-06-16T07:35:11Z</time>
      </trkpt>
      <trkpt lat="41.608737384" lon="2.540657584">
        <ele>126.07</ele>
        <time>2013-06-16T07:35:20Z</time>
      </trkpt>
      <trkpt lat="41.609000492" lon="2.540613663">
        <ele>127.03</ele>
        <time>2013-06-16T07:35:29Z</time>
      </trkpt>
      <trkpt lat="41.609211381" lon="2.540577704">
        <ele>127.99</ele>
        <time>2013-06-16T07:35:37Z</time>
      </trkpt>
      <trkpt lat="41.609393938" lon="2.540557252">
        <ele>128.47</ele>
        <time>2013-06-16T07:35:44Z</time>
      </trkpt>
      <trkpt lat="41.609632739" lon="2.540535711">
        <ele>129.43</ele>
        <time>2013-06-16T07:35:53Z</time>
      </trkpt>
      <trkpt lat="41.609857122" lon="2.540467566">
        <ele>129.92</ele>
        <time>2013-06-16T07:36:01Z</time>
      </trkpt>
      <trkpt lat="41.610071029" lon="2.540356422">
        <ele>130.88</ele>
        <time>2013-06-16T07:36:09Z</time>
      </trkpt>
      <trkpt lat="41.610227435" lon="2.540266736">
        <ele>131.36</ele>
        <time>2013-06-16T07:36:15Z</time>
      </trkpt>
      <trkpt lat="41.610531195" lon="2.540124998">
        <ele>132.32</ele>
        <time>2013-06-16T07:36:26Z</time>
      </trkpt>
      <trkpt lat="41.610745017" lon="2.540014692">
        <ele>133.28</ele>
        <time>2013-06-16T07:36:34Z</time>
      </trkpt>
      <trkpt lat="41.610913410" lon="2.539922826">
        <ele>133.76</ele>
        <time>2013-06-16T07:36:41Z</time>
      </trkpt>
      <trkpt lat="41.611075935" lon="2.539832972">
        <ele>134.24</ele>
        <time>2013-06-16T07:36:48Z</time>
      </trkpt>
      <trkpt lat="41.611313394" lon="2.539699365">
        <ele>135.20</ele>
        <time>2013-06-16T07:36:56Z</time>
      </trkpt>
      <trkpt lat="41.611518332" lon="2.539549580">
        <ele>136.16</ele>
        <time>2013-06-16T07:37:04Z</time>
      </trkpt>
      <trkpt lat="41.611689490" lon="2.539412620">
        <ele>136.64</ele>
        <time>2013-06-16T07:37:11Z</time>
      </trkpt>
      <trkpt lat="41.611817482" lon="2.539267948">
        <ele>137.13</ele>
        <time>2013-06-16T07:37:17Z</time>
      </trkpt>
      <trkpt lat="41.611830977" lon="2.539237606">
        <ele>137.13</ele>
        <time>2013-06-16T07:37:18Z</time>
      </trkpt>
      <trkpt lat="41.611998363" lon="2.539019341">
        <ele>138.09</ele>
        <time>2013-06-16T07:37:26Z</time>
      </trkpt>
      <trkpt lat="41.612114956" lon="2.538811302">
        <ele>139.05</ele>
        <time>2013-06-16T07:37:33Z</time>
      </trkpt>
      <trkpt lat="41.612260549" lon="2.538573340">
        <ele>139.53</ele>
        <time>2013-06-16T07:37:40Z</time>
      </trkpt>
      <trkpt lat="41.612457440" lon="2.538304364">
        <ele>140.49</ele>
        <time>2013-06-16T07:37:49Z</time>
      </trkpt>
      <trkpt lat="41.612586689" lon="2.538129518">
        <ele>141.45</ele>
        <time>2013-06-16T07:37:56Z</time>
      </trkpt>
      <trkpt lat="41.612742006" lon="2.537947966">
        <ele>142.41</ele>
        <time>2013-06-16T07:38:03Z</time>
      </trkpt>
      <trkpt lat="41.612846193" lon="2.537815951">
        <ele>142.89</ele>
        <time>2013-06-16T07:38:08Z</time>
      </trkpt>
      <trkpt lat="41.613003689" lon="2.537643787">
        <ele>143.37</ele>
        <time>2013-06-16T07:38:15Z</time>
      </trkpt>
      <trkpt lat="41.613195970" lon="2.537430551">
        <ele>144.34</ele>
        <time>2013-06-16T07:38:23Z</time>
      </trkpt>
      <trkpt lat="41.613365619" lon="2.537239947">
        <ele>144.82</ele>
        <time>2013-06-16T07:38:30Z</time>
      </trkpt>
      <trkpt lat="41.613550440" lon="2.536997626">
        <ele>145.30</ele>
        <time>2013-06-16T07:38:39Z</time>
      </trkpt>
      <trkpt lat="41.613665859" lon="2.536784139">
        <ele>145.78</ele>
        <time>2013-06-16T07:38:46Z</time>
      </trkpt>
      <trkpt lat="41.613678097" lon="2.536752539">
        <ele>145.78</ele>
        <time>2013-06-16T07:38:47Z</time>
      </trkpt>
      <trkpt lat="41.613671307" lon="2.536527485">
        <ele>146.74</ele>
        <time>2013-06-16T07:38:53Z</time>
      </trkpt>
      <trkpt lat="41.613734339" lon="2.536352890">
        <ele>147.22</ele>
        <time>2013-06-16T07:38:58Z</time>
      </trkpt>
      <trkpt lat="41.613880101" lon="2.535994060">
        <ele>148.18</ele>
        <time>2013-06-16T07:39:09Z</time>
      </trkpt>
      <trkpt lat="41.613998285" lon="2.535680326">
        <ele>149.62</ele>
        <time>2013-06-16T07:39:18Z</time>
      </trkpt>
      <trkpt lat="41.614071879" lon="2.535415290">
        <ele>150.10</ele>
        <time>2013-06-16T07:39:25Z</time>
      </trkpt>
      <trkpt lat="41.614171791" lon="2.535087725">
        <ele>151.54</ele>
        <time>2013-06-16T07:39:34Z</time>
      </trkpt>
      <trkpt lat="41.614254520" lon="2.534766615">
        <ele>152.51</ele>
        <time>2013-06-16T07:39:43Z</time>
      </trkpt>
      <trkpt lat="41.614369855" lon="2.534468973">
        <ele>153.47</ele>
        <time>2013-06-16T07:39:52Z</time>
      </trkpt>
      <trkpt lat="41.614480413" lon="2.534089357">
        <ele>154.91</ele>
        <time>2013-06-16T07:40:02Z</time>
      </trkpt>
      <trkpt lat="41.614574374" lon="2.533781992">
        <ele>155.87</ele>
        <time>2013-06-16T07:40:10Z</time>
      </trkpt>
      <trkpt lat="41.614682668" lon="2.533428025">
        <ele>157.31</ele>
        <time>2013-06-16T07:40:19Z</time>
      </trkpt>
      <trkpt lat="41.614792052" lon="2.533076236">
        <ele>157.79</ele>
        <time>2013-06-16T07:40:28Z</time>
      </trkpt>
      <trkpt lat="41.614921384" lon="2.532655129">
        <ele>159.24</ele>
        <time>2013-06-16T07:40:39Z</time>
      </trkpt>
      <trkpt lat="41.615045269" lon="2.532237124">
        <ele>160.68</ele>
        <time>2013-06-16T07:40:50Z</time>
      </trkpt>
      <trkpt lat="41.615101679" lon="2.531773269">
        <ele>161.16</ele>
        <time>2013-06-16T07:41:01Z</time>
      </trkpt>
      <trkpt lat="41.615128753" lon="2.531447884">
        <ele>162.12</ele>
        <time>2013-06-16T07:41:09Z</time>
      </trkpt>
      <trkpt lat="41.615165214" lon="2.531027196">
        <ele>163.08</ele>
        <time>2013-06-16T07:41:19Z</time>
      </trkpt>
      <trkpt lat="41.615205699" lon="2.530578680">
        <ele>164.52</ele>
        <time>2013-06-16T07:41:29Z</time>
      </trkpt>
      <trkpt lat="41.615221792" lon="2.530181294">
        <ele>165.48</ele>
        <time>2013-06-16T07:41:39Z</time>
      </trkpt>
      <trkpt lat="41.615228665" lon="2.529764798">
        <ele>166.93</ele>
        <time>2013-06-16T07:41:50Z</time>
      </trkpt>
      <trkpt lat="41.615231599" lon="2.529511999">
        <ele>167.41</ele>
        <time>2013-06-16T07:41:57Z</time>
      </trkpt>
      <trkpt lat="41.615232940" lon="2.529196337">
        <ele>168.37</ele>
        <time>2013-06-16T07:42:05Z</time>
      </trkpt>
      <trkpt lat="41.615260181" lon="2.528936666">
        <ele>169.33</ele>
        <time>2013-06-16T07:42:12Z</time>
      </trkpt>
      <trkpt lat="41.615313993" lon="2.528634498">
        <ele>169.81</ele>
        <time>2013-06-16T07:42:20Z</time>
      </trkpt>
      <trkpt lat="41.615401081" lon="2.528218253">
        <ele>171.25</ele>
        <time>2013-06-16T07:42:31Z</time>
      </trkpt>
      <trkpt lat="41.615455312" lon="2.527927401">
        <ele>171.73</ele>
        <time>2013-06-16T07:42:39Z</time>
      </trkpt>
      <trkpt lat="41.615518008" lon="2.527600926">
        <ele>172.69</ele>
        <time>2013-06-16T07:42:48Z</time>
      </trkpt>
      <trkpt lat="41.615565366" lon="2.527358689">
        <ele>173.66</ele>
        <time>2013-06-16T07:42:55Z</time>
      </trkpt>
      <trkpt lat="41.615608198" lon="2.527088624">
        <ele>174.62</ele>
        <time>2013-06-16T07:43:03Z</time>
      </trkpt>
      <trkpt lat="41.615626303" lon="2.526805483">
        <ele>176.06</ele>
        <time>2013-06-16T07:43:11Z</time>
      </trkpt>
      <trkpt lat="41.615621022" lon="2.526622171">
        <ele>177.02</ele>
        <time>2013-06-16T07:43:18Z</time>
      </trkpt>
      <trkpt lat="41.615587243" lon="2.526364511">
        <ele>177.50</ele>
        <time>2013-06-16T07:43:26Z</time>
      </trkpt>
      <trkpt lat="41.615567042" lon="2.526050609">
        <ele>178.46</ele>
        <time>2013-06-16T07:43:35Z</time>
      </trkpt>
      <trkpt lat="41.615565282" lon="2.525717847">
        <ele>179.42</ele>
        <time>2013-06-16T07:43:43Z</time>
      </trkpt>
      <trkpt lat="41.615556230" lon="2.525282826">
        <ele>180.38</ele>
        <time>2013-06-16T07:43:53Z</time>
      </trkpt>
      <trkpt lat="41.615575927" lon="2.524994657">
        <ele>181.35</ele>
        <time>2013-06-16T07:44:01Z</time>
      </trkpt>
      <trkpt lat="41.615592272" lon="2.524669606">
        <ele>182.31</ele>
        <time>2013-06-16T07:44:10Z</time>
      </trkpt>
      <trkpt lat="41.615619681" lon="2.524294516">
        <ele>183.27</ele>
        <time>2013-06-16T07:44:21Z</time>
      </trkpt>
      <trkpt lat="41.615646000" lon="2.524066528">
        <ele>184.71</ele>
        <time>2013-06-16T07:44:28Z</time>
      </trkpt>
      <trkpt lat="41.615652454" lon="2.523832254">
        <ele>185.67</ele>
        <time>2013-06-16T07:44:36Z</time>
      </trkpt>
      <trkpt lat="41.615678773" lon="2.523552969">
        <ele>186.63</ele>
        <time>2013-06-16T07:44:44Z</time>
      </trkpt>
      <trkpt lat="41.615711127" lon="2.523195649">
        <ele>187.59</ele>
        <time>2013-06-16T07:44:53Z</time>
      </trkpt>
      <trkpt lat="41.615754294" lon="2.522870179">
        <ele>188.56</ele>
        <time>2013-06-16T07:45:02Z</time>
      </trkpt>
      <trkpt lat="41.615795449" lon="2.522516798">
        <ele>189.52</ele>
        <time>2013-06-16T07:45:12Z</time>
      </trkpt>
      <trkpt lat="41.615830234" lon="2.522194766">
        <ele>190.96</ele>
        <time>2013-06-16T07:45:21Z</time>
      </trkpt>
      <trkpt lat="41.615883124" lon="2.521857143">
        <ele>191.92</ele>
        <time>2013-06-16T07:45:30Z</time>
      </trkpt>
      <trkpt lat="41.615926207" lon="2.521544749">
        <ele>192.40</ele>
        <time>2013-06-16T07:45:38Z</time>
      </trkpt>
      <trkpt lat="41.615968703" lon="2.521224309">
        <ele>193.36</ele>
        <time>2013-06-16T07:45:47Z</time>
      </trkpt>
      <trkpt lat="41.616032490" lon="2.520914598">
        <ele>193.36</ele>
        <time>2013-06-16T07:45:56Z</time>
      </trkpt>
      <trkpt lat="41.616090073" lon="2.520708403">
        <ele>193.84</ele>
        <time>2013-06-16T07:46:03Z</time>
      </trkpt>
      <trkpt lat="41.616171545" lon="2.520471782">
        <ele>194.80</ele>
        <time>2013-06-16T07:46:11Z</time>
      </trkpt>
      <trkpt lat="41.616286126" lon="2.520151258">
        <ele>195.28</ele>
        <time>2013-06-16T07:46:21Z</time>
      </trkpt>
      <trkpt lat="41.616368269" lon="2.520033911">
        <ele>195.28</ele>
        <time>2013-06-16T07:46:26Z</time>
      </trkpt>
      <trkpt lat="41.616422751" lon="2.519985967">
        <ele>194.32</ele>
        <time>2013-06-16T07:46:28Z</time>
      </trkpt>
      <trkpt lat="41.616577649" lon="2.519871470">
        <ele>193.84</ele>
        <time>2013-06-16T07:46:34Z</time>
      </trkpt>
      <trkpt lat="41.616695414" lon="2.519807013">
        <ele>194.80</ele>
        <time>2013-06-16T07:46:39Z</time>
      </trkpt>
      <trkpt lat="41.616858275" lon="2.519737192">
        <ele>195.77</ele>
        <time>2013-06-16T07:46:46Z</time>
      </trkpt>
      <trkpt lat="41.617080982" lon="2.519689918">
        <ele>197.21</ele>
        <time>2013-06-16T07:46:54Z</time>
      </trkpt>
      <trkpt lat="41.617319112" lon="2.519654462">
        <ele>198.17</ele>
        <time>2013-06-16T07:47:03Z</time>
      </trkpt>
      <trkpt lat="41.617566545" lon="2.519627389">
        <ele>199.13</ele>
        <time>2013-06-16T07:47:13Z</time>
      </trkpt>
      <trkpt lat="41.617788079" lon="2.519604674">
        <ele>200.09</ele>
        <time>2013-06-16T07:47:22Z</time>
      </trkpt>
      <trkpt lat="41.617826468" lon="2.519603668">
        <ele>200.09</ele>
        <time>2013-06-16T07:47:27Z</time>
      </trkpt>
      <trkpt lat="41.617820769" lon="2.519622779">
        <ele>201.05</ele>
        <time>2013-06-16T07:47:34Z</time>
      </trkpt>
      <trkpt lat="41.617825379" lon="2.519648427">
        <ele>201.05</ele>
        <time>2013-06-16T07:47:43Z</time>
      </trkpt>
      <trkpt lat="41.617827558" lon="2.519679943">
        <ele>201.53</ele>
        <time>2013-06-16T07:47:47Z</time>
      </trkpt>
      <trkpt lat="41.617875167" lon="2.519751441">
        <ele>201.53</ele>
        <time>2013-06-16T07:47:52Z</time>
      </trkpt>
      <trkpt lat="41.617909701" lon="2.519915056">
        <ele>203.46</ele>
        <time>2013-06-16T07:48:00Z</time>
      </trkpt>
      <trkpt lat="41.617900816" lon="2.519932071">
        <ele>203.46</ele>
        <time>2013-06-16T07:48:01Z</time>
      </trkpt>
      <trkpt lat="41.617799562" lon="2.520079173">
        <ele>204.90</ele>
        <time>2013-06-16T07:48:09Z</time>
      </trkpt>
      <trkpt lat="41.617749606" lon="2.520128375">
        <ele>205.86</ele>
        <time>2013-06-16T07:48:13Z</time>
      </trkpt>
      <trkpt lat="41.617699985" lon="2.520297606">
        <ele>207.78</ele>
        <time>2013-06-16T07:48:22Z</time>
      </trkpt>
      <trkpt lat="41.617690681" lon="2.520523833">
        <ele>209.70</ele>
        <time>2013-06-16T07:48:32Z</time>
      </trkpt>
      <trkpt lat="41.617674840" lon="2.520732291">
        <ele>209.70</ele>
        <time>2013-06-16T07:48:40Z</time>
      </trkpt>
      <trkpt lat="41.617723287" lon="2.520939743">
        <ele>210.67</ele>
        <time>2013-06-16T07:48:49Z</time>
      </trkpt>
      <trkpt lat="41.617776512" lon="2.521130348">
        <ele>211.63</ele>
        <time>2013-06-16T07:48:57Z</time>
      </trkpt>
      <trkpt lat="41.617833677" lon="2.521351965">
        <ele>212.59</ele>
        <time>2013-06-16T07:49:06Z</time>
      </trkpt>
      <trkpt lat="41.617872820" lon="2.521527650">
        <ele>214.03</ele>
        <time>2013-06-16T07:49:14Z</time>
      </trkpt>
      <trkpt lat="41.617891847" lon="2.521593951">
        <ele>214.99</ele>
        <time>2013-06-16T07:49:18Z</time>
      </trkpt>
      <trkpt lat="41.617957813" lon="2.521615744">
        <ele>215.47</ele>
        <time>2013-06-16T07:49:23Z</time>
      </trkpt>
      <trkpt lat="41.618056803" lon="2.521474676">
        <ele>217.88</ele>
        <time>2013-06-16T07:49:34Z</time>
      </trkpt>
      <trkpt lat="41.618129474" lon="2.521325227">
        <ele>220.28</ele>
        <time>2013-06-16T07:49:44Z</time>
      </trkpt>
      <trkpt lat="41.618229051" lon="2.521131437">
        <ele>221.72</ele>
        <time>2013-06-16T07:49:56Z</time>
      </trkpt>
      <trkpt lat="41.618281103" lon="2.520970924">
        <ele>223.64</ele>
        <time>2013-06-16T07:50:06Z</time>
      </trkpt>
      <trkpt lat="41.618319492" lon="2.520800436">
        <ele>226.05</ele>
        <time>2013-06-16T07:50:15Z</time>
      </trkpt>
      <trkpt lat="41.618371795" lon="2.520670768">
        <ele>227.01</ele>
        <time>2013-06-16T07:50:23Z</time>
      </trkpt>
      <trkpt lat="41.618499367" lon="2.520595918">
        <ele>228.45</ele>
        <time>2013-06-16T07:50:33Z</time>
      </trkpt>
      <trkpt lat="41.618642195" lon="2.520576891">
        <ele>230.37</ele>
        <time>2013-06-16T07:50:44Z</time>
      </trkpt>
      <trkpt lat="41.618752920" lon="2.520550572">
        <ele>231.33</ele>
        <time>2013-06-16T07:50:52Z</time>
      </trkpt>
      <trkpt lat="41.618863561" lon="2.520491228">
        <ele>232.78</ele>
        <time>2013-06-16T07:51:01Z</time>
      </trkpt>
      <trkpt lat="41.618975124" lon="2.520420568">
        <ele>234.70</ele>
        <time>2013-06-16T07:51:10Z</time>
      </trkpt>
      <trkpt lat="41.619082077" lon="2.520348568">
        <ele>236.14</ele>
        <time>2013-06-16T07:51:19Z</time>
      </trkpt>
      <trkpt lat="41.619230856" lon="2.520277070">
        <ele>238.54</ele>
        <time>2013-06-16T07:51:30Z</time>
      </trkpt>
      <trkpt lat="41.619359183" lon="2.520290984">
        <ele>239.99</ele>
        <time>2013-06-16T07:51:39Z</time>
      </trkpt>
      <trkpt lat="41.619408888" lon="2.520323003">
        <ele>240.95</ele>
        <time>2013-06-16T07:51:43Z</time>
      </trkpt>
      <trkpt lat="41.619484157" lon="2.520329457">
        <ele>241.91</ele>
        <time>2013-06-16T07:51:49Z</time>
      </trkpt>
      <trkpt lat="41.619642324" lon="2.520294253">
        <ele>244.79</ele>
        <time>2013-06-16T07:52:01Z</time>
      </trkpt>
      <trkpt lat="41.619760509" lon="2.520256283">
        <ele>246.72</ele>
        <time>2013-06-16T07:52:11Z</time>
      </trkpt>
      <trkpt lat="41.619873245" lon="2.520198280">
        <ele>249.12</ele>
        <time>2013-06-16T07:52:20Z</time>
      </trkpt>
      <trkpt lat="41.619973157" lon="2.520134410">
        <ele>250.56</ele>
        <time>2013-06-16T07:52:29Z</time>
      </trkpt>
      <trkpt lat="41.620008948" lon="2.520111527">
        <ele>251.04</ele>
        <time>2013-06-16T07:52:32Z</time>
      </trkpt>
      <trkpt lat="41.620076003" lon="2.520090573">
        <ele>251.52</ele>
        <time>2013-06-16T07:52:37Z</time>
      </trkpt>
      <trkpt lat="41.620154542" lon="2.520075401">
        <ele>252.48</ele>
        <time>2013-06-16T07:52:43Z</time>
      </trkpt>
      <trkpt lat="41.620265602" lon="2.520108678">
        <ele>253.93</ele>
        <time>2013-06-16T07:52:52Z</time>
      </trkpt>
      <trkpt lat="41.620380937" lon="2.520142289">
        <ele>254.89</ele>
        <time>2013-06-16T07:53:00Z</time>
      </trkpt>
      <trkpt lat="41.620510354" lon="2.520173470">
        <ele>256.33</ele>
        <time>2013-06-16T07:53:09Z</time>
      </trkpt>
      <trkpt lat="41.620621665" lon="2.520183109">
        <ele>257.77</ele>
        <time>2013-06-16T07:53:17Z</time>
      </trkpt>
      <trkpt lat="41.620776563" lon="2.520194257">
        <ele>260.17</ele>
        <time>2013-06-16T07:53:27Z</time>
      </trkpt>
      <trkpt lat="41.620914110" lon="2.520220241">
        <ele>261.14</ele>
        <time>2013-06-16T07:53:36Z</time>
      </trkpt>
      <trkpt lat="41.621035312" lon="2.520246811">
        <ele>262.58</ele>
        <time>2013-06-16T07:53:44Z</time>
      </trkpt>
      <trkpt lat="41.621169171" lon="2.520271454">
        <ele>264.02</ele>
        <time>2013-06-16T07:53:53Z</time>
      </trkpt>
      <trkpt lat="41.621293726" lon="2.520286625">
        <ele>265.94</ele>
        <time>2013-06-16T07:54:02Z</time>
      </trkpt>
      <trkpt lat="41.621385089" lon="2.520305485">
        <ele>266.90</ele>
        <time>2013-06-16T07:54:09Z</time>
      </trkpt>
      <trkpt lat="41.621486762" lon="2.520344293">
        <ele>268.35</ele>
        <time>2013-06-16T07:54:17Z</time>
      </trkpt>
      <trkpt lat="41.621644844" lon="2.520395171">
        <ele>271.23</ele>
        <time>2013-06-16T07:54:28Z</time>
      </trkpt>
      <trkpt lat="41.621765292" lon="2.520408834">
        <ele>273.15</ele>
        <time>2013-06-16T07:54:37Z</time>
      </trkpt>
      <trkpt lat="41.621865540" lon="2.520435153">
        <ele>275.07</ele>
        <time>2013-06-16T07:54:45Z</time>
      </trkpt>
      <trkpt lat="41.621970733" lon="2.520443199">
        <ele>277.00</ele>
        <time>2013-06-16T07:54:53Z</time>
      </trkpt>
      <trkpt lat="41.622112052" lon="2.520415120">
        <ele>278.92</ele>
        <time>2013-06-16T07:55:03Z</time>
      </trkpt>
      <trkpt lat="41.622233086" lon="2.520375809">
        <ele>280.84</ele>
        <time>2013-06-16T07:55:12Z</time>
      </trkpt>
      <trkpt lat="41.622370214" lon="2.520343371">
        <ele>282.28</ele>
        <time>2013-06-16T07:55:22Z</time>
      </trkpt>
      <trkpt lat="41.622425283" lon="2.520351501">
        <ele>283.25</ele>
        <time>2013-06-16T07:55:26Z</time>
      </trkpt>
      <trkpt lat="41.622468366" lon="2.520402799">
        <ele>283.73</ele>
        <time>2013-06-16T07:55:30Z</time>
      </trkpt>
      <trkpt lat="41.622427714" lon="2.520488881">
        <ele>284.69</ele>
        <time>2013-06-16T07:55:37Z</time>
      </trkpt>
      <trkpt lat="41.622297543" lon="2.520530455">
        <ele>286.61</ele>
        <time>2013-06-16T07:55:47Z</time>
      </trkpt>
      <trkpt lat="41.622183382" lon="2.520622237">
        <ele>288.53</ele>
        <time>2013-06-16T07:55:57Z</time>
      </trkpt>
      <trkpt lat="41.622090091" lon="2.520706391">
        <ele>289.97</ele>
        <time>2013-06-16T07:56:05Z</time>
      </trkpt>
      <trkpt lat="41.622001662" lon="2.520779984">
        <ele>291.42</ele>
        <time>2013-06-16T07:56:13Z</time>
      </trkpt>
      <trkpt lat="41.621895631" lon="2.520875203">
        <ele>292.86</ele>
        <time>2013-06-16T07:56:22Z</time>
      </trkpt>
      <trkpt lat="41.621883896" lon="2.520884758">
        <ele>292.86</ele>
        <time>2013-06-16T07:56:23Z</time>
      </trkpt>
      <trkpt lat="41.621793623" lon="2.520981737">
        <ele>293.82</ele>
        <time>2013-06-16T07:56:31Z</time>
      </trkpt>
      <trkpt lat="41.621659680" lon="2.521033621">
        <ele>294.30</ele>
        <time>2013-06-16T07:56:40Z</time>
      </trkpt>
      <trkpt lat="41.621500843" lon="2.520982910">
        <ele>295.26</ele>
        <time>2013-06-16T07:56:49Z</time>
      </trkpt>
      <trkpt lat="41.621327673" lon="2.520982910">
        <ele>296.22</ele>
        <time>2013-06-16T07:56:59Z</time>
      </trkpt>
      <trkpt lat="41.621170764" lon="2.521024652">
        <ele>297.18</ele>
        <time>2013-06-16T07:57:09Z</time>
      </trkpt>
      <trkpt lat="41.621131872" lon="2.521047032">
        <ele>297.67</ele>
        <time>2013-06-16T07:57:12Z</time>
      </trkpt>
      <trkpt lat="41.621107480" lon="2.521109812">
        <ele>298.63</ele>
        <time>2013-06-16T07:57:17Z</time>
      </trkpt>
      <trkpt lat="41.621128770" lon="2.521129929">
        <ele>298.63</ele>
        <time>2013-06-16T07:57:19Z</time>
      </trkpt>
      <trkpt lat="41.621247542" lon="2.521114003">
        <ele>300.55</ele>
        <time>2013-06-16T07:57:28Z</time>
      </trkpt>
      <trkpt lat="41.621347035" lon="2.521214251">
        <ele>302.47</ele>
        <time>2013-06-16T07:57:37Z</time>
      </trkpt>
      <trkpt lat="41.621409145" lon="2.521320617">
        <ele>304.39</ele>
        <time>2013-06-16T07:57:45Z</time>
      </trkpt>
      <trkpt lat="41.621484331" lon="2.521459421">
        <ele>306.32</ele>
        <time>2013-06-16T07:57:55Z</time>
      </trkpt>
      <trkpt lat="41.621522385" lon="2.521506528">
        <ele>306.80</ele>
        <time>2013-06-16T07:57:58Z</time>
      </trkpt>
      <trkpt lat="41.621638139" lon="2.521676932">
        <ele>308.24</ele>
        <time>2013-06-16T07:58:08Z</time>
      </trkpt>
      <trkpt lat="41.621706200" lon="2.521824872">
        <ele>309.68</ele>
        <time>2013-06-16T07:58:17Z</time>
      </trkpt>
      <trkpt lat="41.621747774" lon="2.521941381">
        <ele>310.64</ele>
        <time>2013-06-16T07:58:24Z</time>
      </trkpt>
      <trkpt lat="41.621806112" lon="2.522102565">
        <ele>312.57</ele>
        <time>2013-06-16T07:58:35Z</time>
      </trkpt>
      <trkpt lat="41.621878448" lon="2.522256205">
        <ele>314.01</ele>
        <time>2013-06-16T07:58:44Z</time>
      </trkpt>
      <trkpt lat="41.621912478" lon="2.522280177">
        <ele>314.49</ele>
        <time>2013-06-16T07:58:47Z</time>
      </trkpt>
      <trkpt lat="41.621951454" lon="2.522195939">
        <ele>315.93</ele>
        <time>2013-06-16T07:58:53Z</time>
      </trkpt>
      <trkpt lat="41.621945419" lon="2.522150258">
        <ele>316.41</ele>
        <time>2013-06-16T07:58:55Z</time>
      </trkpt>
      <trkpt lat="41.621943240" lon="2.521978093">
        <ele>318.33</ele>
        <time>2013-06-16T07:59:04Z</time>
      </trkpt>
      <trkpt lat="41.621975091" lon="2.521784723">
        <ele>319.30</ele>
        <time>2013-06-16T07:59:13Z</time>
      </trkpt>
      <trkpt lat="41.622034854" lon="2.521643572">
        <ele>320.26</ele>
        <time>2013-06-16T07:59:20Z</time>
      </trkpt>
      <trkpt lat="41.622127055" lon="2.521537373">
        <ele>321.70</ele>
        <time>2013-06-16T07:59:28Z</time>
      </trkpt>
      <trkpt lat="41.622237110" lon="2.521544414">
        <ele>322.66</ele>
        <time>2013-06-16T07:59:36Z</time>
      </trkpt>
      <trkpt lat="41.622348170" lon="2.521644661">
        <ele>324.58</ele>
        <time>2013-06-16T07:59:45Z</time>
      </trkpt>
      <trkpt lat="41.622483035" lon="2.521752117">
        <ele>326.02</ele>
        <time>2013-06-16T07:59:55Z</time>
      </trkpt>
      <trkpt lat="41.622590993" lon="2.521828476">
        <ele>327.95</ele>
        <time>2013-06-16T08:00:03Z</time>
      </trkpt>
      <trkpt lat="41.622630305" lon="2.521853706">
        <ele>328.43</ele>
        <time>2013-06-16T08:00:06Z</time>
      </trkpt>
      <trkpt lat="41.622756955" lon="2.521849934">
        <ele>328.91</ele>
        <time>2013-06-16T08:00:13Z</time>
      </trkpt>
      <trkpt lat="41.622920067" lon="2.521853455">
        <ele>330.83</ele>
        <time>2013-06-16T08:00:22Z</time>
      </trkpt>
      <trkpt lat="41.623082173" lon="2.521820597">
        <ele>332.27</ele>
        <time>2013-06-16T08:00:32Z</time>
      </trkpt>
      <trkpt lat="41.623148390" lon="2.521820346">
        <ele>332.75</ele>
        <time>2013-06-16T08:00:36Z</time>
      </trkpt>
      <trkpt lat="41.623265904" lon="2.521934256">
        <ele>333.71</ele>
        <time>2013-06-16T08:00:45Z</time>
      </trkpt>
      <trkpt lat="41.623400937" lon="2.522104073">
        <ele>335.16</ele>
        <time>2013-06-16T08:00:55Z</time>
      </trkpt>
      <trkpt lat="41.623501436" lon="2.522217564">
        <ele>335.16</ele>
        <time>2013-06-16T08:01:02Z</time>
      </trkpt>
      <trkpt lat="41.623633283" lon="2.522302892">
        <ele>336.12</ele>
        <time>2013-06-16T08:01:10Z</time>
      </trkpt>
      <trkpt lat="41.623763957" lon="2.522415545">
        <ele>336.60</ele>
        <time>2013-06-16T08:01:18Z</time>
      </trkpt>
      <trkpt lat="41.623884405" lon="2.522522163">
        <ele>337.08</ele>
        <time>2013-06-16T08:01:26Z</time>
      </trkpt>
      <trkpt lat="41.623993705" lon="2.522675887">
        <ele>337.56</ele>
        <time>2013-06-16T08:01:34Z</time>
      </trkpt>
      <trkpt lat="41.624055228" lon="2.522806477">
        <ele>338.04</ele>
        <time>2013-06-16T08:01:40Z</time>
      </trkpt>
      <trkpt lat="41.624179364" lon="2.523086935">
        <ele>338.52</ele>
        <time>2013-06-16T08:01:51Z</time>
      </trkpt>
      <trkpt lat="41.624231751" lon="2.523315761">
        <ele>339.00</ele>
        <time>2013-06-16T08:01:59Z</time>
      </trkpt>
      <trkpt lat="41.624302578" lon="2.523547940">
        <ele>339.96</ele>
        <time>2013-06-16T08:02:07Z</time>
      </trkpt>
      <trkpt lat="41.624378183" lon="2.523729660">
        <ele>340.92</ele>
        <time>2013-06-16T08:02:15Z</time>
      </trkpt>
      <trkpt lat="41.624482621" lon="2.523925964">
        <ele>342.37</ele>
        <time>2013-06-16T08:02:24Z</time>
      </trkpt>
      <trkpt lat="41.624548671" lon="2.524111036">
        <ele>343.33</ele>
        <time>2013-06-16T08:02:32Z</time>
      </trkpt>
      <trkpt lat="41.624627545" lon="2.524321925">
        <ele>344.77</ele>
        <time>2013-06-16T08:02:41Z</time>
      </trkpt>
      <trkpt lat="41.624713459" lon="2.524545470">
        <ele>345.73</ele>
        <time>2013-06-16T08:02:50Z</time>
      </trkpt>
      <trkpt lat="41.624817898" lon="2.524799274">
        <ele>346.69</ele>
        <time>2013-06-16T08:03:00Z</time>
      </trkpt>
      <trkpt lat="41.624876403" lon="2.524997004">
        <ele>347.65</ele>
        <time>2013-06-16T08:03:08Z</time>
      </trkpt>
      <trkpt lat="41.625015124" lon="2.525230942">
        <ele>348.13</ele>
        <time>2013-06-16T08:03:18Z</time>
      </trkpt>
      <trkpt lat="41.625190808" lon="2.525429761">
        <ele>348.62</ele>
        <time>2013-06-16T08:03:27Z</time>
      </trkpt>
      <trkpt lat="41.625331708" lon="2.525605530">
        <ele>349.10</ele>
        <time>2013-06-16T08:03:35Z</time>
      </trkpt>
      <trkpt lat="41.625464980" lon="2.525840810">
        <ele>350.06</ele>
        <time>2013-06-16T08:03:45Z</time>
      </trkpt>
      <trkpt lat="41.625619375" lon="2.526067373">
        <ele>350.06</ele>
        <time>2013-06-16T08:03:54Z</time>
      </trkpt>
      <trkpt lat="41.625807046" lon="2.526209111">
        <ele>350.06</ele>
        <time>2013-06-16T08:04:01Z</time>
      </trkpt>
      <trkpt lat="41.626004356" lon="2.526374737">
        <ele>349.58</ele>
        <time>2013-06-16T08:04:09Z</time>
      </trkpt>
      <trkpt lat="41.626145759" lon="2.526559055">
        <ele>350.06</ele>
        <time>2013-06-16T08:04:17Z</time>
      </trkpt>
      <trkpt lat="41.626284311" lon="2.526797185">
        <ele>350.06</ele>
        <time>2013-06-16T08:04:26Z</time>
      </trkpt>
      <trkpt lat="41.626321862" lon="2.526937163">
        <ele>350.54</ele>
        <time>2013-06-16T08:04:32Z</time>
      </trkpt>
      <trkpt lat="41.626407693" lon="2.527056940">
        <ele>351.02</ele>
        <time>2013-06-16T08:04:39Z</time>
      </trkpt>
      <trkpt lat="41.626433090" lon="2.527160876">
        <ele>351.98</ele>
        <time>2013-06-16T08:04:45Z</time>
      </trkpt>
      <trkpt lat="41.626455973" lon="2.527193062">
        <ele>351.98</ele>
        <time>2013-06-16T08:04:47Z</time>
      </trkpt>
      <trkpt lat="41.626533841" lon="2.527221980">
        <ele>352.46</ele>
        <time>2013-06-16T08:04:51Z</time>
      </trkpt>
      <trkpt lat="41.626583965" lon="2.527298004">
        <ele>352.46</ele>
        <time>2013-06-16T08:04:56Z</time>
      </trkpt>
      <trkpt lat="41.626633753" lon="2.527279815">
        <ele>352.94</ele>
        <time>2013-06-16T08:05:03Z</time>
      </trkpt>
      <trkpt lat="41.626632412" lon="2.527271936">
        <ele>352.94</ele>
        <time>2013-06-16T08:05:11Z</time>
      </trkpt>
      <trkpt lat="41.626660240" lon="2.527222650">
        <ele>352.94</ele>
        <time>2013-06-16T08:05:15Z</time>
      </trkpt>
      <trkpt lat="41.626793512" lon="2.527218040">
        <ele>353.90</ele>
        <time>2013-06-16T08:05:25Z</time>
      </trkpt>
      <trkpt lat="41.626941453" lon="2.527208317">
        <ele>355.34</ele>
        <time>2013-06-16T08:05:35Z</time>
      </trkpt>
      <trkpt lat="41.627065505" lon="2.527194906">
        <ele>355.34</ele>
        <time>2013-06-16T08:05:43Z</time>
      </trkpt>
      <trkpt lat="41.627226270" lon="2.527185351">
        <ele>355.83</ele>
        <time>2013-06-16T08:05:53Z</time>
      </trkpt>
      <trkpt lat="41.627261558" lon="2.527184513">
        <ele>355.83</ele>
        <time>2013-06-16T08:05:56Z</time>
      </trkpt>
      <trkpt lat="41.627313442" lon="2.527161127">
        <ele>355.83</ele>
        <time>2013-06-16T08:06:01Z</time>
      </trkpt>
      <trkpt lat="41.627404050" lon="2.526986448">
        <ele>355.83</ele>
        <time>2013-06-16T08:06:08Z</time>
      </trkpt>
      <trkpt lat="41.627474206" lon="2.526869856">
        <ele>355.83</ele>
        <time>2013-06-16T08:06:15Z</time>
      </trkpt>
      <trkpt lat="41.627562468" lon="2.526681598">
        <ele>357.27</ele>
        <time>2013-06-16T08:06:23Z</time>
      </trkpt>
      <trkpt lat="41.627664140" lon="2.526540782">
        <ele>359.19</ele>
        <time>2013-06-16T08:06:30Z</time>
      </trkpt>
      <trkpt lat="41.627754916" lon="2.526411282">
        <ele>360.15</ele>
        <time>2013-06-16T08:06:37Z</time>
      </trkpt>
      <trkpt lat="41.627840747" lon="2.526274238">
        <ele>362.07</ele>
        <time>2013-06-16T08:06:44Z</time>
      </trkpt>
      <trkpt lat="41.627923728" lon="2.526109198">
        <ele>363.04</ele>
        <time>2013-06-16T08:06:52Z</time>
      </trkpt>
      <trkpt lat="41.627990783" lon="2.525926724">
        <ele>364.48</ele>
        <time>2013-06-16T08:07:00Z</time>
      </trkpt>
      <trkpt lat="41.628000506" lon="2.525835948">
        <ele>364.48</ele>
        <time>2013-06-16T08:07:03Z</time>
      </trkpt>
      <trkpt lat="41.627885590" lon="2.525726816">
        <ele>365.44</ele>
        <time>2013-06-16T08:07:11Z</time>
      </trkpt>
      <trkpt lat="41.627815769" lon="2.525853047">
        <ele>366.40</ele>
        <time>2013-06-16T08:07:17Z</time>
      </trkpt>
      <trkpt lat="41.627788025" lon="2.525901914">
        <ele>366.40</ele>
        <time>2013-06-16T08:07:19Z</time>
      </trkpt>
      <trkpt lat="41.627604126" lon="2.526001239">
        <ele>367.36</ele>
        <time>2013-06-16T08:07:28Z</time>
      </trkpt>
      <trkpt lat="41.627526510" lon="2.525936363">
        <ele>367.84</ele>
        <time>2013-06-16T08:07:33Z</time>
      </trkpt>
      <trkpt lat="41.627496335" lon="2.525662610">
        <ele>367.84</ele>
        <time>2013-06-16T08:07:40Z</time>
      </trkpt>
      <trkpt lat="41.627475380" lon="2.525343679">
        <ele>367.84</ele>
        <time>2013-06-16T08:07:48Z</time>
      </trkpt>
      <trkpt lat="41.627411510" lon="2.525102448">
        <ele>367.84</ele>
        <time>2013-06-16T08:07:55Z</time>
      </trkpt>
      <trkpt lat="41.627329619" lon="2.524925338">
        <ele>368.32</ele>
        <time>2013-06-16T08:08:03Z</time>
      </trkpt>
      <trkpt lat="41.627301791" lon="2.524706403">
        <ele>369.28</ele>
        <time>2013-06-16T08:08:11Z</time>
      </trkpt>
      <trkpt lat="41.627319393" lon="2.524491239">
        <ele>369.28</ele>
        <time>2013-06-16T08:08:19Z</time>
      </trkpt>
      <trkpt lat="41.627341102" lon="2.524338773">
        <ele>369.28</ele>
        <time>2013-06-16T08:08:24Z</time>
      </trkpt>
      <trkpt lat="41.627260636" lon="2.524169039">
        <ele>368.32</ele>
        <time>2013-06-16T08:08:29Z</time>
      </trkpt>
      <trkpt lat="41.627108504" lon="2.523973322">
        <ele>367.36</ele>
        <time>2013-06-16T08:08:34Z</time>
      </trkpt>
      <trkpt lat="41.626968359" lon="2.523687080">
        <ele>366.40</ele>
        <time>2013-06-16T08:08:40Z</time>
      </trkpt>
      <trkpt lat="41.626964000" lon="2.523478957">
        <ele>366.40</ele>
        <time>2013-06-16T08:08:44Z</time>
      </trkpt>
      <trkpt lat="41.626974813" lon="2.523358174">
        <ele>366.40</ele>
        <time>2013-06-16T08:08:46Z</time>
      </trkpt>
      <trkpt lat="41.627002221" lon="2.523193553">
        <ele>364.48</ele>
        <time>2013-06-16T08:08:49Z</time>
      </trkpt>
      <trkpt lat="41.626912535" lon="2.522992304">
        <ele>363.04</ele>
        <time>2013-06-16T08:08:54Z</time>
      </trkpt>
      <trkpt lat="41.626947991" lon="2.522899348">
        <ele>362.55</ele>
        <time>2013-06-16T08:08:57Z</time>
      </trkpt>
      <trkpt lat="41.627026110" lon="2.522840927">
        <ele>362.55</ele>
        <time>2013-06-16T08:09:01Z</time>
      </trkpt>
      <trkpt lat="41.627088974" lon="2.522815194">
        <ele>364.00</ele>
        <time>2013-06-16T08:09:04Z</time>
      </trkpt>
      <trkpt lat="41.627227779" lon="2.522787701">
        <ele>366.40</ele>
        <time>2013-06-16T08:09:11Z</time>
      </trkpt>
      <trkpt lat="41.627318052" lon="2.522761969">
        <ele>367.36</ele>
        <time>2013-06-16T08:09:17Z</time>
      </trkpt>
      <trkpt lat="41.627431543" lon="2.522675552">
        <ele>368.80</ele>
        <time>2013-06-16T08:09:25Z</time>
      </trkpt>
      <trkpt lat="41.627572359" lon="2.522582680">
        <ele>368.80</ele>
        <time>2013-06-16T08:09:31Z</time>
      </trkpt>
      <trkpt lat="41.627704876" lon="2.522543872">
        <ele>368.80</ele>
        <time>2013-06-16T08:09:37Z</time>
      </trkpt>
      <trkpt lat="41.627852566" lon="2.522470949">
        <ele>366.88</ele>
        <time>2013-06-16T08:09:42Z</time>
      </trkpt>
      <trkpt lat="41.627870168" lon="2.522449156">
        <ele>366.40</ele>
        <time>2013-06-16T08:09:43Z</time>
      </trkpt>
      <trkpt lat="41.627936049" lon="2.522170793">
        <ele>364.48</ele>
        <time>2013-06-16T08:09:49Z</time>
      </trkpt>
      <trkpt lat="41.627953987" lon="2.522098290">
        <ele>363.52</ele>
        <time>2013-06-16T08:09:50Z</time>
      </trkpt>
      <trkpt lat="41.628010481" lon="2.521882121">
        <ele>362.55</ele>
        <time>2013-06-16T08:09:55Z</time>
      </trkpt>
      <trkpt lat="41.628014923" lon="2.521645583">
        <ele>362.55</ele>
        <time>2013-06-16T08:10:02Z</time>
      </trkpt>
      <trkpt lat="41.628004278" lon="2.521439053">
        <ele>362.07</ele>
        <time>2013-06-16T08:10:07Z</time>
      </trkpt>
      <trkpt lat="41.627916855" lon="2.521180220">
        <ele>361.11</ele>
        <time>2013-06-16T08:10:14Z</time>
      </trkpt>
      <trkpt lat="41.627980306" lon="2.521052815">
        <ele>360.63</ele>
        <time>2013-06-16T08:10:20Z</time>
      </trkpt>
      <trkpt lat="41.627990113" lon="2.521036387">
        <ele>360.63</ele>
        <time>2013-06-16T08:10:21Z</time>
      </trkpt>
      <trkpt lat="41.628025820" lon="2.520972768">
        <ele>362.07</ele>
        <time>2013-06-16T08:10:24Z</time>
      </trkpt>
      <trkpt lat="41.628070411" lon="2.520908646">
        <ele>362.07</ele>
        <time>2013-06-16T08:10:27Z</time>
      </trkpt>
      <trkpt lat="41.628140735" lon="2.520873526">
        <ele>363.04</ele>
        <time>2013-06-16T08:10:31Z</time>
      </trkpt>
      <trkpt lat="41.628285491" lon="2.520876711">
        <ele>364.00</ele>
        <time>2013-06-16T08:10:39Z</time>
      </trkpt>
      <trkpt lat="41.628411555" lon="2.520887608">
        <ele>365.44</ele>
        <time>2013-06-16T08:10:46Z</time>
      </trkpt>
      <trkpt lat="41.628546000" lon="2.520918369">
        <ele>366.40</ele>
        <time>2013-06-16T08:10:53Z</time>
      </trkpt>
      <trkpt lat="41.628707268" lon="2.520970253">
        <ele>368.32</ele>
        <time>2013-06-16T08:11:01Z</time>
      </trkpt>
      <trkpt lat="41.628815395" lon="2.521027753">
        <ele>369.76</ele>
        <time>2013-06-16T08:11:07Z</time>
      </trkpt>
      <trkpt lat="41.628930646" lon="2.521178628">
        <ele>370.73</ele>
        <time>2013-06-16T08:11:17Z</time>
      </trkpt>
      <trkpt lat="41.629034582" lon="2.521278205">
        <ele>372.65</ele>
        <time>2013-06-16T08:11:25Z</time>
      </trkpt>
      <trkpt lat="41.629128040" lon="2.521376021">
        <ele>374.57</ele>
        <time>2013-06-16T08:11:33Z</time>
      </trkpt>
      <trkpt lat="41.629227533" lon="2.521410052">
        <ele>376.49</ele>
        <time>2013-06-16T08:11:41Z</time>
      </trkpt>
      <trkpt lat="41.629329457" lon="2.521444166">
        <ele>377.94</ele>
        <time>2013-06-16T08:11:48Z</time>
      </trkpt>
      <trkpt lat="41.629447809" lon="2.521425391">
        <ele>379.86</ele>
        <time>2013-06-16T08:11:57Z</time>
      </trkpt>
      <trkpt lat="41.629515200" lon="2.521403849">
        <ele>381.78</ele>
        <time>2013-06-16T08:12:04Z</time>
      </trkpt>
      <trkpt lat="41.629542944" lon="2.521372417">
        <ele>382.74</ele>
        <time>2013-06-16T08:12:08Z</time>
      </trkpt>
      <trkpt lat="41.629503046" lon="2.521282228">
        <ele>383.70</ele>
        <time>2013-06-16T08:12:16Z</time>
      </trkpt>
      <trkpt lat="41.629418640" lon="2.521215592">
        <ele>384.66</ele>
        <time>2013-06-16T08:12:25Z</time>
      </trkpt>
      <trkpt lat="41.629367008" lon="2.521162031">
        <ele>385.63</ele>
        <time>2013-06-16T08:12:31Z</time>
      </trkpt>
      <trkpt lat="41.629278830" lon="2.521047618">
        <ele>386.59</ele>
        <time>2013-06-16T08:12:41Z</time>
      </trkpt>
      <trkpt lat="41.629233065" lon="2.520944270">
        <ele>387.55</ele>
        <time>2013-06-16T08:12:48Z</time>
      </trkpt>
      <trkpt lat="41.629132985" lon="2.520836311">
        <ele>386.59</ele>
        <time>2013-06-16T08:12:53Z</time>
      </trkpt>
      <trkpt lat="41.629100715" lon="2.520767998">
        <ele>386.59</ele>
        <time>2013-06-16T08:12:55Z</time>
      </trkpt>
      <trkpt lat="41.629119826" lon="2.520576639">
        <ele>383.70</ele>
        <time>2013-06-16T08:13:01Z</time>
      </trkpt>
      <trkpt lat="41.629108594" lon="2.520282183">
        <ele>381.78</ele>
        <time>2013-06-16T08:13:09Z</time>
      </trkpt>
      <trkpt lat="41.629055117" lon="2.520074982">
        <ele>378.42</ele>
        <time>2013-06-16T08:13:16Z</time>
      </trkpt>
      <trkpt lat="41.629075821" lon="2.519882199">
        <ele>376.97</ele>
        <time>2013-06-16T08:13:22Z</time>
      </trkpt>
      <trkpt lat="41.629085963" lon="2.519751022">
        <ele>376.01</ele>
        <time>2013-06-16T08:13:26Z</time>
      </trkpt>
      <trkpt lat="41.629032654" lon="2.519464947">
        <ele>374.57</ele>
        <time>2013-06-16T08:13:34Z</time>
      </trkpt>
      <trkpt lat="41.629008598" lon="2.519297309">
        <ele>372.65</ele>
        <time>2013-06-16T08:13:40Z</time>
      </trkpt>
      <trkpt lat="41.629009436" lon="2.519176610">
        <ele>370.73</ele>
        <time>2013-06-16T08:13:45Z</time>
      </trkpt>
      <trkpt lat="41.629029804" lon="2.519043757">
        <ele>368.80</ele>
        <time>2013-06-16T08:13:50Z</time>
      </trkpt>
      <trkpt lat="41.629014214" lon="2.518943593">
        <ele>367.84</ele>
        <time>2013-06-16T08:13:53Z</time>
      </trkpt>
      <trkpt lat="41.628954702" lon="2.518763298">
        <ele>366.40</ele>
        <time>2013-06-16T08:14:02Z</time>
      </trkpt>
      <trkpt lat="41.628933663" lon="2.518582752">
        <ele>364.00</ele>
        <time>2013-06-16T08:14:10Z</time>
      </trkpt>
      <trkpt lat="41.628911200" lon="2.518381167">
        <ele>362.07</ele>
        <time>2013-06-16T08:14:17Z</time>
      </trkpt>
      <trkpt lat="41.628885970" lon="2.518290643">
        <ele>360.63</ele>
        <time>2013-06-16T08:14:25Z</time>
      </trkpt>
      <trkpt lat="41.628864764" lon="2.518230209">
        <ele>360.15</ele>
        <time>2013-06-16T08:14:35Z</time>
      </trkpt>
      <trkpt lat="41.628816317" lon="2.518104648">
        <ele>359.19</ele>
        <time>2013-06-16T08:14:42Z</time>
      </trkpt>
      <trkpt lat="41.628799804" lon="2.518079754">
        <ele>358.23</ele>
        <time>2013-06-16T08:14:49Z</time>
      </trkpt>
      <trkpt lat="41.628796368" lon="2.518079838">
        <ele>358.23</ele>
        <time>2013-06-16T08:14:59Z</time>
      </trkpt>
      <trkpt lat="41.628766947" lon="2.518030469">
        <ele>357.75</ele>
        <time>2013-06-16T08:15:05Z</time>
      </trkpt>
      <trkpt lat="41.628712214" lon="2.517868865">
        <ele>354.86</ele>
        <time>2013-06-16T08:15:10Z</time>
      </trkpt>
      <trkpt lat="41.628678602" lon="2.517778341">
        <ele>353.90</ele>
        <time>2013-06-16T08:15:13Z</time>
      </trkpt>
      <trkpt lat="41.628734677" lon="2.517746406">
        <ele>351.98</ele>
        <time>2013-06-16T08:15:18Z</time>
      </trkpt>
      <trkpt lat="41.628748842" lon="2.517765433">
        <ele>351.98</ele>
        <time>2013-06-16T08:15:20Z</time>
      </trkpt>
      <trkpt lat="41.628818915" lon="2.517804660">
        <ele>350.06</ele>
        <time>2013-06-16T08:15:25Z</time>
      </trkpt>
      <trkpt lat="41.628949002" lon="2.517859394">
        <ele>348.13</ele>
        <time>2013-06-16T08:15:31Z</time>
      </trkpt>
      <trkpt lat="41.629088896" lon="2.517934999">
        <ele>346.21</ele>
        <time>2013-06-16T08:15:36Z</time>
      </trkpt>
      <trkpt lat="41.629294253" lon="2.518093081">
        <ele>344.77</ele>
        <time>2013-06-16T08:15:42Z</time>
      </trkpt>
      <trkpt lat="41.629377150" lon="2.518094087">
        <ele>344.29</ele>
        <time>2013-06-16T08:15:46Z</time>
      </trkpt>
      <trkpt lat="41.629412019" lon="2.518100457">
        <ele>343.33</ele>
        <time>2013-06-16T08:15:48Z</time>
      </trkpt>
      <trkpt lat="41.629537496" lon="2.518296007">
        <ele>340.44</ele>
        <time>2013-06-16T08:15:56Z</time>
      </trkpt>
      <trkpt lat="41.629605473" lon="2.518370606">
        <ele>339.48</ele>
        <time>2013-06-16T08:16:01Z</time>
      </trkpt>
      <trkpt lat="41.629683257" lon="2.518463645">
        <ele>337.08</ele>
        <time>2013-06-16T08:16:06Z</time>
      </trkpt>
      <trkpt lat="41.629780403" lon="2.518595241">
        <ele>335.64</ele>
        <time>2013-06-16T08:16:13Z</time>
      </trkpt>
      <trkpt lat="41.629889619" lon="2.518749887">
        <ele>333.23</ele>
        <time>2013-06-16T08:16:19Z</time>
      </trkpt>
      <trkpt lat="41.630033956" lon="2.518892547">
        <ele>330.35</ele>
        <time>2013-06-16T08:16:25Z</time>
      </trkpt>
      <trkpt lat="41.630132108" lon="2.518968403">
        <ele>327.95</ele>
        <time>2013-06-16T08:16:28Z</time>
      </trkpt>
      <trkpt lat="41.630246940" lon="2.519094300">
        <ele>326.02</ele>
        <time>2013-06-16T08:16:31Z</time>
      </trkpt>
      <trkpt lat="41.630288095" lon="2.519130509">
        <ele>325.54</ele>
        <time>2013-06-16T08:16:32Z</time>
      </trkpt>
      <trkpt lat="41.630423379" lon="2.519209718">
        <ele>324.58</ele>
        <time>2013-06-16T08:16:35Z</time>
      </trkpt>
      <trkpt lat="41.630630580" lon="2.519143082">
        <ele>324.10</ele>
        <time>2013-06-16T08:16:40Z</time>
      </trkpt>
      <trkpt lat="41.630841720" lon="2.519131515">
        <ele>320.26</ele>
        <time>2013-06-16T08:16:45Z</time>
      </trkpt>
      <trkpt lat="41.630998042" lon="2.519340811">
        <ele>316.89</ele>
        <time>2013-06-16T08:16:49Z</time>
      </trkpt>
      <trkpt lat="41.631212116" lon="2.519638620">
        <ele>313.05</ele>
        <time>2013-06-16T08:16:54Z</time>
      </trkpt>
      <trkpt lat="41.631327786" lon="2.519760158">
        <ele>310.64</ele>
        <time>2013-06-16T08:16:56Z</time>
      </trkpt>
      <trkpt lat="41.631443457" lon="2.519852778">
        <ele>309.68</ele>
        <time>2013-06-16T08:16:58Z</time>
      </trkpt>
      <trkpt lat="41.631632301" lon="2.519972555">
        <ele>307.76</ele>
        <time>2013-06-16T08:17:01Z</time>
      </trkpt>
      <trkpt lat="41.631824330" lon="2.520083364">
        <ele>304.39</ele>
        <time>2013-06-16T08:17:04Z</time>
      </trkpt>
      <trkpt lat="41.632056677" lon="2.520225773">
        <ele>301.03</ele>
        <time>2013-06-16T08:17:08Z</time>
      </trkpt>
      <trkpt lat="41.632148794" lon="2.520257121">
        <ele>300.07</ele>
        <time>2013-06-16T08:17:10Z</time>
      </trkpt>
      <trkpt lat="41.632294220" lon="2.520314621">
        <ele>298.15</ele>
        <time>2013-06-16T08:17:13Z</time>
      </trkpt>
      <trkpt lat="41.632486920" lon="2.520441104">
        <ele>294.30</ele>
        <time>2013-06-16T08:17:18Z</time>
      </trkpt>
      <trkpt lat="41.632576187" lon="2.520503549">
        <ele>292.86</ele>
        <time>2013-06-16T08:17:21Z</time>
      </trkpt>
      <trkpt lat="41.632730833" lon="2.520562809">
        <ele>290.94</ele>
        <time>2013-06-16T08:17:28Z</time>
      </trkpt>
      <trkpt lat="41.632838038" lon="2.520540178">
        <ele>290.46</ele>
        <time>2013-06-16T08:17:32Z</time>
      </trkpt>
      <trkpt lat="41.632997797" lon="2.520532634">
        <ele>289.97</ele>
        <time>2013-06-16T08:17:37Z</time>
      </trkpt>
      <trkpt lat="41.633096955" lon="2.520613855">
        <ele>289.97</ele>
        <time>2013-06-16T08:17:41Z</time>
      </trkpt>
      <trkpt lat="41.633316309" lon="2.520864306">
        <ele>289.97</ele>
        <time>2013-06-16T08:17:51Z</time>
      </trkpt>
      <trkpt lat="41.633382778" lon="2.521029681">
        <ele>289.97</ele>
        <time>2013-06-16T08:17:57Z</time>
      </trkpt>
      <trkpt lat="41.633452515" lon="2.521327909">
        <ele>288.53</ele>
        <time>2013-06-16T08:18:04Z</time>
      </trkpt>
      <trkpt lat="41.633506578" lon="2.521486495">
        <ele>287.57</ele>
        <time>2013-06-16T08:18:10Z</time>
      </trkpt>
      <trkpt lat="41.633560809" lon="2.521630747">
        <ele>286.61</ele>
        <time>2013-06-16T08:18:13Z</time>
      </trkpt>
      <trkpt lat="41.633697602" lon="2.521885641">
        <ele>285.65</ele>
        <time>2013-06-16T08:18:18Z</time>
      </trkpt>
      <trkpt lat="41.633745295" lon="2.522080939">
        <ele>284.21</ele>
        <time>2013-06-16T08:18:21Z</time>
      </trkpt>
      <trkpt lat="41.633767758" lon="2.522203986">
        <ele>283.25</ele>
        <time>2013-06-16T08:18:23Z</time>
      </trkpt>
      <trkpt lat="41.633850572" lon="2.522397859">
        <ele>281.32</ele>
        <time>2013-06-16T08:18:27Z</time>
      </trkpt>
      <trkpt lat="41.633963224" lon="2.522535406">
        <ele>280.84</ele>
        <time>2013-06-16T08:18:30Z</time>
      </trkpt>
      <trkpt lat="41.634254747" lon="2.522845369">
        <ele>278.44</ele>
        <time>2013-06-16T08:18:36Z</time>
      </trkpt>
      <trkpt lat="41.634373854" lon="2.522975959">
        <ele>277.00</ele>
        <time>2013-06-16T08:18:39Z</time>
      </trkpt>
      <trkpt lat="41.634515592" lon="2.523199840">
        <ele>273.63</ele>
        <time>2013-06-16T08:18:43Z</time>
      </trkpt>
      <trkpt lat="41.634652133" lon="2.523452303">
        <ele>270.27</ele>
        <time>2013-06-16T08:18:48Z</time>
      </trkpt>
      <trkpt lat="41.634697814" lon="2.523621030">
        <ele>268.83</ele>
        <time>2013-06-16T08:18:51Z</time>
      </trkpt>
      <trkpt lat="41.634812227" lon="2.523882629">
        <ele>265.46</ele>
        <time>2013-06-16T08:18:58Z</time>
      </trkpt>
      <trkpt lat="41.634870314" lon="2.523969885">
        <ele>264.98</ele>
        <time>2013-06-16T08:19:02Z</time>
      </trkpt>
      <trkpt lat="41.634961761" lon="2.524003161">
        <ele>264.98</ele>
        <time>2013-06-16T08:19:07Z</time>
      </trkpt>
      <trkpt lat="41.635099811" lon="2.523994779">
        <ele>264.98</ele>
        <time>2013-06-16T08:19:14Z</time>
      </trkpt>
      <trkpt lat="41.635132165" lon="2.523986397">
        <ele>264.98</ele>
        <time>2013-06-16T08:19:16Z</time>
      </trkpt>
      <trkpt lat="41.635194526" lon="2.523982877">
        <ele>265.94</ele>
        <time>2013-06-16T08:19:20Z</time>
      </trkpt>
      <trkpt lat="41.635357051" lon="2.523955133">
        <ele>264.98</ele>
        <time>2013-06-16T08:19:27Z</time>
      </trkpt>
      <trkpt lat="41.635391082" lon="2.523956390">
        <ele>264.98</ele>
        <time>2013-06-16T08:19:28Z</time>
      </trkpt>
      <trkpt lat="41.635471045" lon="2.523960749">
        <ele>264.02</ele>
        <time>2013-06-16T08:19:30Z</time>
      </trkpt>
      <trkpt lat="41.635733818" lon="2.523952954">
        <ele>263.06</ele>
        <time>2013-06-16T08:19:37Z</time>
      </trkpt>
      <trkpt lat="41.635859379" lon="2.523942476">
        <ele>262.58</ele>
        <time>2013-06-16T08:19:43Z</time>
      </trkpt>
      <trkpt lat="41.636026598" lon="2.523955133">
        <ele>262.10</ele>
        <time>2013-06-16T08:19:52Z</time>
      </trkpt>
      <trkpt lat="41.636195158" lon="2.523927054">
        <ele>261.62</ele>
        <time>2013-06-16T08:20:00Z</time>
      </trkpt>
      <trkpt lat="41.636263051" lon="2.523796966">
        <ele>260.65</ele>
        <time>2013-06-16T08:20:05Z</time>
      </trkpt>
      <trkpt lat="41.636344858" lon="2.523779951">
        <ele>260.65</ele>
        <time>2013-06-16T08:20:10Z</time>
      </trkpt>
      <trkpt lat="41.636533367" lon="2.523812892">
        <ele>260.65</ele>
        <time>2013-06-16T08:20:17Z</time>
      </trkpt>
      <trkpt lat="41.636656749" lon="2.523859076">
        <ele>260.65</ele>
        <time>2013-06-16T08:20:23Z</time>
      </trkpt>
      <trkpt lat="41.636812485" lon="2.523863016">
        <ele>260.17</ele>
        <time>2013-06-16T08:20:29Z</time>
      </trkpt>
      <trkpt lat="41.636990600" lon="2.523784477">
        <ele>260.17</ele>
        <time>2013-06-16T08:20:37Z</time>
      </trkpt>
      <trkpt lat="41.637145330" lon="2.523690349">
        <ele>260.17</ele>
        <time>2013-06-16T08:20:44Z</time>
      </trkpt>
      <trkpt lat="41.637257480" lon="2.523628993">
        <ele>260.17</ele>
        <time>2013-06-16T08:20:50Z</time>
      </trkpt>
      <trkpt lat="41.637332750" lon="2.523617175">
        <ele>260.17</ele>
        <time>2013-06-16T08:20:53Z</time>
      </trkpt>
      <trkpt lat="41.637510613" lon="2.523672411">
        <ele>258.73</ele>
        <time>2013-06-16T08:21:01Z</time>
      </trkpt>
      <trkpt lat="41.637673642" lon="2.523712728">
        <ele>257.77</ele>
        <time>2013-06-16T08:21:08Z</time>
      </trkpt>
      <trkpt lat="41.637780008" lon="2.523696719">
        <ele>257.29</ele>
        <time>2013-06-16T08:21:14Z</time>
      </trkpt>
      <trkpt lat="41.637948903" lon="2.523667885">
        <ele>255.85</ele>
        <time>2013-06-16T08:21:20Z</time>
      </trkpt>
      <trkpt lat="41.637998776" lon="2.523656402">
        <ele>255.37</ele>
        <time>2013-06-16T08:21:26Z</time>
      </trkpt>
      <trkpt lat="41.638000368" lon="2.523633436">
        <ele>255.37</ele>
        <time>2013-06-16T08:21:29Z</time>
      </trkpt>
      <trkpt lat="41.638071866" lon="2.523445346">
        <ele>255.37</ele>
        <time>2013-06-16T08:21:38Z</time>
      </trkpt>
      <trkpt lat="41.638160043" lon="2.523246694">
        <ele>254.89</ele>
        <time>2013-06-16T08:21:46Z</time>
      </trkpt>
      <trkpt lat="41.638231457" lon="2.523171844">
        <ele>254.89</ele>
        <time>2013-06-16T08:21:53Z</time>
      </trkpt>
      <trkpt lat="41.638313600" lon="2.523118619">
        <ele>253.93</ele>
        <time>2013-06-16T08:22:00Z</time>
      </trkpt>
      <trkpt lat="41.638383924" lon="2.523048546">
        <ele>252.48</ele>
        <time>2013-06-16T08:22:05Z</time>
      </trkpt>
      <trkpt lat="41.638432790" lon="2.523002865">
        <ele>252.00</ele>
        <time>2013-06-16T08:22:11Z</time>
      </trkpt>
      <trkpt lat="41.638455925" lon="2.522980401">
        <ele>252.00</ele>
        <time>2013-06-16T08:22:18Z</time>
      </trkpt>
      <trkpt lat="41.638536056" lon="2.522891972">
        <ele>251.04</ele>
        <time>2013-06-16T08:22:24Z</time>
      </trkpt>
      <trkpt lat="41.638624904" lon="2.522802621">
        <ele>250.08</ele>
        <time>2013-06-16T08:22:30Z</time>
      </trkpt>
      <trkpt lat="41.638663209" lon="2.522743277">
        <ele>249.60</ele>
        <time>2013-06-16T08:22:34Z</time>
      </trkpt>
      <trkpt lat="41.638768989" lon="2.522590727">
        <ele>249.12</ele>
        <time>2013-06-16T08:22:43Z</time>
      </trkpt>
      <trkpt lat="41.638789357" lon="2.522536831">
        <ele>249.12</ele>
        <time>2013-06-16T08:22:53Z</time>
      </trkpt>
      <trkpt lat="41.638868482" lon="2.522430381">
        <ele>248.16</ele>
        <time>2013-06-16T08:23:00Z</time>
      </trkpt>
      <trkpt lat="41.638900501" lon="2.522371289">
        <ele>247.20</ele>
        <time>2013-06-16T08:23:06Z</time>
      </trkpt>
      <trkpt lat="41.638902429" lon="2.522356704">
        <ele>247.20</ele>
        <time>2013-06-16T08:23:16Z</time>
      </trkpt>
      <trkpt lat="41.638891616" lon="2.522350585">
        <ele>247.20</ele>
        <time>2013-06-16T08:23:20Z</time>
      </trkpt>
      <trkpt lat="41.638839313" lon="2.522273472">
        <ele>247.20</ele>
        <time>2013-06-16T08:23:29Z</time>
      </trkpt>
      <trkpt lat="41.638804193" lon="2.522211865">
        <ele>246.72</ele>
        <time>2013-06-16T08:23:36Z</time>
      </trkpt>
      <trkpt lat="41.638815089" lon="2.522146905">
        <ele>246.72</ele>
        <time>2013-06-16T08:23:43Z</time>
      </trkpt>
      <trkpt lat="41.638823890" lon="2.522089154">
        <ele>246.72</ele>
        <time>2013-06-16T08:23:50Z</time>
      </trkpt>
      <trkpt lat="41.638812826" lon="2.522029642">
        <ele>246.72</ele>
        <time>2013-06-16T08:23:57Z</time>
      </trkpt>
      <trkpt lat="41.638810730" lon="2.522007346">
        <ele>246.72</ele>
        <time>2013-06-16T08:24:07Z</time>
      </trkpt>
      <trkpt lat="41.638805534" lon="2.521996785">
        <ele>246.72</ele>
        <time>2013-06-16T08:24:22Z</time>
      </trkpt>
      <trkpt lat="41.638818107" lon="2.522026625">
        <ele>246.72</ele>
        <time>2013-06-16T08:24:34Z</time>
      </trkpt>
      <trkpt lat="41.638819615" lon="2.522050681">
        <ele>246.72</ele>
        <time>2013-06-16T08:24:41Z</time>
      </trkpt>
      <trkpt lat="41.638833110" lon="2.522078425">
        <ele>246.72</ele>
        <time>2013-06-16T08:24:48Z</time>
      </trkpt>
      <trkpt lat="41.638832859" lon="2.522098709">
        <ele>246.72</ele>
        <time>2013-06-16T08:24:55Z</time>
      </trkpt>
      <trkpt lat="41.638819783" lon="2.522144558">
        <ele>246.72</ele>
        <time>2013-06-16T08:25:03Z</time>
      </trkpt>
      <trkpt lat="41.638847695" lon="2.522228042">
        <ele>246.72</ele>
        <time>2013-06-16T08:25:11Z</time>
      </trkpt>
      <trkpt lat="41.638892706" lon="2.522272214">
        <ele>246.72</ele>
        <time>2013-06-16T08:25:18Z</time>
      </trkpt>
      <trkpt lat="41.638901004" lon="2.522279758">
        <ele>246.72</ele>
        <time>2013-06-16T08:25:27Z</time>
      </trkpt>
      <trkpt lat="41.638905697" lon="2.522305323">
        <ele>246.72</ele>
        <time>2013-06-16T08:25:44Z</time>
      </trkpt>
      <trkpt lat="41.638926987" lon="2.522312783">
        <ele>246.72</ele>
        <time>2013-06-16T08:25:51Z</time>
      </trkpt>
      <trkpt lat="41.638933274" lon="2.522289062">
        <ele>246.72</ele>
        <time>2013-06-16T08:25:59Z</time>
      </trkpt>
      <trkpt lat="41.638953223" lon="2.522247153">
        <ele>246.72</ele>
        <time>2013-06-16T08:26:21Z</time>
      </trkpt>
      <trkpt lat="41.638921623" lon="2.522268023">
        <ele>246.72</ele>
        <time>2013-06-16T08:26:37Z</time>
      </trkpt>
      <trkpt lat="41.638911565" lon="2.522251763">
        <ele>247.20</ele>
        <time>2013-06-16T08:27:02Z</time>
      </trkpt>
      <trkpt lat="41.638892706" lon="2.522272466">
        <ele>247.20</ele>
        <time>2013-06-16T08:27:24Z</time>
      </trkpt>
      <trkpt lat="41.638877870" lon="2.522288224">
        <ele>247.20</ele>
        <time>2013-06-16T08:27:47Z</time>
      </trkpt>
      <trkpt lat="41.638902429" lon="2.522273807">
        <ele>247.20</ele>
        <time>2013-06-16T08:28:16Z</time>
      </trkpt>
      <trkpt lat="41.638924305" lon="2.522306329">
        <ele>247.20</ele>
        <time>2013-06-16T08:28:38Z</time>
      </trkpt>
      <trkpt lat="41.638932017" lon="2.522320494">
        <ele>247.20</ele>
        <time>2013-06-16T08:28:44Z</time>
      </trkpt>
      <trkpt lat="41.638953558" lon="2.522333821">
        <ele>247.20</ele>
        <time>2013-06-16T08:28:52Z</time>
      </trkpt>
      <trkpt lat="41.639003011" lon="2.522304149">
        <ele>247.20</ele>
        <time>2013-06-16T08:29:00Z</time>
      </trkpt>
      <trkpt lat="41.639042742" lon="2.522286547">
        <ele>246.72</ele>
        <time>2013-06-16T08:29:10Z</time>
      </trkpt>
      <trkpt lat="41.639051626" lon="2.522290487">
        <ele>246.72</ele>
        <time>2013-06-16T08:29:16Z</time>
      </trkpt>
      <trkpt lat="41.639056236" lon="2.522290403">
        <ele>246.72</ele>
        <time>2013-06-16T08:29:25Z</time>
      </trkpt>
      <trkpt lat="41.639069983" lon="2.522284368">
        <ele>248.64</ele>
        <time>2013-06-16T08:29:34Z</time>
      </trkpt>
      <trkpt lat="41.639095631" lon="2.522292415">
        <ele>249.60</ele>
        <time>2013-06-16T08:29:45Z</time>
      </trkpt>
      <trkpt lat="41.639123208" lon="2.522294175">
        <ele>250.56</ele>
        <time>2013-06-16T08:29:52Z</time>
      </trkpt>
      <trkpt lat="41.639146007" lon="2.522300210">
        <ele>252.00</ele>
        <time>2013-06-16T08:30:00Z</time>
      </trkpt>
      <trkpt lat="41.639162435" lon="2.522302222">
        <ele>252.48</ele>
        <time>2013-06-16T08:30:06Z</time>
      </trkpt>
      <trkpt lat="41.639186826" lon="2.522311274">
        <ele>252.48</ele>
        <time>2013-06-16T08:30:12Z</time>
      </trkpt>
      <trkpt lat="41.639193029" lon="2.522317896">
        <ele>252.48</ele>
        <time>2013-06-16T08:30:13Z</time>
      </trkpt>
      <trkpt lat="41.639236196" lon="2.522352010">
        <ele>252.48</ele>
        <time>2013-06-16T08:30:21Z</time>
      </trkpt>
      <trkpt lat="41.639223204" lon="2.522363996">
        <ele>252.48</ele>
        <time>2013-06-16T08:30:38Z</time>
      </trkpt>
      <trkpt lat="41.639223204" lon="2.522360308">
        <ele>252.48</ele>
        <time>2013-06-16T08:30:44Z</time>
      </trkpt>
      <trkpt lat="41.639216834" lon="2.522342706">
        <ele>252.48</ele>
        <time>2013-06-16T08:30:54Z</time>
      </trkpt>
      <trkpt lat="41.639228317" lon="2.522320410">
        <ele>252.48</ele>
        <time>2013-06-16T08:31:02Z</time>
      </trkpt>
      <trkpt lat="41.639273998" lon="2.522241704">
        <ele>252.48</ele>
        <time>2013-06-16T08:31:06Z</time>
      </trkpt>
      <trkpt lat="41.639340634" lon="2.522097787">
        <ele>251.04</ele>
        <time>2013-06-16T08:31:10Z</time>
      </trkpt>
      <trkpt lat="41.639383885" lon="2.522008771">
        <ele>251.04</ele>
        <time>2013-06-16T08:31:12Z</time>
      </trkpt>
      <trkpt lat="41.639561162" lon="2.521688583">
        <ele>249.60</ele>
        <time>2013-06-16T08:31:19Z</time>
      </trkpt>
      <trkpt lat="41.639644311" lon="2.521562854">
        <ele>249.12</ele>
        <time>2013-06-16T08:31:23Z</time>
      </trkpt>
      <trkpt lat="41.639940862" lon="2.521153314">
        <ele>248.64</ele>
        <time>2013-06-16T08:31:32Z</time>
      </trkpt>
      <trkpt lat="41.640365909" lon="2.520600947">
        <ele>247.20</ele>
        <time>2013-06-16T08:31:42Z</time>
      </trkpt>
      <trkpt lat="41.640828171" lon="2.519976244">
        <ele>245.27</ele>
        <time>2013-06-16T08:31:52Z</time>
      </trkpt>
      <trkpt lat="41.641233352" lon="2.519427983">
        <ele>242.87</ele>
        <time>2013-06-16T08:32:01Z</time>
      </trkpt>
      <trkpt lat="41.641560749" lon="2.518998411">
        <ele>241.91</ele>
        <time>2013-06-16T08:32:08Z</time>
      </trkpt>
      <trkpt lat="41.641707349" lon="2.518805627">
        <ele>241.43</ele>
        <time>2013-06-16T08:32:11Z</time>
      </trkpt>
      <trkpt lat="41.641930726" lon="2.518568922">
        <ele>240.47</ele>
        <time>2013-06-16T08:32:15Z</time>
      </trkpt>
      <trkpt lat="41.642594070" lon="2.518194335">
        <ele>239.02</ele>
        <time>2013-06-16T08:32:25Z</time>
      </trkpt>
      <trkpt lat="41.642978967" lon="2.517983614">
        <ele>238.54</ele>
        <time>2013-06-16T08:32:31Z</time>
      </trkpt>
      <trkpt lat="41.643233777" lon="2.517898705">
        <ele>238.06</ele>
        <time>2013-06-16T08:32:35Z</time>
      </trkpt>
      <trkpt lat="41.643893852" lon="2.517485729">
        <ele>236.14</ele>
        <time>2013-06-16T08:32:46Z</time>
      </trkpt>
      <trkpt lat="41.644456278" lon="2.517126396">
        <ele>234.70</ele>
        <time>2013-06-16T08:32:55Z</time>
      </trkpt>
      <trkpt lat="41.645233951" lon="2.516702691">
        <ele>233.26</ele>
        <time>2013-06-16T08:33:08Z</time>
      </trkpt>
      <trkpt lat="41.645407121" lon="2.516599678">
        <ele>232.30</ele>
        <time>2013-06-16T08:33:11Z</time>
      </trkpt>
      <trkpt lat="41.645705768" lon="2.516269598">
        <ele>231.33</ele>
        <time>2013-06-16T08:33:17Z</time>
      </trkpt>
      <trkpt lat="41.645881453" lon="2.516022500">
        <ele>231.33</ele>
        <time>2013-06-16T08:33:21Z</time>
      </trkpt>
      <trkpt lat="41.646211448" lon="2.515528219">
        <ele>230.37</ele>
        <time>2013-06-16T08:33:29Z</time>
      </trkpt>
      <trkpt lat="41.646574217" lon="2.515004434">
        <ele>229.89</ele>
        <time>2013-06-16T08:33:38Z</time>
      </trkpt>
      <trkpt lat="41.646862890" lon="2.514576873">
        <ele>229.41</ele>
        <time>2013-06-16T08:33:46Z</time>
      </trkpt>
      <trkpt lat="41.646963892" lon="2.514258528">
        <ele>229.41</ele>
        <time>2013-06-16T08:33:51Z</time>
      </trkpt>
      <trkpt lat="41.646991300" lon="2.513918810">
        <ele>229.41</ele>
        <time>2013-06-16T08:33:56Z</time>
      </trkpt>
      <trkpt lat="41.646996832" lon="2.513776150">
        <ele>229.41</ele>
        <time>2013-06-16T08:33:58Z</time>
      </trkpt>
      <trkpt lat="41.646971351" lon="2.513492590">
        <ele>229.41</ele>
        <time>2013-06-16T08:34:02Z</time>
      </trkpt>
      <trkpt lat="41.646933465" lon="2.512844836">
        <ele>227.01</ele>
        <time>2013-06-16T08:34:09Z</time>
      </trkpt>
      <trkpt lat="41.646915360" lon="2.512723550">
        <ele>227.01</ele>
        <time>2013-06-16T08:34:10Z</time>
      </trkpt>
      <trkpt lat="41.646855765" lon="2.512217451">
        <ele>224.61</ele>
        <time>2013-06-16T08:34:14Z</time>
      </trkpt>
      <trkpt lat="41.646920306" lon="2.511258897">
        <ele>223.16</ele>
        <time>2013-06-16T08:34:22Z</time>
      </trkpt>
      <trkpt lat="41.647001862" lon="2.510553476">
        <ele>222.68</ele>
        <time>2013-06-16T08:34:29Z</time>
      </trkpt>
      <trkpt lat="41.647243009" lon="2.510029690">
        <ele>222.20</ele>
        <time>2013-06-16T08:34:36Z</time>
      </trkpt>
      <trkpt lat="41.647383825" lon="2.509724673">
        <ele>221.72</ele>
        <time>2013-06-16T08:34:41Z</time>
      </trkpt>
      <trkpt lat="41.647407546" lon="2.509677148">
        <ele>221.72</ele>
        <time>2013-06-16T08:34:42Z</time>
      </trkpt>
      <trkpt lat="41.647625224" lon="2.509244893">
        <ele>220.76</ele>
        <time>2013-06-16T08:34:49Z</time>
      </trkpt>
      <trkpt lat="41.647895121" lon="2.508588003">
        <ele>219.32</ele>
        <time>2013-06-16T08:34:57Z</time>
      </trkpt>
      <trkpt lat="41.647933342" lon="2.508506615">
        <ele>218.84</ele>
        <time>2013-06-16T08:34:58Z</time>
      </trkpt>
      <trkpt lat="41.648155044" lon="2.507889036">
        <ele>217.40</ele>
        <time>2013-06-16T08:35:05Z</time>
      </trkpt>
      <trkpt lat="41.648360484" lon="2.507568512">
        <ele>216.91</ele>
        <time>2013-06-16T08:35:10Z</time>
      </trkpt>
      <trkpt lat="41.648410776" lon="2.507418225">
        <ele>216.91</ele>
        <time>2013-06-16T08:35:12Z</time>
      </trkpt>
      <trkpt lat="41.648499289" lon="2.507012708">
        <ele>216.43</ele>
        <time>2013-06-16T08:35:17Z</time>
      </trkpt>
      <trkpt lat="41.648637338" lon="2.506770471">
        <ele>216.43</ele>
        <time>2013-06-16T08:35:21Z</time>
      </trkpt>
      <trkpt lat="41.648626191" lon="2.506570228">
        <ele>216.43</ele>
        <time>2013-06-16T08:35:26Z</time>
      </trkpt>
      <trkpt lat="41.648708501" lon="2.506505268">
        <ele>215.47</ele>
        <time>2013-06-16T08:35:33Z</time>
      </trkpt>
      <trkpt lat="41.648895417" lon="2.506381216">
        <ele>214.99</ele>
        <time>2013-06-16T08:35:40Z</time>
      </trkpt>
      <trkpt lat="41.648982338" lon="2.506139398">
        <ele>214.51</ele>
        <time>2013-06-16T08:35:46Z</time>
      </trkpt>
      <trkpt lat="41.649121310" lon="2.505801775">
        <ele>214.03</ele>
        <time>2013-06-16T08:35:53Z</time>
      </trkpt>
      <trkpt lat="41.649232789" lon="2.505483346">
        <ele>213.55</ele>
        <time>2013-06-16T08:35:59Z</time>
      </trkpt>
      <trkpt lat="41.649256174" lon="2.505284444">
        <ele>213.55</ele>
        <time>2013-06-16T08:36:02Z</time>
      </trkpt>
      <trkpt lat="41.649321218" lon="2.504741129">
        <ele>212.59</ele>
        <time>2013-06-16T08:36:10Z</time>
      </trkpt>
      <trkpt lat="41.649322224" lon="2.504671475">
        <ele>213.07</ele>
        <time>2013-06-16T08:36:11Z</time>
      </trkpt>
      <trkpt lat="41.649289870" lon="2.504396130">
        <ele>213.07</ele>
        <time>2013-06-16T08:36:15Z</time>
      </trkpt>
      <trkpt lat="41.649252989" lon="2.504262690">
        <ele>212.11</ele>
        <time>2013-06-16T08:36:17Z</time>
      </trkpt>
      <trkpt lat="41.649109575" lon="2.503976364">
        <ele>212.11</ele>
        <time>2013-06-16T08:36:23Z</time>
      </trkpt>
      <trkpt lat="41.649010082" lon="2.503847199">
        <ele>211.63</ele>
        <time>2013-06-16T08:36:26Z</time>
      </trkpt>
      <trkpt lat="41.648863734" lon="2.503658690">
        <ele>211.63</ele>
        <time>2013-06-16T08:36:30Z</time>
      </trkpt>
      <trkpt lat="41.648561566" lon="2.503234314">
        <ele>210.67</ele>
        <time>2013-06-16T08:36:39Z</time>
      </trkpt>
      <trkpt lat="41.648268032" lon="2.502894595">
        <ele>210.19</ele>
        <time>2013-06-16T08:36:47Z</time>
      </trkpt>
      <trkpt lat="41.647943652" lon="2.502585052">
        <ele>210.19</ele>
        <time>2013-06-16T08:36:55Z</time>
      </trkpt>
      <trkpt lat="41.647699655" lon="2.502212979">
        <ele>209.22</ele>
        <time>2013-06-16T08:37:02Z</time>
      </trkpt>
      <trkpt lat="41.647594797" lon="2.501919948">
        <ele>209.22</ele>
        <time>2013-06-16T08:37:07Z</time>
      </trkpt>
      <trkpt lat="41.647522797" lon="2.501563465">
        <ele>209.22</ele>
        <time>2013-06-16T08:37:13Z</time>
      </trkpt>
      <trkpt lat="41.647438978" lon="2.501057785">
        <ele>208.26</ele>
        <time>2013-06-16T08:37:21Z</time>
      </trkpt>
      <trkpt lat="41.647369576" lon="2.500737932">
        <ele>208.26</ele>
        <time>2013-06-16T08:37:26Z</time>
      </trkpt>
      <trkpt lat="41.647312830" lon="2.500516398">
        <ele>207.78</ele>
        <time>2013-06-16T08:37:30Z</time>
      </trkpt>
      <trkpt lat="41.647269580" lon="2.500205262">
        <ele>207.78</ele>
        <time>2013-06-16T08:37:35Z</time>
      </trkpt>
      <trkpt lat="41.647243260" lon="2.499879373">
        <ele>207.30</ele>
        <time>2013-06-16T08:37:40Z</time>
      </trkpt>
      <trkpt lat="41.647300090" lon="2.499466397">
        <ele>208.26</ele>
        <time>2013-06-16T08:37:47Z</time>
      </trkpt>
      <trkpt lat="41.647316686" lon="2.499409819">
        <ele>208.26</ele>
        <time>2013-06-16T08:37:48Z</time>
      </trkpt>
      <trkpt lat="41.647369492" lon="2.499305548">
        <ele>208.26</ele>
        <time>2013-06-16T08:37:50Z</time>
      </trkpt>
      <trkpt lat="41.647640479" lon="2.499028862">
        <ele>207.30</ele>
        <time>2013-06-16T08:37:57Z</time>
      </trkpt>
      <trkpt lat="41.647824545" lon="2.498778159">
        <ele>206.34</ele>
        <time>2013-06-16T08:38:03Z</time>
      </trkpt>
      <trkpt lat="41.647990088" lon="2.498555871">
        <ele>206.34</ele>
        <time>2013-06-16T08:38:09Z</time>
      </trkpt>
      <trkpt lat="41.648201815" lon="2.498304749">
        <ele>206.34</ele>
        <time>2013-06-16T08:38:16Z</time>
      </trkpt>
      <trkpt lat="41.648228721" lon="2.498271221">
        <ele>205.86</ele>
        <time>2013-06-16T08:38:17Z</time>
      </trkpt>
      <trkpt lat="41.648446147" lon="2.498216488">
        <ele>205.38</ele>
        <time>2013-06-16T08:38:23Z</time>
      </trkpt>
      <trkpt lat="41.648560057" lon="2.498061674">
        <ele>204.90</ele>
        <time>2013-06-16T08:38:28Z</time>
      </trkpt>
      <trkpt lat="41.648673381" lon="2.497850115">
        <ele>206.34</ele>
        <time>2013-06-16T08:38:33Z</time>
      </trkpt>
      <trkpt lat="41.648780753" lon="2.497614164">
        <ele>207.30</ele>
        <time>2013-06-16T08:38:39Z</time>
      </trkpt>
      <trkpt lat="41.648908325" lon="2.497387014">
        <ele>208.26</ele>
        <time>2013-06-16T08:38:45Z</time>
      </trkpt>
      <trkpt lat="41.649009746" lon="2.497108735">
        <ele>209.22</ele>
        <time>2013-06-16T08:38:52Z</time>
      </trkpt>
      <trkpt lat="41.649061211" lon="2.496809920">
        <ele>210.19</ele>
        <time>2013-06-16T08:38:59Z</time>
      </trkpt>
      <trkpt lat="41.649078562" lon="2.496551087">
        <ele>212.11</ele>
        <time>2013-06-16T08:39:06Z</time>
      </trkpt>
      <trkpt lat="41.649068336" lon="2.496296110">
        <ele>213.55</ele>
        <time>2013-06-16T08:39:12Z</time>
      </trkpt>
      <trkpt lat="41.649141426" lon="2.496174488">
        <ele>213.55</ele>
        <time>2013-06-16T08:39:15Z</time>
      </trkpt>
      <trkpt lat="41.649363630" lon="2.495808283">
        <ele>210.67</ele>
        <time>2013-06-16T08:39:21Z</time>
      </trkpt>
      <trkpt lat="41.649404115" lon="2.495726643">
        <ele>209.70</ele>
        <time>2013-06-16T08:39:22Z</time>
      </trkpt>
      <trkpt lat="41.649478965" lon="2.495553054">
        <ele>209.22</ele>
        <time>2013-06-16T08:39:24Z</time>
      </trkpt>
      <trkpt lat="41.649597569" lon="2.495204451">
        <ele>208.26</ele>
        <time>2013-06-16T08:39:28Z</time>
      </trkpt>
      <trkpt lat="41.649656243" lon="2.494816536">
        <ele>207.78</ele>
        <time>2013-06-16T08:39:33Z</time>
      </trkpt>
      <trkpt lat="41.649726399" lon="2.494651161">
        <ele>206.34</ele>
        <time>2013-06-16T08:39:36Z</time>
      </trkpt>
      <trkpt lat="41.649766800" lon="2.494635236">
        <ele>205.86</ele>
        <time>2013-06-16T08:39:37Z</time>
      </trkpt>
      <trkpt lat="41.650054467" lon="2.494494923">
        <ele>205.86</ele>
        <time>2013-06-16T08:39:45Z</time>
      </trkpt>
      <trkpt lat="41.650238282" lon="2.494349664">
        <ele>207.30</ele>
        <time>2013-06-16T08:39:52Z</time>
      </trkpt>
      <trkpt lat="41.650405166" lon="2.494204154">
        <ele>209.22</ele>
        <time>2013-06-16T08:39:58Z</time>
      </trkpt>
      <trkpt lat="41.650451015" lon="2.494130310">
        <ele>209.70</ele>
        <time>2013-06-16T08:40:00Z</time>
      </trkpt>
      <trkpt lat="41.650691659" lon="2.493990919">
        <ele>207.78</ele>
        <time>2013-06-16T08:40:06Z</time>
      </trkpt>
      <trkpt lat="41.650743208" lon="2.493974323">
        <ele>207.30</ele>
        <time>2013-06-16T08:40:07Z</time>
      </trkpt>
      <trkpt lat="41.650902380" lon="2.493993182">
        <ele>205.38</ele>
        <time>2013-06-16T08:40:10Z</time>
      </trkpt>
      <trkpt lat="41.651209325" lon="2.493899807">
        <ele>202.98</ele>
        <time>2013-06-16T08:40:15Z</time>
      </trkpt>
      <trkpt lat="41.651264311" lon="2.493841050">
        <ele>202.49</ele>
        <time>2013-06-16T08:40:16Z</time>
      </trkpt>
      <trkpt lat="41.651581231" lon="2.493422374">
        <ele>200.57</ele>
        <time>2013-06-16T08:40:23Z</time>
      </trkpt>
      <trkpt lat="41.651802261" lon="2.493229507">
        <ele>200.57</ele>
        <time>2013-06-16T08:40:29Z</time>
      </trkpt>
      <trkpt lat="41.651870741" lon="2.493250378">
        <ele>199.61</ele>
        <time>2013-06-16T08:40:33Z</time>
      </trkpt>
      <trkpt lat="41.651876525" lon="2.493299496">
        <ele>199.61</ele>
        <time>2013-06-16T08:40:37Z</time>
      </trkpt>
      <trkpt lat="41.652010803" lon="2.493367724">
        <ele>197.69</ele>
        <time>2013-06-16T08:40:42Z</time>
      </trkpt>
      <trkpt lat="41.652118343" lon="2.493466966">
        <ele>197.21</ele>
        <time>2013-06-16T08:40:45Z</time>
      </trkpt>
      <trkpt lat="41.652305846" lon="2.493501667">
        <ele>196.73</ele>
        <time>2013-06-16T08:40:49Z</time>
      </trkpt>
      <trkpt lat="41.652434424" lon="2.493527735">
        <ele>195.77</ele>
        <time>2013-06-16T08:40:55Z</time>
      </trkpt>
      <trkpt lat="41.652508940" lon="2.493516671">
        <ele>195.77</ele>
        <time>2013-06-16T08:41:01Z</time>
      </trkpt>
      <trkpt lat="41.652536935" lon="2.493503679">
        <ele>195.77</ele>
        <time>2013-06-16T08:41:17Z</time>
      </trkpt>
      <trkpt lat="41.652573732" lon="2.493488005">
        <ele>195.77</ele>
        <time>2013-06-16T08:41:30Z</time>
      </trkpt>
      <trkpt lat="41.652600554" lon="2.493472079">
        <ele>195.28</ele>
        <time>2013-06-16T08:41:43Z</time>
      </trkpt>
      <trkpt lat="41.652736927" lon="2.493394295">
        <ele>195.28</ele>
        <time>2013-06-16T08:41:50Z</time>
      </trkpt>
      <trkpt lat="41.652898028" lon="2.493279714">
        <ele>195.28</ele>
        <time>2013-06-16T08:41:56Z</time>
      </trkpt>
      <trkpt lat="41.653033060" lon="2.493219616">
        <ele>195.28</ele>
        <time>2013-06-16T08:42:03Z</time>
      </trkpt>
      <trkpt lat="41.653219893" lon="2.493113250">
        <ele>195.28</ele>
        <time>2013-06-16T08:42:08Z</time>
      </trkpt>
      <trkpt lat="41.653482246" lon="2.493026497">
        <ele>194.80</ele>
        <time>2013-06-16T08:42:15Z</time>
      </trkpt>
      <trkpt lat="41.653675365" lon="2.493004201">
        <ele>194.80</ele>
        <time>2013-06-16T08:42:21Z</time>
      </trkpt>
      <trkpt lat="41.653854989" lon="2.492958687">
        <ele>194.32</ele>
        <time>2013-06-16T08:42:28Z</time>
      </trkpt>
      <trkpt lat="41.654032099" lon="2.492950557">
        <ele>194.32</ele>
        <time>2013-06-16T08:42:34Z</time>
      </trkpt>
      <trkpt lat="41.654255561" lon="2.492957514">
        <ele>194.32</ele>
        <time>2013-06-16T08:42:41Z</time>
      </trkpt>
      <trkpt lat="41.654538785" lon="2.492973020">
        <ele>193.36</ele>
        <time>2013-06-16T08:42:48Z</time>
      </trkpt>
      <trkpt lat="41.654755793" lon="2.493027084">
        <ele>193.36</ele>
        <time>2013-06-16T08:42:54Z</time>
      </trkpt>
      <trkpt lat="41.654893340" lon="2.492985509">
        <ele>192.88</ele>
        <time>2013-06-16T08:42:59Z</time>
      </trkpt>
      <trkpt lat="41.654916641" lon="2.492972266">
        <ele>192.88</ele>
        <time>2013-06-16T08:43:00Z</time>
      </trkpt>
      <trkpt lat="41.655066007" lon="2.492988443">
        <ele>192.88</ele>
        <time>2013-06-16T08:43:05Z</time>
      </trkpt>
      <trkpt lat="41.655338586" lon="2.493160691">
        <ele>192.88</ele>
        <time>2013-06-16T08:43:14Z</time>
      </trkpt>
      <trkpt lat="41.655413772" lon="2.493226908">
        <ele>192.88</ele>
        <time>2013-06-16T08:43:17Z</time>
      </trkpt>
      <trkpt lat="41.655541009" lon="2.493253982">
        <ele>192.88</ele>
        <time>2013-06-16T08:43:22Z</time>
      </trkpt>
      <trkpt lat="41.655874777" lon="2.493320115">
        <ele>191.44</ele>
        <time>2013-06-16T08:43:31Z</time>
      </trkpt>
      <trkpt lat="41.656318934" lon="2.493425978">
        <ele>190.96</ele>
        <time>2013-06-16T08:43:39Z</time>
      </trkpt>
      <trkpt lat="41.656449608" lon="2.493457243">
        <ele>190.96</ele>
        <time>2013-06-16T08:43:42Z</time>
      </trkpt>
      <trkpt lat="41.656593022" lon="2.493392870">
        <ele>190.48</ele>
        <time>2013-06-16T08:43:46Z</time>
      </trkpt>
      <trkpt lat="41.656803491" lon="2.492862128">
        <ele>190.48</ele>
        <time>2013-06-16T08:43:57Z</time>
      </trkpt>
      <trkpt lat="41.656978338" lon="2.492398022">
        <ele>190.48</ele>
        <time>2013-06-16T08:44:06Z</time>
      </trkpt>
      <trkpt lat="41.657040951" lon="2.492167771">
        <ele>190.00</ele>
        <time>2013-06-16T08:44:10Z</time>
      </trkpt>
      <trkpt lat="41.657093673" lon="2.491958307">
        <ele>189.52</ele>
        <time>2013-06-16T08:44:13Z</time>
      </trkpt>
      <trkpt lat="41.657106497" lon="2.491682878">
        <ele>188.56</ele>
        <time>2013-06-16T08:44:17Z</time>
      </trkpt>
      <trkpt lat="41.657031731" lon="2.491069742">
        <ele>188.08</ele>
        <time>2013-06-16T08:44:27Z</time>
      </trkpt>
      <trkpt lat="41.656989654" lon="2.490823230">
        <ele>188.08</ele>
        <time>2013-06-16T08:44:31Z</time>
      </trkpt>
      <trkpt lat="41.656960065" lon="2.490567833">
        <ele>187.59</ele>
        <time>2013-06-16T08:44:35Z</time>
      </trkpt>
      <trkpt lat="41.656897536" lon="2.490341187">
        <ele>187.59</ele>
        <time>2013-06-16T08:44:39Z</time>
      </trkpt>
      <trkpt lat="41.656830062" lon="2.490132310">
        <ele>187.11</ele>
        <time>2013-06-16T08:44:43Z</time>
      </trkpt>
      <trkpt lat="41.656697544" lon="2.489885630">
        <ele>187.59</ele>
        <time>2013-06-16T08:44:48Z</time>
      </trkpt>
      <trkpt lat="41.656547424" lon="2.489624869">
        <ele>189.04</ele>
        <time>2013-06-16T08:44:55Z</time>
      </trkpt>
      <trkpt lat="41.656531247" lon="2.489597963">
        <ele>189.04</ele>
        <time>2013-06-16T08:44:56Z</time>
      </trkpt>
      <trkpt lat="41.656518591" lon="2.489567621">
        <ele>189.04</ele>
        <time>2013-06-16T08:44:57Z</time>
      </trkpt>
      <trkpt lat="41.656511550" lon="2.489426470">
        <ele>189.52</ele>
        <time>2013-06-16T08:45:02Z</time>
      </trkpt>
      <trkpt lat="41.656554717" lon="2.489262436">
        <ele>189.52</ele>
        <time>2013-06-16T08:45:10Z</time>
      </trkpt>
      <trkpt lat="41.656557734" lon="2.489194710">
        <ele>188.08</ele>
        <time>2013-06-16T08:45:12Z</time>
      </trkpt>
      <trkpt lat="41.656561925" lon="2.488862367">
        <ele>186.15</ele>
        <time>2013-06-16T08:45:19Z</time>
      </trkpt>
      <trkpt lat="41.656561087" lon="2.488748625">
        <ele>185.19</ele>
        <time>2013-06-16T08:45:21Z</time>
      </trkpt>
      <trkpt lat="41.656544072" lon="2.488489624">
        <ele>185.19</ele>
        <time>2013-06-16T08:45:25Z</time>
      </trkpt>
      <trkpt lat="41.656448602" lon="2.487998445">
        <ele>185.19</ele>
        <time>2013-06-16T08:45:33Z</time>
      </trkpt>
      <trkpt lat="41.656407866" lon="2.487913033">
        <ele>184.71</ele>
        <time>2013-06-16T08:45:35Z</time>
      </trkpt>
      <trkpt lat="41.656314994" lon="2.487738187">
        <ele>185.19</ele>
        <time>2013-06-16T08:45:40Z</time>
      </trkpt>
      <trkpt lat="41.656301164" lon="2.487704240">
        <ele>185.19</ele>
        <time>2013-06-16T08:45:41Z</time>
      </trkpt>
      <trkpt lat="41.656204185" lon="2.487391260">
        <ele>186.15</ele>
        <time>2013-06-16T08:45:49Z</time>
      </trkpt>
      <trkpt lat="41.656107710" lon="2.487109628">
        <ele>186.15</ele>
        <time>2013-06-16T08:45:56Z</time>
      </trkpt>
      <trkpt lat="41.656020957" lon="2.486826152">
        <ele>186.63</ele>
        <time>2013-06-16T08:46:02Z</time>
      </trkpt>
      <trkpt lat="41.656036547" lon="2.486509735">
        <ele>186.63</ele>
        <time>2013-06-16T08:46:08Z</time>
      </trkpt>
      <trkpt lat="41.656033949" lon="2.486367494">
        <ele>184.23</ele>
        <time>2013-06-16T08:46:10Z</time>
      </trkpt>
      <trkpt lat="41.656010228" lon="2.485921241">
        <ele>183.27</ele>
        <time>2013-06-16T08:46:15Z</time>
      </trkpt>
      <trkpt lat="41.655925236" lon="2.485526705">
        <ele>182.79</ele>
        <time>2013-06-16T08:46:20Z</time>
      </trkpt>
      <trkpt lat="41.655910065" lon="2.485087242">
        <ele>183.27</ele>
        <time>2013-06-16T08:46:27Z</time>
      </trkpt>
      <trkpt lat="41.655929175" lon="2.484860093">
        <ele>182.31</ele>
        <time>2013-06-16T08:46:31Z</time>
      </trkpt>
      <trkpt lat="41.655932109" lon="2.484514590">
        <ele>182.31</ele>
        <time>2013-06-16T08:46:37Z</time>
      </trkpt>
      <trkpt lat="41.655929762" lon="2.484461868">
        <ele>182.31</ele>
        <time>2013-06-16T08:46:38Z</time>
      </trkpt>
      <trkpt lat="41.655933618" lon="2.484285262">
        <ele>182.31</ele>
        <time>2013-06-16T08:46:41Z</time>
      </trkpt>
      <trkpt lat="41.655951555" lon="2.484156683">
        <ele>182.31</ele>
        <time>2013-06-16T08:46:43Z</time>
      </trkpt>
      <trkpt lat="41.655980975" lon="2.483860886">
        <ele>182.31</ele>
        <time>2013-06-16T08:46:47Z</time>
      </trkpt>
      <trkpt lat="41.656017521" lon="2.483609680">
        <ele>182.31</ele>
        <time>2013-06-16T08:46:51Z</time>
      </trkpt>
      <trkpt lat="41.656065968" lon="2.483347243">
        <ele>181.83</ele>
        <time>2013-06-16T08:46:55Z</time>
      </trkpt>
      <trkpt lat="41.656149955" lon="2.483143143">
        <ele>183.75</ele>
        <time>2013-06-16T08:46:59Z</time>
      </trkpt>
      <trkpt lat="41.656302170" lon="2.483047925">
        <ele>187.11</ele>
        <time>2013-06-16T08:47:06Z</time>
      </trkpt>
      <trkpt lat="41.656402585" lon="2.483051362">
        <ele>186.15</ele>
        <time>2013-06-16T08:47:10Z</time>
      </trkpt>
      <trkpt lat="41.656480537" lon="2.483012218">
        <ele>185.19</ele>
        <time>2013-06-16T08:47:12Z</time>
      </trkpt>
      <trkpt lat="41.656541054" lon="2.482944744">
        <ele>185.19</ele>
        <time>2013-06-16T08:47:14Z</time>
      </trkpt>
      <trkpt lat="41.656666028" lon="2.482856063">
        <ele>184.71</ele>
        <time>2013-06-16T08:47:18Z</time>
      </trkpt>
      <trkpt lat="41.656874989" lon="2.482789092">
        <ele>182.79</ele>
        <time>2013-06-16T08:47:23Z</time>
      </trkpt>
      <trkpt lat="41.657051009" lon="2.482766377">
        <ele>179.90</ele>
        <time>2013-06-16T08:47:27Z</time>
      </trkpt>
      <trkpt lat="41.657078502" lon="2.482744081">
        <ele>179.90</ele>
        <time>2013-06-16T08:47:28Z</time>
      </trkpt>
      <trkpt lat="41.657324511" lon="2.482520033">
        <ele>179.42</ele>
        <time>2013-06-16T08:47:37Z</time>
      </trkpt>
      <trkpt lat="41.657441522" lon="2.482454989">
        <ele>179.42</ele>
        <time>2013-06-16T08:47:41Z</time>
      </trkpt>
      <trkpt lat="41.657718292" lon="2.482420623">
        <ele>177.98</ele>
        <time>2013-06-16T08:47:48Z</time>
      </trkpt>
      <trkpt lat="41.657869418" lon="2.482425736">
        <ele>177.98</ele>
        <time>2013-06-16T08:47:53Z</time>
      </trkpt>
      <trkpt lat="41.658099837" lon="2.482361866">
        <ele>177.02</ele>
        <time>2013-06-16T08:47:58Z</time>
      </trkpt>
      <trkpt lat="41.658359005" lon="2.482252147">
        <ele>176.06</ele>
        <time>2013-06-16T08:48:04Z</time>
      </trkpt>
      <trkpt lat="41.658664106" lon="2.482134465">
        <ele>176.06</ele>
        <time>2013-06-16T08:48:11Z</time>
      </trkpt>
      <trkpt lat="41.658947666" lon="2.482015442">
        <ele>175.58</ele>
        <time>2013-06-16T08:48:18Z</time>
      </trkpt>
      <trkpt lat="41.659125195" lon="2.482132035">
        <ele>175.58</ele>
        <time>2013-06-16T08:48:23Z</time>
      </trkpt>
      <trkpt lat="41.659306496" lon="2.482152822">
        <ele>175.10</ele>
        <time>2013-06-16T08:48:28Z</time>
      </trkpt>
      <trkpt lat="41.659532555" lon="2.482193725">
        <ele>174.14</ele>
        <time>2013-06-16T08:48:34Z</time>
      </trkpt>
      <trkpt lat="41.659812008" lon="2.482222811">
        <ele>174.14</ele>
        <time>2013-06-16T08:48:41Z</time>
      </trkpt>
      <trkpt lat="41.659990375" lon="2.482185846">
        <ele>174.14</ele>
        <time>2013-06-16T08:48:45Z</time>
      </trkpt>
      <trkpt lat="41.660193804" lon="2.482173441">
        <ele>173.66</ele>
        <time>2013-06-16T08:48:49Z</time>
      </trkpt>
      <trkpt lat="41.660286843" lon="2.482169837">
        <ele>173.17</ele>
        <time>2013-06-16T08:48:51Z</time>
      </trkpt>
      <trkpt lat="41.660460767" lon="2.482182242">
        <ele>173.17</ele>
        <time>2013-06-16T08:48:55Z</time>
      </trkpt>
      <trkpt lat="41.660796798" lon="2.482215518">
        <ele>172.69</ele>
        <time>2013-06-16T08:49:03Z</time>
      </trkpt>
      <trkpt lat="41.660837702" lon="2.482201772">
        <ele>172.69</ele>
        <time>2013-06-16T08:49:04Z</time>
      </trkpt>
      <trkpt lat="41.661139869" lon="2.482087191">
        <ele>177.02</ele>
        <time>2013-06-16T08:49:12Z</time>
      </trkpt>
      <trkpt lat="41.661328127" lon="2.481891390">
        <ele>178.94</ele>
        <time>2013-06-16T08:49:18Z</time>
      </trkpt>
      <trkpt lat="41.661414879" lon="2.481683267">
        <ele>179.90</ele>
        <time>2013-06-16T08:49:23Z</time>
      </trkpt>
      <trkpt lat="41.661540105" lon="2.481512696">
        <ele>179.90</ele>
        <time>2013-06-16T08:49:28Z</time>
      </trkpt>
      <trkpt lat="41.661689387" lon="2.481324606">
        <ele>179.90</ele>
        <time>2013-06-16T08:49:32Z</time>
      </trkpt>
      <trkpt lat="41.661760717" lon="2.481219078">
        <ele>178.46</ele>
        <time>2013-06-16T08:49:34Z</time>
      </trkpt>
      <trkpt lat="41.661914441" lon="2.480987653">
        <ele>177.02</ele>
        <time>2013-06-16T08:49:39Z</time>
      </trkpt>
      <trkpt lat="41.661851912" lon="2.480812974">
        <ele>177.98</ele>
        <time>2013-06-16T08:49:44Z</time>
      </trkpt>
      <trkpt lat="41.661846464" lon="2.480784979">
        <ele>177.98</ele>
        <time>2013-06-16T08:49:45Z</time>
      </trkpt>
      <trkpt lat="41.661887032" lon="2.480597559">
        <ele>177.98</ele>
        <time>2013-06-16T08:49:50Z</time>
      </trkpt>
      <trkpt lat="41.662021981" lon="2.480561182">
        <ele>177.50</ele>
        <time>2013-06-16T08:49:54Z</time>
      </trkpt>
      <trkpt lat="41.662086521" lon="2.480587082">
        <ele>175.10</ele>
        <time>2013-06-16T08:49:56Z</time>
      </trkpt>
      <trkpt lat="41.662167993" lon="2.480636284">
        <ele>173.17</ele>
        <time>2013-06-16T08:49:59Z</time>
      </trkpt>
      <trkpt lat="41.662258937" lon="2.480699064">
        <ele>172.21</ele>
        <time>2013-06-16T08:50:01Z</time>
      </trkpt>
      <trkpt lat="41.662421881" lon="2.480784308">
        <ele>171.25</ele>
        <time>2013-06-16T08:50:04Z</time>
      </trkpt>
      <trkpt lat="41.662607205" lon="2.480838455">
        <ele>169.81</ele>
        <time>2013-06-16T08:50:09Z</time>
      </trkpt>
      <trkpt lat="41.662729665" lon="2.480760252">
        <ele>169.81</ele>
        <time>2013-06-16T08:50:16Z</time>
      </trkpt>
      <trkpt lat="41.662979278" lon="2.480522039">
        <ele>168.85</ele>
        <time>2013-06-16T08:50:24Z</time>
      </trkpt>
      <trkpt lat="41.663085812" lon="2.480434029">
        <ele>168.85</ele>
        <time>2013-06-16T08:50:27Z</time>
      </trkpt>
      <trkpt lat="41.663211876" lon="2.480276197">
        <ele>168.37</ele>
        <time>2013-06-16T08:50:31Z</time>
      </trkpt>
      <trkpt lat="41.663369958" lon="2.480062291">
        <ele>167.89</ele>
        <time>2013-06-16T08:50:37Z</time>
      </trkpt>
      <trkpt lat="41.663452101" lon="2.479874369">
        <ele>167.89</ele>
        <time>2013-06-16T08:50:43Z</time>
      </trkpt>
      <trkpt lat="41.663483030" lon="2.479565663">
        <ele>167.89</ele>
        <time>2013-06-16T08:50:49Z</time>
      </trkpt>
      <trkpt lat="41.663491077" lon="2.479305489">
        <ele>167.41</ele>
        <time>2013-06-16T08:50:54Z</time>
      </trkpt>
      <trkpt lat="41.663532819" lon="2.478955209">
        <ele>167.41</ele>
        <time>2013-06-16T08:51:01Z</time>
      </trkpt>
      <trkpt lat="41.663547906" lon="2.478907097">
        <ele>167.41</ele>
        <time>2013-06-16T08:51:02Z</time>
      </trkpt>
      <trkpt lat="41.663645891" lon="2.478714146">
        <ele>166.93</ele>
        <time>2013-06-16T08:51:06Z</time>
      </trkpt>
      <trkpt lat="41.663832053" lon="2.478556901">
        <ele>166.45</ele>
        <time>2013-06-16T08:51:12Z</time>
      </trkpt>
      <trkpt lat="41.663869436" lon="2.478561595">
        <ele>166.45</ele>
        <time>2013-06-16T08:51:13Z</time>
      </trkpt>
      <trkpt lat="41.664089880" lon="2.478540138">
        <ele>166.45</ele>
        <time>2013-06-16T08:51:18Z</time>
      </trkpt>
      <trkpt lat="41.664383917" lon="2.478444584">
        <ele>168.85</ele>
        <time>2013-06-16T08:51:26Z</time>
      </trkpt>
      <trkpt lat="41.664647863" lon="2.478434106">
        <ele>169.33</ele>
        <time>2013-06-16T08:51:33Z</time>
      </trkpt>
      <trkpt lat="41.664916000" lon="2.478555057">
        <ele>170.77</ele>
        <time>2013-06-16T08:51:41Z</time>
      </trkpt>
      <trkpt lat="41.665036867" lon="2.478699645">
        <ele>172.69</ele>
        <time>2013-06-16T08:51:47Z</time>
      </trkpt>
      <trkpt lat="41.665099313" lon="2.478766784">
        <ele>173.17</ele>
        <time>2013-06-16T08:51:49Z</time>
      </trkpt>
      <trkpt lat="41.665256557" lon="2.479153190">
        <ele>171.73</ele>
        <time>2013-06-16T08:51:56Z</time>
      </trkpt>
      <trkpt lat="41.665370635" lon="2.479669348">
        <ele>170.77</ele>
        <time>2013-06-16T08:52:04Z</time>
      </trkpt>
      <trkpt lat="41.665338616" lon="2.480136471">
        <ele>166.45</ele>
        <time>2013-06-16T08:52:09Z</time>
      </trkpt>
      <trkpt lat="41.665309279" lon="2.480931746">
        <ele>164.52</ele>
        <time>2013-06-16T08:52:16Z</time>
      </trkpt>
      <trkpt lat="41.665279524" lon="2.481318571">
        <ele>164.04</ele>
        <time>2013-06-16T08:52:20Z</time>
      </trkpt>
      <trkpt lat="41.665296287" lon="2.481647058">
        <ele>164.04</ele>
        <time>2013-06-16T08:52:24Z</time>
      </trkpt>
      <trkpt lat="41.665293437" lon="2.481791645">
        <ele>163.08</ele>
        <time>2013-06-16T08:52:26Z</time>
      </trkpt>
      <trkpt lat="41.665371305" lon="2.481996918">
        <ele>162.12</ele>
        <time>2013-06-16T08:52:31Z</time>
      </trkpt>
      <trkpt lat="41.665402402" lon="2.482004462">
        <ele>162.12</ele>
        <time>2013-06-16T08:52:32Z</time>
      </trkpt>
      <trkpt lat="41.665566604" lon="2.482035056">
        <ele>161.16</ele>
        <time>2013-06-16T08:52:36Z</time>
      </trkpt>
      <trkpt lat="41.665801381" lon="2.481872447">
        <ele>160.68</ele>
        <time>2013-06-16T08:52:42Z</time>
      </trkpt>
      <trkpt lat="41.665845218" lon="2.481832884">
        <ele>160.68</ele>
        <time>2013-06-16T08:52:43Z</time>
      </trkpt>
      <trkpt lat="41.665986286" lon="2.481685531">
        <ele>160.68</ele>
        <time>2013-06-16T08:52:47Z</time>
      </trkpt>
      <trkpt lat="41.666148475" lon="2.481569441">
        <ele>160.68</ele>
        <time>2013-06-16T08:52:51Z</time>
      </trkpt>
      <trkpt lat="41.666284178" lon="2.481488891">
        <ele>160.68</ele>
        <time>2013-06-16T08:52:54Z</time>
      </trkpt>
      <trkpt lat="41.666588274" lon="2.481360480">
        <ele>159.24</ele>
        <time>2013-06-16T08:53:00Z</time>
      </trkpt>
      <trkpt lat="41.666767228" lon="2.481299712">
        <ele>158.75</ele>
        <time>2013-06-16T08:53:05Z</time>
      </trkpt>
      <trkpt lat="41.666784327" lon="2.481280936">
        <ele>158.27</ele>
        <time>2013-06-16T08:53:13Z</time>
      </trkpt>
      <trkpt lat="41.666830343" lon="2.481248498">
        <ele>158.27</ele>
        <time>2013-06-16T08:53:33Z</time>
      </trkpt>
      <trkpt lat="41.666892537" lon="2.481219413">
        <ele>158.27</ele>
        <time>2013-06-16T08:53:39Z</time>
      </trkpt>
      <trkpt lat="41.666977781" lon="2.481193261">
        <ele>158.27</ele>
        <time>2013-06-16T08:53:45Z</time>
      </trkpt>
      <trkpt lat="41.667117926" lon="2.481134085">
        <ele>158.27</ele>
        <time>2013-06-16T08:53:51Z</time>
      </trkpt>
      <trkpt lat="41.667375921" lon="2.481019337">
        <ele>158.27</ele>
        <time>2013-06-16T08:53:56Z</time>
      </trkpt>
      <trkpt lat="41.667582787" lon="2.481017912">
        <ele>157.79</ele>
        <time>2013-06-16T08:54:00Z</time>
      </trkpt>
      <trkpt lat="41.667900880" lon="2.480925879">
        <ele>156.83</ele>
        <time>2013-06-16T08:54:06Z</time>
      </trkpt>
      <trkpt lat="41.667992997" lon="2.480899895">
        <ele>156.83</ele>
        <time>2013-06-16T08:54:08Z</time>
      </trkpt>
      <trkpt lat="41.668183769" lon="2.480891178">
        <ele>156.83</ele>
        <time>2013-06-16T08:54:12Z</time>
      </trkpt>
      <trkpt lat="41.668469927" lon="2.480736280">
        <ele>156.83</ele>
        <time>2013-06-16T08:54:18Z</time>
      </trkpt>
      <trkpt lat="41.668617533" lon="2.480541568">
        <ele>156.83</ele>
        <time>2013-06-16T08:54:23Z</time>
      </trkpt>
      <trkpt lat="41.668652653" lon="2.480401507">
        <ele>158.75</ele>
        <time>2013-06-16T08:54:26Z</time>
      </trkpt>
      <trkpt lat="41.668708392" lon="2.480294805">
        <ele>159.72</ele>
        <time>2013-06-16T08:54:29Z</time>
      </trkpt>
      <trkpt lat="41.668880724" lon="2.480142338">
        <ele>161.16</ele>
        <time>2013-06-16T08:54:36Z</time>
      </trkpt>
      <trkpt lat="41.669085494" lon="2.480072098">
        <ele>161.64</ele>
        <time>2013-06-16T08:54:43Z</time>
      </trkpt>
      <trkpt lat="41.669132768" lon="2.480045024">
        <ele>161.64</ele>
        <time>2013-06-16T08:54:45Z</time>
      </trkpt>
      <trkpt lat="41.669236285" lon="2.480062124">
        <ele>161.64</ele>
        <time>2013-06-16T08:54:51Z</time>
      </trkpt>
      <trkpt lat="41.669246594" lon="2.480052820">
        <ele>161.64</ele>
        <time>2013-06-16T08:54:58Z</time>
      </trkpt>
      <trkpt lat="41.669254222" lon="2.480042678">
        <ele>161.64</ele>
        <time>2013-06-16T08:55:14Z</time>
      </trkpt>
      <trkpt lat="41.669241901" lon="2.480061872">
        <ele>161.64</ele>
        <time>2013-06-16T08:55:29Z</time>
      </trkpt>
      <trkpt lat="41.669242404" lon="2.480070841">
        <ele>161.64</ele>
        <time>2013-06-16T08:55:42Z</time>
      </trkpt>
      <trkpt lat="41.669249947" lon="2.480050724">
        <ele>161.64</ele>
        <time>2013-06-16T08:55:56Z</time>
      </trkpt>
      <trkpt lat="41.669253468" lon="2.480034631">
        <ele>161.64</ele>
        <time>2013-06-16T08:56:15Z</time>
      </trkpt>
      <trkpt lat="41.669239889" lon="2.480011664">
        <ele>161.64</ele>
        <time>2013-06-16T08:56:34Z</time>
      </trkpt>
      <trkpt lat="41.669244750" lon="2.480013006">
        <ele>161.64</ele>
        <time>2013-06-16T08:56:48Z</time>
      </trkpt>
      <trkpt lat="41.669243828" lon="2.480023399">
        <ele>161.64</ele>
        <time>2013-06-16T08:57:03Z</time>
      </trkpt>
      <trkpt lat="41.669245924" lon="2.480043767">
        <ele>161.64</ele>
        <time>2013-06-16T08:57:05Z</time>
      </trkpt>
      <trkpt lat="41.669321445" lon="2.480250800">
        <ele>161.64</ele>
        <time>2013-06-16T08:57:13Z</time>
      </trkpt>
      <trkpt lat="41.669508277" lon="2.480458671">
        <ele>161.64</ele>
        <time>2013-06-16T08:57:21Z</time>
      </trkpt>
      <trkpt lat="41.669702905" lon="2.480586076">
        <ele>162.12</ele>
        <time>2013-06-16T08:57:28Z</time>
      </trkpt>
      <trkpt lat="41.669910860" lon="2.480641062">
        <ele>162.12</ele>
        <time>2013-06-16T08:57:34Z</time>
      </trkpt>
      <trkpt lat="41.670193750" lon="2.480564200">
        <ele>162.10</ele>
        <time>2013-06-16T08:57:42Z</time>
      </trkpt>
      <trkpt lat="41.670451158" lon="2.480356496">
        <ele>162.60</ele>
        <time>2013-06-16T08:57:50Z</time>
      </trkpt>
      <trkpt lat="41.670611587" lon="2.480128508">
        <ele>162.60</ele>
        <time>2013-06-16T08:57:57Z</time>
      </trkpt>
      <trkpt lat="41.670757935" lon="2.479815528">
        <ele>163.10</ele>
        <time>2013-06-16T08:58:05Z</time>
      </trkpt>
      <trkpt lat="41.670895399" lon="2.479426021">
        <ele>162.60</ele>
        <time>2013-06-16T08:58:14Z</time>
      </trkpt>
      <trkpt lat="41.670939990" lon="2.479240278">
        <ele>162.60</ele>
        <time>2013-06-16T08:58:18Z</time>
      </trkpt>
      <trkpt lat="41.671059349" lon="2.479185963">
        <ele>161.20</ele>
        <time>2013-06-16T08:58:22Z</time>
      </trkpt>
      <trkpt lat="41.671210810" lon="2.479382938">
        <ele>159.20</ele>
        <time>2013-06-16T08:58:26Z</time>
      </trkpt>
      <trkpt lat="41.671246600" lon="2.479451083">
        <ele>158.80</ele>
        <time>2013-06-16T08:58:27Z</time>
      </trkpt>
      <trkpt lat="41.671496716" lon="2.479884762">
        <ele>155.90</ele>
        <time>2013-06-16T08:58:33Z</time>
      </trkpt>
      <trkpt lat="41.671699056" lon="2.480524721">
        <ele>154.90</ele>
        <time>2013-06-16T08:58:41Z</time>
      </trkpt>
      <trkpt lat="41.671694948" lon="2.481003411">
        <ele>154.90</ele>
        <time>2013-06-16T08:58:48Z</time>
      </trkpt>
      <trkpt lat="41.671718082" lon="2.481242295">
        <ele>154.90</ele>
        <time>2013-06-16T08:58:52Z</time>
      </trkpt>
      <trkpt lat="41.671805757" lon="2.481539853">
        <ele>156.40</ele>
        <time>2013-06-16T08:58:58Z</time>
      </trkpt>
      <trkpt lat="41.671884379" lon="2.481783683">
        <ele>156.80</ele>
        <time>2013-06-16T08:59:05Z</time>
      </trkpt>
      <trkpt lat="41.671795783" lon="2.481823580">
        <ele>157.30</ele>
        <time>2013-06-16T08:59:12Z</time>
      </trkpt>
      <trkpt lat="41.671805338" lon="2.481884349">
        <ele>157.30</ele>
        <time>2013-06-16T08:59:15Z</time>
      </trkpt>
      <trkpt lat="41.671856468" lon="2.481923660">
        <ele>157.30</ele>
        <time>2013-06-16T08:59:17Z</time>
      </trkpt>
      <trkpt lat="41.672075403" lon="2.482138069">
        <ele>157.30</ele>
        <time>2013-06-16T08:59:26Z</time>
      </trkpt>
      <trkpt lat="41.672060735" lon="2.482283831">
        <ele>157.30</ele>
        <time>2013-06-16T08:59:33Z</time>
      </trkpt>
      <trkpt lat="41.672034667" lon="2.482415343">
        <ele>158.30</ele>
        <time>2013-06-16T08:59:40Z</time>
      </trkpt>
      <trkpt lat="41.671996613" lon="2.482599242">
        <ele>159.20</ele>
        <time>2013-06-16T08:59:47Z</time>
      </trkpt>
      <trkpt lat="41.671983705" lon="2.482631596">
        <ele>159.20</ele>
        <time>2013-06-16T08:59:48Z</time>
      </trkpt>
      <trkpt lat="41.671878009" lon="2.482799150">
        <ele>160.20</ele>
        <time>2013-06-16T08:59:55Z</time>
      </trkpt>
      <trkpt lat="41.671735349" lon="2.482940050">
        <ele>161.20</ele>
        <time>2013-06-16T09:00:03Z</time>
      </trkpt>
      <trkpt lat="41.671571818" lon="2.483059576">
        <ele>162.10</ele>
        <time>2013-06-16T09:00:11Z</time>
      </trkpt>
      <trkpt lat="41.671413233" lon="2.483091427">
        <ele>163.60</ele>
        <time>2013-06-16T09:00:18Z</time>
      </trkpt>
      <trkpt lat="41.671287839" lon="2.483174240">
        <ele>164.00</ele>
        <time>2013-06-16T09:00:24Z</time>
      </trkpt>
      <trkpt lat="41.671127829" lon="2.483310530">
        <ele>164.50</ele>
        <time>2013-06-16T09:00:32Z</time>
      </trkpt>
      <trkpt lat="41.670964046" lon="2.483548576">
        <ele>164.50</ele>
        <time>2013-06-16T09:00:41Z</time>
      </trkpt>
      <trkpt lat="41.670834127" lon="2.483732894">
        <ele>164.50</ele>
        <time>2013-06-16T09:00:48Z</time>
      </trkpt>
      <trkpt lat="41.670682079" lon="2.483891983">
        <ele>163.10</ele>
        <time>2013-06-16T09:00:55Z</time>
      </trkpt>
      <trkpt lat="41.670487116" lon="2.484003294">
        <ele>163.10</ele>
        <time>2013-06-16T09:01:02Z</time>
      </trkpt>
      <trkpt lat="41.670252507" lon="2.484022740">
        <ele>162.60</ele>
        <time>2013-06-16T09:01:10Z</time>
      </trkpt>
      <trkpt lat="41.670070452" lon="2.484032715">
        <ele>164.00</ele>
        <time>2013-06-16T09:01:17Z</time>
      </trkpt>
      <trkpt lat="41.669950171" lon="2.484047635">
        <ele>165.48</ele>
        <time>2013-06-16T09:01:24Z</time>
      </trkpt>
      <trkpt lat="41.669873226" lon="2.484054927">
        <ele>165.96</ele>
        <time>2013-06-16T09:01:29Z</time>
      </trkpt>
      <trkpt lat="41.669730566" lon="2.484119468">
        <ele>167.89</ele>
        <time>2013-06-16T09:01:37Z</time>
      </trkpt>
      <trkpt lat="41.669531076" lon="2.484245196">
        <ele>169.33</ele>
        <time>2013-06-16T09:01:46Z</time>
      </trkpt>
      <trkpt lat="41.669330581" lon="2.484405290">
        <ele>170.77</ele>
        <time>2013-06-16T09:01:56Z</time>
      </trkpt>
      <trkpt lat="41.669182808" lon="2.484573096">
        <ele>172.21</ele>
        <time>2013-06-16T09:02:04Z</time>
      </trkpt>
      <trkpt lat="41.669012320" lon="2.484756073">
        <ele>172.69</ele>
        <time>2013-06-16T09:02:13Z</time>
      </trkpt>
      <trkpt lat="41.668843257" lon="2.484967465">
        <ele>173.66</ele>
        <time>2013-06-16T09:02:22Z</time>
      </trkpt>
      <trkpt lat="41.668702022" lon="2.485184388">
        <ele>173.66</ele>
        <time>2013-06-16T09:02:30Z</time>
      </trkpt>
      <trkpt lat="41.668581826" lon="2.485446826">
        <ele>174.14</ele>
        <time>2013-06-16T09:02:38Z</time>
      </trkpt>
      <trkpt lat="41.668471604" lon="2.485747401">
        <ele>174.14</ele>
        <time>2013-06-16T09:02:46Z</time>
      </trkpt>
      <trkpt lat="41.668347132" lon="2.486013107">
        <ele>174.14</ele>
        <time>2013-06-16T09:02:54Z</time>
      </trkpt>
      <trkpt lat="41.668202545" lon="2.486272778">
        <ele>174.62</ele>
        <time>2013-06-16T09:03:02Z</time>
      </trkpt>
      <trkpt lat="41.668097016" lon="2.486443434">
        <ele>175.58</ele>
        <time>2013-06-16T09:03:08Z</time>
      </trkpt>
      <trkpt lat="41.667993751" lon="2.486620795">
        <ele>175.58</ele>
        <time>2013-06-16T09:03:14Z</time>
      </trkpt>
      <trkpt lat="41.667850421" lon="2.486884909">
        <ele>177.02</ele>
        <time>2013-06-16T09:03:23Z</time>
      </trkpt>
      <trkpt lat="41.667669791" lon="2.487191938">
        <ele>178.46</ele>
        <time>2013-06-16T09:03:34Z</time>
      </trkpt>
      <trkpt lat="41.667540123" lon="2.487411460">
        <ele>179.90</ele>
        <time>2013-06-16T09:03:43Z</time>
      </trkpt>
      <trkpt lat="41.667438953" lon="2.487557724">
        <ele>181.35</ele>
        <time>2013-06-16T09:03:50Z</time>
      </trkpt>
      <trkpt lat="41.667302328" lon="2.487745563">
        <ele>182.79</ele>
        <time>2013-06-16T09:03:59Z</time>
      </trkpt>
      <trkpt lat="41.667171068" lon="2.487907501">
        <ele>184.71</ele>
        <time>2013-06-16T09:04:07Z</time>
      </trkpt>
      <trkpt lat="41.667014745" lon="2.488051083">
        <ele>185.67</ele>
        <time>2013-06-16T09:04:16Z</time>
      </trkpt>
      <trkpt lat="41.666845850" lon="2.488183936">
        <ele>187.11</ele>
        <time>2013-06-16T09:04:25Z</time>
      </trkpt>
      <trkpt lat="41.666653820" lon="2.488314945">
        <ele>189.04</ele>
        <time>2013-06-16T09:04:35Z</time>
      </trkpt>
      <trkpt lat="41.666454834" lon="2.488460874">
        <ele>190.96</ele>
        <time>2013-06-16T09:04:45Z</time>
      </trkpt>
      <trkpt lat="41.666239503" lon="2.488595739">
        <ele>192.40</ele>
        <time>2013-06-16T09:04:55Z</time>
      </trkpt>
      <trkpt lat="41.666081420" lon="2.488678049">
        <ele>193.36</ele>
        <time>2013-06-16T09:05:02Z</time>
      </trkpt>
      <trkpt lat="41.665883356" lon="2.488758432">
        <ele>194.80</ele>
        <time>2013-06-16T09:05:10Z</time>
      </trkpt>
      <trkpt lat="41.665689147" lon="2.488795983">
        <ele>195.28</ele>
        <time>2013-06-16T09:05:18Z</time>
      </trkpt>
      <trkpt lat="41.665455124" lon="2.488866307">
        <ele>196.25</ele>
        <time>2013-06-16T09:05:27Z</time>
      </trkpt>
      <trkpt lat="41.665230322" lon="2.488978205">
        <ele>196.25</ele>
        <time>2013-06-16T09:05:35Z</time>
      </trkpt>
      <trkpt lat="41.665076765" lon="2.489061773">
        <ele>196.25</ele>
        <time>2013-06-16T09:05:41Z</time>
      </trkpt>
      <trkpt lat="41.664901835" lon="2.489167720">
        <ele>196.25</ele>
        <time>2013-06-16T09:05:49Z</time>
      </trkpt>
      <trkpt lat="41.664758337" lon="2.489327479">
        <ele>197.21</ele>
        <time>2013-06-16T09:05:57Z</time>
      </trkpt>
      <trkpt lat="41.664685917" lon="2.489432756">
        <ele>198.65</ele>
        <time>2013-06-16T09:06:02Z</time>
      </trkpt>
      <trkpt lat="41.664572845" lon="2.489553791">
        <ele>200.09</ele>
        <time>2013-06-16T09:06:10Z</time>
      </trkpt>
      <trkpt lat="41.664536635" lon="2.489598969">
        <ele>201.05</ele>
        <time>2013-06-16T09:06:13Z</time>
      </trkpt>
      <trkpt lat="41.664368494" lon="2.489686476">
        <ele>202.01</ele>
        <time>2013-06-16T09:06:22Z</time>
      </trkpt>
      <trkpt lat="41.664252657" lon="2.489784796">
        <ele>202.49</ele>
        <time>2013-06-16T09:06:28Z</time>
      </trkpt>
      <trkpt lat="41.664097508" lon="2.489851516">
        <ele>203.94</ele>
        <time>2013-06-16T09:06:37Z</time>
      </trkpt>
      <trkpt lat="41.663943029" lon="2.489869369">
        <ele>204.42</ele>
        <time>2013-06-16T09:06:44Z</time>
      </trkpt>
      <trkpt lat="41.663776229" lon="2.489824945">
        <ele>204.42</ele>
        <time>2013-06-16T09:06:52Z</time>
      </trkpt>
      <trkpt lat="41.663663157" lon="2.489804745">
        <ele>204.90</ele>
        <time>2013-06-16T09:06:59Z</time>
      </trkpt>
      <trkpt lat="41.663548325" lon="2.489799548">
        <ele>204.90</ele>
        <time>2013-06-16T09:07:07Z</time>
      </trkpt>
      <trkpt lat="41.663531394" lon="2.489803320">
        <ele>204.90</ele>
        <time>2013-06-16T09:07:09Z</time>
      </trkpt>
      <trkpt lat="41.663417819" lon="2.489853611">
        <ele>204.90</ele>
        <time>2013-06-16T09:07:17Z</time>
      </trkpt>
      <trkpt lat="41.663293851" lon="2.489829388">
        <ele>204.90</ele>
        <time>2013-06-16T09:07:25Z</time>
      </trkpt>
      <trkpt lat="41.663235932" lon="2.489784796">
        <ele>204.90</ele>
        <time>2013-06-16T09:07:29Z</time>
      </trkpt>
      <trkpt lat="41.663196118" lon="2.489754789">
        <ele>205.86</ele>
        <time>2013-06-16T09:07:32Z</time>
      </trkpt>
      <trkpt lat="41.663082375" lon="2.489740623">
        <ele>207.30</ele>
        <time>2013-06-16T09:07:39Z</time>
      </trkpt>
      <trkpt lat="41.662951366" lon="2.489711035">
        <ele>209.22</ele>
        <time>2013-06-16T09:07:48Z</time>
      </trkpt>
      <trkpt lat="41.662911468" lon="2.489696451">
        <ele>209.70</ele>
        <time>2013-06-16T09:07:51Z</time>
      </trkpt>
      <trkpt lat="41.662878611" lon="2.489668371">
        <ele>211.15</ele>
        <time>2013-06-16T09:07:54Z</time>
      </trkpt>
      <trkpt lat="41.662766377" lon="2.489547253">
        <ele>214.03</ele>
        <time>2013-06-16T09:08:05Z</time>
      </trkpt>
      <trkpt lat="41.662726815" lon="2.489422949">
        <ele>215.95</ele>
        <time>2013-06-16T09:08:14Z</time>
      </trkpt>
      <trkpt lat="41.662736203" lon="2.489386907">
        <ele>216.91</ele>
        <time>2013-06-16T09:08:17Z</time>
      </trkpt>
      <trkpt lat="41.662838797" lon="2.489406018">
        <ele>217.40</ele>
        <time>2013-06-16T09:08:25Z</time>
      </trkpt>
      <trkpt lat="41.662973578" lon="2.489413813">
        <ele>217.40</ele>
        <time>2013-06-16T09:08:31Z</time>
      </trkpt>
      <trkpt lat="41.662988833" lon="2.489408532">
        <ele>217.40</ele>
        <time>2013-06-16T09:08:32Z</time>
      </trkpt>
      <trkpt lat="41.663060247" lon="2.489333850">
        <ele>218.36</ele>
        <time>2013-06-16T09:08:39Z</time>
      </trkpt>
      <trkpt lat="41.663181952" lon="2.489271656">
        <ele>219.32</ele>
        <time>2013-06-16T09:08:47Z</time>
      </trkpt>
      <trkpt lat="41.663222437" lon="2.489237122">
        <ele>219.80</ele>
        <time>2013-06-16T09:08:50Z</time>
      </trkpt>
      <trkpt lat="41.663254623" lon="2.489112400">
        <ele>220.76</ele>
        <time>2013-06-16T09:08:56Z</time>
      </trkpt>
      <trkpt lat="41.663257389" lon="2.488942415">
        <ele>222.20</ele>
        <time>2013-06-16T09:09:05Z</time>
      </trkpt>
      <trkpt lat="41.663236351" lon="2.488818865">
        <ele>223.16</ele>
        <time>2013-06-16T09:09:13Z</time>
      </trkpt>
      <trkpt lat="41.663229394" lon="2.488683162">
        <ele>224.12</ele>
        <time>2013-06-16T09:09:20Z</time>
      </trkpt>
      <trkpt lat="41.663259401" lon="2.488517201">
        <ele>224.61</ele>
        <time>2013-06-16T09:09:28Z</time>
      </trkpt>
      <trkpt lat="41.663293180" lon="2.488382084">
        <ele>225.09</ele>
        <time>2013-06-16T09:09:35Z</time>
      </trkpt>
      <trkpt lat="41.663344310" lon="2.488296086">
        <ele>225.57</ele>
        <time>2013-06-16T09:09:40Z</time>
      </trkpt>
      <trkpt lat="41.663385716" lon="2.488242861">
        <ele>226.05</ele>
        <time>2013-06-16T09:09:44Z</time>
      </trkpt>
      <trkpt lat="41.663463500" lon="2.488133477">
        <ele>227.49</ele>
        <time>2013-06-16T09:09:51Z</time>
      </trkpt>
      <trkpt lat="41.663526448" lon="2.488054771">
        <ele>227.97</ele>
        <time>2013-06-16T09:09:56Z</time>
      </trkpt>
      <trkpt lat="41.663591576" lon="2.487927450">
        <ele>229.41</ele>
        <time>2013-06-16T09:10:04Z</time>
      </trkpt>
      <trkpt lat="41.663556372" lon="2.487807002">
        <ele>231.81</ele>
        <time>2013-06-16T09:10:12Z</time>
      </trkpt>
      <trkpt lat="41.663484707" lon="2.487807086">
        <ele>232.78</ele>
        <time>2013-06-16T09:10:20Z</time>
      </trkpt>
      <trkpt lat="41.663384124" lon="2.487837596">
        <ele>233.74</ele>
        <time>2013-06-16T09:10:29Z</time>
      </trkpt>
      <trkpt lat="41.663278093" lon="2.487870285">
        <ele>235.18</ele>
        <time>2013-06-16T09:10:38Z</time>
      </trkpt>
      <trkpt lat="41.663140210" lon="2.487935832">
        <ele>235.66</ele>
        <time>2013-06-16T09:10:46Z</time>
      </trkpt>
      <trkpt lat="41.663009956" lon="2.488033062">
        <ele>238.06</ele>
        <time>2013-06-16T09:10:56Z</time>
      </trkpt>
      <trkpt lat="41.662965615" lon="2.488067595">
        <ele>239.02</ele>
        <time>2013-06-16T09:11:00Z</time>
      </trkpt>
      <trkpt lat="41.662868301" lon="2.488159880">
        <ele>241.91</ele>
        <time>2013-06-16T09:11:09Z</time>
      </trkpt>
      <trkpt lat="41.662776101" lon="2.488223080">
        <ele>243.35</ele>
        <time>2013-06-16T09:11:17Z</time>
      </trkpt>
      <trkpt lat="41.662687252" lon="2.488308240">
        <ele>245.27</ele>
        <time>2013-06-16T09:11:26Z</time>
      </trkpt>
      <trkpt lat="41.662585245" lon="2.488360962">
        <ele>245.75</ele>
        <time>2013-06-16T09:11:33Z</time>
      </trkpt>
      <trkpt lat="41.662472424" lon="2.488321316">
        <ele>245.75</ele>
        <time>2013-06-16T09:11:40Z</time>
      </trkpt>
      <trkpt lat="41.662374440" lon="2.488255434">
        <ele>246.72</ele>
        <time>2013-06-16T09:11:47Z</time>
      </trkpt>
      <trkpt lat="41.662250890" lon="2.488184774">
        <ele>247.68</ele>
        <time>2013-06-16T09:11:56Z</time>
      </trkpt>
      <trkpt lat="41.662178806" lon="2.488159964">
        <ele>249.12</ele>
        <time>2013-06-16T09:12:02Z</time>
      </trkpt>
      <trkpt lat="41.662045953" lon="2.488270437">
        <ele>247.68</ele>
        <time>2013-06-16T09:12:08Z</time>
      </trkpt>
      <trkpt lat="41.661867921" lon="2.488380073">
        <ele>246.23</ele>
        <time>2013-06-16T09:12:14Z</time>
      </trkpt>
      <trkpt lat="41.661803884" lon="2.488388538">
        <ele>245.27</ele>
        <time>2013-06-16T09:12:16Z</time>
      </trkpt>
      <trkpt lat="41.661610094" lon="2.488322657">
        <ele>243.83</ele>
        <time>2013-06-16T09:12:21Z</time>
      </trkpt>
      <trkpt lat="41.661569861" lon="2.488298265">
        <ele>243.83</ele>
        <time>2013-06-16T09:12:26Z</time>
      </trkpt>
      <trkpt lat="41.661553851" lon="2.488305558">
        <ele>243.83</ele>
        <time>2013-06-16T09:12:32Z</time>
      </trkpt>
      <trkpt lat="41.661536166" lon="2.488315867">
        <ele>243.83</ele>
        <time>2013-06-16T09:12:40Z</time>
      </trkpt>
      <trkpt lat="41.661533902" lon="2.488329865">
        <ele>243.83</ele>
        <time>2013-06-16T09:12:42Z</time>
      </trkpt>
      <trkpt lat="41.661522503" lon="2.488430448">
        <ele>245.75</ele>
        <time>2013-06-16T09:12:48Z</time>
      </trkpt>
      <trkpt lat="41.661538513" lon="2.488555255">
        <ele>247.68</ele>
        <time>2013-06-16T09:12:55Z</time>
      </trkpt>
      <trkpt lat="41.661558713" lon="2.488725407">
        <ele>250.56</ele>
        <time>2013-06-16T09:13:05Z</time>
      </trkpt>
      <trkpt lat="41.661563658" lon="2.488746362">
        <ele>250.56</ele>
        <time>2013-06-16T09:13:06Z</time>
      </trkpt>
      <trkpt lat="41.661582098" lon="2.488923136">
        <ele>251.52</ele>
        <time>2013-06-16T09:13:14Z</time>
      </trkpt>
      <trkpt lat="41.661550750" lon="2.489147520">
        <ele>250.08</ele>
        <time>2013-06-16T09:13:20Z</time>
      </trkpt>
      <trkpt lat="41.661457376" lon="2.489265956">
        <ele>249.60</ele>
        <time>2013-06-16T09:13:26Z</time>
      </trkpt>
      <trkpt lat="41.661387135" lon="2.489296466">
        <ele>251.04</ele>
        <time>2013-06-16T09:13:32Z</time>
      </trkpt>
      <trkpt lat="41.661296192" lon="2.489345500">
        <ele>252.48</ele>
        <time>2013-06-16T09:13:39Z</time>
      </trkpt>
      <trkpt lat="41.661195776" lon="2.489399480">
        <ele>254.41</ele>
        <time>2013-06-16T09:13:47Z</time>
      </trkpt>
      <trkpt lat="41.661085554" lon="2.489460332">
        <ele>256.33</ele>
        <time>2013-06-16T09:13:56Z</time>
      </trkpt>
      <trkpt lat="41.660993270" lon="2.489524622">
        <ele>257.77</ele>
        <time>2013-06-16T09:14:04Z</time>
      </trkpt>
      <trkpt lat="41.660969130" lon="2.489566783">
        <ele>258.25</ele>
        <time>2013-06-16T09:14:08Z</time>
      </trkpt>
      <trkpt lat="41.660930238" lon="2.489670048">
        <ele>259.69</ele>
        <time>2013-06-16T09:14:16Z</time>
      </trkpt>
      <trkpt lat="41.660903751" lon="2.489776665">
        <ele>261.14</ele>
        <time>2013-06-16T09:14:25Z</time>
      </trkpt>
      <trkpt lat="41.660888915" lon="2.489888899">
        <ele>262.10</ele>
        <time>2013-06-16T09:14:31Z</time>
      </trkpt>
      <trkpt lat="41.660865110" lon="2.490079587">
        <ele>263.54</ele>
        <time>2013-06-16T09:14:40Z</time>
      </trkpt>
      <trkpt lat="41.660792104" lon="2.490206406">
        <ele>265.46</ele>
        <time>2013-06-16T09:14:49Z</time>
      </trkpt>
      <trkpt lat="41.660746506" lon="2.490258793">
        <ele>265.94</ele>
        <time>2013-06-16T09:14:53Z</time>
      </trkpt>
      <trkpt lat="41.660680625" lon="2.490417713">
        <ele>267.38</ele>
        <time>2013-06-16T09:15:03Z</time>
      </trkpt>
      <trkpt lat="41.660610384" lon="2.490599768">
        <ele>269.31</ele>
        <time>2013-06-16T09:15:13Z</time>
      </trkpt>
      <trkpt lat="41.660474011" lon="2.490759444">
        <ele>270.27</ele>
        <time>2013-06-16T09:15:22Z</time>
      </trkpt>
      <trkpt lat="41.660387426" lon="2.490862122">
        <ele>271.71</ele>
        <time>2013-06-16T09:15:30Z</time>
      </trkpt>
      <trkpt lat="41.660297739" lon="2.490987012">
        <ele>273.15</ele>
        <time>2013-06-16T09:15:40Z</time>
      </trkpt>
      <trkpt lat="41.660213082" lon="2.491151214">
        <ele>273.63</ele>
        <time>2013-06-16T09:15:49Z</time>
      </trkpt>
      <trkpt lat="41.660114511" lon="2.491273925">
        <ele>274.11</ele>
        <time>2013-06-16T09:15:57Z</time>
      </trkpt>
      <trkpt lat="41.660093472" lon="2.491351374">
        <ele>274.11</ele>
        <time>2013-06-16T09:16:01Z</time>
      </trkpt>
      <trkpt lat="41.660161701" lon="2.491540134">
        <ele>272.67</ele>
        <time>2013-06-16T09:16:07Z</time>
      </trkpt>
      <trkpt lat="41.660234372" lon="2.491723530">
        <ele>272.19</ele>
        <time>2013-06-16T09:16:14Z</time>
      </trkpt>
      <trkpt lat="41.660258680" lon="2.491788071">
        <ele>272.19</ele>
        <time>2013-06-16T09:16:17Z</time>
      </trkpt>
      <trkpt lat="41.660300589" lon="2.491979681">
        <ele>272.67</ele>
        <time>2013-06-16T09:16:26Z</time>
      </trkpt>
      <trkpt lat="41.660311737" lon="2.492105326">
        <ele>274.11</ele>
        <time>2013-06-16T09:16:33Z</time>
      </trkpt>
      <trkpt lat="41.660321879" lon="2.492196772">
        <ele>275.56</ele>
        <time>2013-06-16T09:16:39Z</time>
      </trkpt>
      <trkpt lat="41.660326070" lon="2.492307497">
        <ele>277.00</ele>
        <time>2013-06-16T09:16:46Z</time>
      </trkpt>
      <trkpt lat="41.660408464" lon="2.492415540">
        <ele>279.88</ele>
        <time>2013-06-16T09:16:55Z</time>
      </trkpt>
      <trkpt lat="41.660454649" lon="2.492452588">
        <ele>279.88</ele>
        <time>2013-06-16T09:16:59Z</time>
      </trkpt>
      <trkpt lat="41.660533774" lon="2.492571276">
        <ele>281.32</ele>
        <time>2013-06-16T09:17:07Z</time>
      </trkpt>
      <trkpt lat="41.660581970" lon="2.492741345">
        <ele>282.28</ele>
        <time>2013-06-16T09:17:16Z</time>
      </trkpt>
      <trkpt lat="41.660610384" lon="2.492910408">
        <ele>282.77</ele>
        <time>2013-06-16T09:17:25Z</time>
      </trkpt>
      <trkpt lat="41.660594375" lon="2.493048541">
        <ele>283.73</ele>
        <time>2013-06-16T09:17:32Z</time>
      </trkpt>
      <trkpt lat="41.660589597" lon="2.493283318">
        <ele>283.73</ele>
        <time>2013-06-16T09:17:40Z</time>
      </trkpt>
      <trkpt lat="41.660594626" lon="2.493320283">
        <ele>283.73</ele>
        <time>2013-06-16T09:17:41Z</time>
      </trkpt>
      <trkpt lat="41.660575264" lon="2.493468307">
        <ele>282.28</ele>
        <time>2013-06-16T09:17:46Z</time>
      </trkpt>
      <trkpt lat="41.660541569" lon="2.493677771">
        <ele>280.84</ele>
        <time>2013-06-16T09:17:53Z</time>
      </trkpt>
      <trkpt lat="41.660511310" lon="2.493898550">
        <ele>279.88</ele>
        <time>2013-06-16T09:17:59Z</time>
      </trkpt>
      <trkpt lat="41.660487254" lon="2.494110445">
        <ele>279.40</ele>
        <time>2013-06-16T09:18:05Z</time>
      </trkpt>
      <trkpt lat="41.660475436" lon="2.494275065">
        <ele>279.40</ele>
        <time>2013-06-16T09:18:11Z</time>
      </trkpt>
      <trkpt lat="41.660466299" lon="2.494506071">
        <ele>280.84</ele>
        <time>2013-06-16T09:18:21Z</time>
      </trkpt>
      <trkpt lat="41.660444003" lon="2.494700028">
        <ele>281.32</ele>
        <time>2013-06-16T09:18:30Z</time>
      </trkpt>
      <trkpt lat="41.660455487" lon="2.494743195">
        <ele>281.32</ele>
        <time>2013-06-16T09:18:33Z</time>
      </trkpt>
      <trkpt lat="41.660600326" lon="2.494855680">
        <ele>278.92</ele>
        <time>2013-06-16T09:18:39Z</time>
      </trkpt>
      <trkpt lat="41.660864775" lon="2.495062126">
        <ele>276.04</ele>
        <time>2013-06-16T09:18:44Z</time>
      </trkpt>
      <trkpt lat="41.661034173" lon="2.495331269">
        <ele>276.04</ele>
        <time>2013-06-16T09:18:49Z</time>
      </trkpt>
      <trkpt lat="41.661044734" lon="2.495376615">
        <ele>276.04</ele>
        <time>2013-06-16T09:18:50Z</time>
      </trkpt>
      <trkpt lat="41.661123692" lon="2.495586414">
        <ele>276.04</ele>
        <time>2013-06-16T09:18:57Z</time>
      </trkpt>
      <trkpt lat="41.661150766" lon="2.495627737">
        <ele>277.48</ele>
        <time>2013-06-16T09:18:59Z</time>
      </trkpt>
      <trkpt lat="41.661244056" lon="2.495852959">
        <ele>278.92</ele>
        <time>2013-06-16T09:19:09Z</time>
      </trkpt>
      <trkpt lat="41.661295521" lon="2.495995786">
        <ele>280.36</ele>
        <time>2013-06-16T09:19:16Z</time>
      </trkpt>
      <trkpt lat="41.661359643" lon="2.496188738">
        <ele>281.80</ele>
        <time>2013-06-16T09:19:24Z</time>
      </trkpt>
      <trkpt lat="41.661324522" lon="2.496395603">
        <ele>282.28</ele>
        <time>2013-06-16T09:19:32Z</time>
      </trkpt>
      <trkpt lat="41.661320751" lon="2.496498197">
        <ele>282.28</ele>
        <time>2013-06-16T09:19:37Z</time>
      </trkpt>
      <trkpt lat="41.661321589" lon="2.496535162">
        <ele>282.28</ele>
        <time>2013-06-16T09:19:39Z</time>
      </trkpt>
      <trkpt lat="41.661343885" lon="2.496627949">
        <ele>282.28</ele>
        <time>2013-06-16T09:19:43Z</time>
      </trkpt>
      <trkpt lat="41.661346986" lon="2.496711768">
        <ele>282.28</ele>
        <time>2013-06-16T09:19:45Z</time>
      </trkpt>
      <trkpt lat="41.661288899" lon="2.496856272">
        <ele>280.84</ele>
        <time>2013-06-16T09:19:48Z</time>
      </trkpt>
      <trkpt lat="41.661260066" lon="2.496903546">
        <ele>280.84</ele>
        <time>2013-06-16T09:19:49Z</time>
      </trkpt>
      <trkpt lat="41.661088572" lon="2.496996250">
        <ele>279.40</ele>
        <time>2013-06-16T09:19:53Z</time>
      </trkpt>
      <trkpt lat="41.660935434" lon="2.497073950">
        <ele>278.44</ele>
        <time>2013-06-16T09:19:56Z</time>
      </trkpt>
      <trkpt lat="41.660768132" lon="2.497219795">
        <ele>277.00</ele>
        <time>2013-06-16T09:19:59Z</time>
      </trkpt>
      <trkpt lat="41.660564787" lon="2.497535374">
        <ele>273.63</ele>
        <time>2013-06-16T09:20:04Z</time>
      </trkpt>
      <trkpt lat="41.660416343" lon="2.497595556">
        <ele>270.27</ele>
        <time>2013-06-16T09:20:07Z</time>
      </trkpt>
      <trkpt lat="41.660260440" lon="2.497532357">
        <ele>266.42</ele>
        <time>2013-06-16T09:20:10Z</time>
      </trkpt>
      <trkpt lat="41.660092299" lon="2.497498578">
        <ele>262.58</ele>
        <time>2013-06-16T09:20:13Z</time>
      </trkpt>
      <trkpt lat="41.659997751" lon="2.497617014">
        <ele>260.17</ele>
        <time>2013-06-16T09:20:16Z</time>
      </trkpt>
      <trkpt lat="41.660002864" lon="2.497741318">
        <ele>259.69</ele>
        <time>2013-06-16T09:20:18Z</time>
      </trkpt>
      <trkpt lat="41.660062292" lon="2.497948853">
        <ele>258.73</ele>
        <time>2013-06-16T09:20:21Z</time>
      </trkpt>
      <trkpt lat="41.660244933" lon="2.498205256">
        <ele>259.21</ele>
        <time>2013-06-16T09:20:26Z</time>
      </trkpt>
      <trkpt lat="41.660398574" lon="2.498383707">
        <ele>260.17</ele>
        <time>2013-06-16T09:20:33Z</time>
      </trkpt>
      <trkpt lat="41.660572330" lon="2.498567941">
        <ele>261.14</ele>
        <time>2013-06-16T09:20:42Z</time>
      </trkpt>
      <trkpt lat="41.660721696" lon="2.498640947">
        <ele>261.14</ele>
        <time>2013-06-16T09:20:48Z</time>
      </trkpt>
      <trkpt lat="41.660919593" lon="2.498869438">
        <ele>259.69</ele>
        <time>2013-06-16T09:20:57Z</time>
      </trkpt>
      <trkpt lat="41.661017409" lon="2.499054678">
        <ele>259.21</ele>
        <time>2013-06-16T09:21:02Z</time>
      </trkpt>
      <trkpt lat="41.661053368" lon="2.499211084">
        <ele>261.62</ele>
        <time>2013-06-16T09:21:08Z</time>
      </trkpt>
      <trkpt lat="41.661070718" lon="2.499470839">
        <ele>262.10</ele>
        <time>2013-06-16T09:21:15Z</time>
      </trkpt>
      <trkpt lat="41.661048758" lon="2.499510905">
        <ele>262.10</ele>
        <time>2013-06-16T09:21:16Z</time>
      </trkpt>
      <trkpt lat="41.660890256" lon="2.499577625">
        <ele>262.58</ele>
        <time>2013-06-16T09:21:23Z</time>
      </trkpt>
      <trkpt lat="41.660738376" lon="2.499647698">
        <ele>264.02</ele>
        <time>2013-06-16T09:21:31Z</time>
      </trkpt>
      <trkpt lat="41.660597308" lon="2.499767726">
        <ele>265.46</ele>
        <time>2013-06-16T09:21:39Z</time>
      </trkpt>
      <trkpt lat="41.660452218" lon="2.499932431">
        <ele>266.90</ele>
        <time>2013-06-16T09:21:48Z</time>
      </trkpt>
      <trkpt lat="41.660382313" lon="2.500071319">
        <ele>267.86</ele>
        <time>2013-06-16T09:21:55Z</time>
      </trkpt>
      <trkpt lat="41.660380050" lon="2.500257062">
        <ele>269.79</ele>
        <time>2013-06-16T09:22:04Z</time>
      </trkpt>
      <trkpt lat="41.660362531" lon="2.500445822">
        <ele>270.75</ele>
        <time>2013-06-16T09:22:11Z</time>
      </trkpt>
      <trkpt lat="41.660323136" lon="2.500665344">
        <ele>272.67</ele>
        <time>2013-06-16T09:22:20Z</time>
      </trkpt>
      <trkpt lat="41.660251220" lon="2.500752181">
        <ele>274.11</ele>
        <time>2013-06-16T09:22:26Z</time>
      </trkpt>
      <trkpt lat="41.660176621" lon="2.500982767">
        <ele>274.59</ele>
        <time>2013-06-16T09:22:35Z</time>
      </trkpt>
      <trkpt lat="41.660123815" lon="2.501239589">
        <ele>275.56</ele>
        <time>2013-06-16T09:22:45Z</time>
      </trkpt>
      <trkpt lat="41.660038655" lon="2.501469756">
        <ele>276.52</ele>
        <time>2013-06-16T09:22:55Z</time>
      </trkpt>
      <trkpt lat="41.659989788" lon="2.501638651">
        <ele>278.44</ele>
        <time>2013-06-16T09:23:03Z</time>
      </trkpt>
      <trkpt lat="41.659986435" lon="2.501665808">
        <ele>278.44</ele>
        <time>2013-06-16T09:23:05Z</time>
      </trkpt>
      <trkpt lat="41.660033961" lon="2.501668491">
        <ele>278.92</ele>
        <time>2013-06-16T09:23:10Z</time>
      </trkpt>
      <trkpt lat="41.660119540" lon="2.501528597">
        <ele>280.36</ele>
        <time>2013-06-16T09:23:19Z</time>
      </trkpt>
      <trkpt lat="41.660233282" lon="2.501432875">
        <ele>281.32</ele>
        <time>2013-06-16T09:23:27Z</time>
      </trkpt>
      <trkpt lat="41.660370327" lon="2.501299435">
        <ele>282.28</ele>
        <time>2013-06-16T09:23:37Z</time>
      </trkpt>
      <trkpt lat="41.660490020" lon="2.501172952">
        <ele>283.25</ele>
        <time>2013-06-16T09:23:46Z</time>
      </trkpt>
      <trkpt lat="41.660613988" lon="2.501031215">
        <ele>284.21</ele>
        <time>2013-06-16T09:23:55Z</time>
      </trkpt>
      <trkpt lat="41.660715074" lon="2.500861230">
        <ele>285.17</ele>
        <time>2013-06-16T09:24:04Z</time>
      </trkpt>
      <trkpt lat="41.660806772" lon="2.500686802">
        <ele>286.13</ele>
        <time>2013-06-16T09:24:13Z</time>
      </trkpt>
      <trkpt lat="41.660829990" lon="2.500657214">
        <ele>286.61</ele>
        <time>2013-06-16T09:24:15Z</time>
      </trkpt>
      <trkpt lat="41.660919257" lon="2.500653274">
        <ele>286.13</ele>
        <time>2013-06-16T09:24:20Z</time>
      </trkpt>
      <trkpt lat="41.661058900" lon="2.500744973">
        <ele>288.53</ele>
        <time>2013-06-16T09:24:29Z</time>
      </trkpt>
      <trkpt lat="41.661177085" lon="2.500777830">
        <ele>289.97</ele>
        <time>2013-06-16T09:24:37Z</time>
      </trkpt>
      <trkpt lat="41.661297197" lon="2.500860727">
        <ele>290.94</ele>
        <time>2013-06-16T09:24:45Z</time>
      </trkpt>
      <trkpt lat="41.661417981" lon="2.500966003">
        <ele>293.34</ele>
        <time>2013-06-16T09:24:54Z</time>
      </trkpt>
      <trkpt lat="41.661546643" lon="2.501084523">
        <ele>293.82</ele>
        <time>2013-06-16T09:25:02Z</time>
      </trkpt>
      <trkpt lat="41.661723585" lon="2.501219724">
        <ele>294.78</ele>
        <time>2013-06-16T09:25:13Z</time>
      </trkpt>
      <trkpt lat="41.661841434" lon="2.501310248">
        <ele>294.78</ele>
        <time>2013-06-16T09:25:21Z</time>
      </trkpt>
      <trkpt lat="41.661960541" lon="2.501417872">
        <ele>295.74</ele>
        <time>2013-06-16T09:25:29Z</time>
      </trkpt>
      <trkpt lat="41.662053497" lon="2.501583247">
        <ele>295.74</ele>
        <time>2013-06-16T09:25:38Z</time>
      </trkpt>
      <trkpt lat="41.662123234" lon="2.501648039">
        <ele>295.74</ele>
        <time>2013-06-16T09:25:44Z</time>
      </trkpt>
      <trkpt lat="41.662246196" lon="2.501733199">
        <ele>295.74</ele>
        <time>2013-06-16T09:25:52Z</time>
      </trkpt>
      <trkpt lat="41.662409308" lon="2.501862699">
        <ele>296.70</ele>
        <time>2013-06-16T09:26:02Z</time>
      </trkpt>
      <trkpt lat="41.662554902" lon="2.501924139">
        <ele>297.18</ele>
        <time>2013-06-16T09:26:10Z</time>
      </trkpt>
      <trkpt lat="41.662684654" lon="2.501978872">
        <ele>297.67</ele>
        <time>2013-06-16T09:26:18Z</time>
      </trkpt>
      <trkpt lat="41.662746261" lon="2.502029415">
        <ele>298.15</ele>
        <time>2013-06-16T09:26:22Z</time>
      </trkpt>
      <trkpt lat="41.662769060" lon="2.502079707">
        <ele>298.63</ele>
        <time>2013-06-16T09:26:26Z</time>
      </trkpt>
      <trkpt lat="41.662824045" lon="2.502051544">
        <ele>299.11</ele>
        <time>2013-06-16T09:26:30Z</time>
      </trkpt>
      <trkpt lat="41.663017332" lon="2.501883906">
        <ele>299.11</ele>
        <time>2013-06-16T09:26:38Z</time>
      </trkpt>
      <trkpt lat="41.663170553" lon="2.501766643">
        <ele>299.11</ele>
        <time>2013-06-16T09:26:45Z</time>
      </trkpt>
      <trkpt lat="41.663323523" lon="2.501716435">
        <ele>299.59</ele>
        <time>2013-06-16T09:26:52Z</time>
      </trkpt>
      <trkpt lat="41.663484790" lon="2.501714843">
        <ele>301.51</ele>
        <time>2013-06-16T09:27:00Z</time>
      </trkpt>
      <trkpt lat="41.663503650" lon="2.501702773">
        <ele>301.51</ele>
        <time>2013-06-16T09:27:01Z</time>
      </trkpt>
      <trkpt lat="41.663615632" lon="2.501476629">
        <ele>301.51</ele>
        <time>2013-06-16T09:27:08Z</time>
      </trkpt>
      <trkpt lat="41.663645471" lon="2.501298681">
        <ele>300.07</ele>
        <time>2013-06-16T09:27:13Z</time>
      </trkpt>
      <trkpt lat="41.663690398" lon="2.500978241">
        <ele>299.59</ele>
        <time>2013-06-16T09:27:21Z</time>
      </trkpt>
      <trkpt lat="41.663762231" lon="2.500766765">
        <ele>299.59</ele>
        <time>2013-06-16T09:27:28Z</time>
      </trkpt>
      <trkpt lat="41.663887205" lon="2.500596613">
        <ele>299.59</ele>
        <time>2013-06-16T09:27:35Z</time>
      </trkpt>
      <trkpt lat="41.663968761" lon="2.500346413">
        <ele>300.55</ele>
        <time>2013-06-16T09:27:42Z</time>
      </trkpt>
      <trkpt lat="41.664089209" lon="2.500246501">
        <ele>299.11</ele>
        <time>2013-06-16T09:27:46Z</time>
      </trkpt>
      <trkpt lat="41.664186775" lon="2.500272652">
        <ele>297.18</ele>
        <time>2013-06-16T09:27:49Z</time>
      </trkpt>
      <trkpt lat="41.664311246" lon="2.500345323">
        <ele>295.74</ele>
        <time>2013-06-16T09:27:52Z</time>
      </trkpt>
      <trkpt lat="41.664430437" lon="2.500403494">
        <ele>292.86</ele>
        <time>2013-06-16T09:27:56Z</time>
      </trkpt>
      <trkpt lat="41.664481985" lon="2.500429310">
        <ele>291.42</ele>
        <time>2013-06-16T09:27:58Z</time>
      </trkpt>
      <trkpt lat="41.664589860" lon="2.500533665">
        <ele>288.53</ele>
        <time>2013-06-16T09:28:02Z</time>
      </trkpt>
      <trkpt lat="41.664719864" lon="2.500624776">
        <ele>285.17</ele>
        <time>2013-06-16T09:28:06Z</time>
      </trkpt>
      <trkpt lat="41.664745093" lon="2.500650592">
        <ele>284.69</ele>
        <time>2013-06-16T09:28:07Z</time>
      </trkpt>
      <trkpt lat="41.664769485" lon="2.500718989">
        <ele>283.73</ele>
        <time>2013-06-16T09:28:09Z</time>
      </trkpt>
      <trkpt lat="41.664774849" lon="2.500829797">
        <ele>281.32</ele>
        <time>2013-06-16T09:28:12Z</time>
      </trkpt>
      <trkpt lat="41.664776358" lon="2.500986455">
        <ele>278.92</ele>
        <time>2013-06-16T09:28:16Z</time>
      </trkpt>
      <trkpt lat="41.664777783" lon="2.501023671">
        <ele>277.48</ele>
        <time>2013-06-16T09:28:17Z</time>
      </trkpt>
      <trkpt lat="41.664758337" lon="2.501279235">
        <ele>274.59</ele>
        <time>2013-06-16T09:28:23Z</time>
      </trkpt>
      <trkpt lat="41.664755990" lon="2.501394486">
        <ele>272.67</ele>
        <time>2013-06-16T09:28:25Z</time>
      </trkpt>
      <trkpt lat="41.664828577" lon="2.501636556">
        <ele>269.79</ele>
        <time>2013-06-16T09:28:30Z</time>
      </trkpt>
      <trkpt lat="41.664954725" lon="2.501838392">
        <ele>268.35</ele>
        <time>2013-06-16T09:28:36Z</time>
      </trkpt>
      <trkpt lat="41.664975512" lon="2.501888348">
        <ele>267.86</ele>
        <time>2013-06-16T09:28:37Z</time>
      </trkpt>
      <trkpt lat="41.665036281" lon="2.502173584">
        <ele>265.94</ele>
        <time>2013-06-16T09:28:43Z</time>
      </trkpt>
      <trkpt lat="41.665007782" lon="2.502368715">
        <ele>264.50</ele>
        <time>2013-06-16T09:28:48Z</time>
      </trkpt>
      <trkpt lat="41.665021445" lon="2.502427220">
        <ele>264.02</ele>
        <time>2013-06-16T09:28:51Z</time>
      </trkpt>
      <trkpt lat="41.665006273" lon="2.502479607">
        <ele>263.54</ele>
        <time>2013-06-16T09:28:55Z</time>
      </trkpt>
      <trkpt lat="41.665054218" lon="2.502622435">
        <ele>263.54</ele>
        <time>2013-06-16T09:29:00Z</time>
      </trkpt>
      <trkpt lat="41.665100067" lon="2.502667865">
        <ele>263.06</ele>
        <time>2013-06-16T09:29:02Z</time>
      </trkpt>
      <trkpt lat="41.665187658" lon="2.502635511">
        <ele>262.58</ele>
        <time>2013-06-16T09:29:06Z</time>
      </trkpt>
      <trkpt lat="41.665341130" lon="2.502555631">
        <ele>261.62</ele>
        <time>2013-06-16T09:29:12Z</time>
      </trkpt>
      <trkpt lat="41.665541123" lon="2.502583375">
        <ele>261.14</ele>
        <time>2013-06-16T09:29:18Z</time>
      </trkpt>
      <trkpt lat="41.665726866" lon="2.502723353">
        <ele>261.14</ele>
        <time>2013-06-16T09:29:25Z</time>
      </trkpt>
      <trkpt lat="41.665937670" lon="2.502771549">
        <ele>261.14</ele>
        <time>2013-06-16T09:29:32Z</time>
      </trkpt>
      <trkpt lat="41.666089802" lon="2.502914041">
        <ele>261.14</ele>
        <time>2013-06-16T09:29:38Z</time>
      </trkpt>
      <trkpt lat="41.666091478" lon="2.503105065">
        <ele>261.14</ele>
        <time>2013-06-16T09:29:44Z</time>
      </trkpt>
      <trkpt lat="41.666051161" lon="2.503206905">
        <ele>261.14</ele>
        <time>2013-06-16T09:29:50Z</time>
      </trkpt>
      <trkpt lat="41.666018388" lon="2.503347889">
        <ele>261.14</ele>
        <time>2013-06-16T09:29:54Z</time>
      </trkpt>
      <trkpt lat="41.665899449" lon="2.503549557">
        <ele>260.17</ele>
        <time>2013-06-16T09:29:59Z</time>
      </trkpt>
      <trkpt lat="41.665921996" lon="2.503732618">
        <ele>258.73</ele>
        <time>2013-06-16T09:30:03Z</time>
      </trkpt>
      <trkpt lat="41.666031213" lon="2.503732199">
        <ele>258.25</ele>
        <time>2013-06-16T09:30:06Z</time>
      </trkpt>
      <trkpt lat="41.666260877" lon="2.503718453">
        <ele>256.33</ele>
        <time>2013-06-16T09:30:10Z</time>
      </trkpt>
      <trkpt lat="41.666447123" lon="2.503778551">
        <ele>254.89</ele>
        <time>2013-06-16T09:30:13Z</time>
      </trkpt>
      <trkpt lat="41.666720121" lon="2.503823729">
        <ele>252.00</ele>
        <time>2013-06-16T09:30:17Z</time>
      </trkpt>
      <trkpt lat="41.667077106" lon="2.503869243">
        <ele>249.60</ele>
        <time>2013-06-16T09:30:22Z</time>
      </trkpt>
      <trkpt lat="41.667198057" lon="2.504037971">
        <ele>248.16</ele>
        <time>2013-06-16T09:30:25Z</time>
      </trkpt>
      <trkpt lat="41.667218425" lon="2.504111648">
        <ele>247.68</ele>
        <time>2013-06-16T09:30:26Z</time>
      </trkpt>
      <trkpt lat="41.667427554" lon="2.504519092">
        <ele>246.23</ele>
        <time>2013-06-16T09:30:32Z</time>
      </trkpt>
      <trkpt lat="41.667463596" lon="2.504862163">
        <ele>244.31</ele>
        <time>2013-06-16T09:30:36Z</time>
      </trkpt>
      <trkpt lat="41.667368294" lon="2.505010439">
        <ele>242.87</ele>
        <time>2013-06-16T09:30:38Z</time>
      </trkpt>
      <trkpt lat="41.667207696" lon="2.505317720">
        <ele>239.51</ele>
        <time>2013-06-16T09:30:43Z</time>
      </trkpt>
      <trkpt lat="41.667229908" lon="2.505369604">
        <ele>239.51</ele>
        <time>2013-06-16T09:30:44Z</time>
      </trkpt>
      <trkpt lat="41.667349686" lon="2.505460799">
        <ele>239.02</ele>
        <time>2013-06-16T09:30:47Z</time>
      </trkpt>
      <trkpt lat="41.667628887" lon="2.505593736">
        <ele>238.06</ele>
        <time>2013-06-16T09:30:52Z</time>
      </trkpt>
      <trkpt lat="41.667865676" lon="2.505853826">
        <ele>236.62</ele>
        <time>2013-06-16T09:30:57Z</time>
      </trkpt>
      <trkpt lat="41.668127024" lon="2.506023979">
        <ele>236.62</ele>
        <time>2013-06-16T09:31:02Z</time>
      </trkpt>
      <trkpt lat="41.668194330" lon="2.506267641">
        <ele>236.62</ele>
        <time>2013-06-16T09:31:06Z</time>
      </trkpt>
      <trkpt lat="41.668184691" lon="2.506401165">
        <ele>236.62</ele>
        <time>2013-06-16T09:31:08Z</time>
      </trkpt>
      <trkpt lat="41.668161138" lon="2.506606689">
        <ele>236.62</ele>
        <time>2013-06-16T09:31:11Z</time>
      </trkpt>
      <trkpt lat="41.668021915" lon="2.506880358">
        <ele>236.14</ele>
        <time>2013-06-16T09:31:16Z</time>
      </trkpt>
      <trkpt lat="41.667941784" lon="2.506966943">
        <ele>236.14</ele>
        <time>2013-06-16T09:31:18Z</time>
      </trkpt>
      <trkpt lat="41.667874644" lon="2.507236924">
        <ele>235.18</ele>
        <time>2013-06-16T09:31:23Z</time>
      </trkpt>
      <trkpt lat="41.667971623" lon="2.507338597">
        <ele>234.70</ele>
        <time>2013-06-16T09:31:26Z</time>
      </trkpt>
      <trkpt lat="41.668318718" lon="2.507457452">
        <ele>234.70</ele>
        <time>2013-06-16T09:31:35Z</time>
      </trkpt>
      <trkpt lat="41.668390634" lon="2.507502966">
        <ele>234.70</ele>
        <time>2013-06-16T09:31:37Z</time>
      </trkpt>
      <trkpt lat="41.668455091" lon="2.507729780">
        <ele>236.14</ele>
        <time>2013-06-16T09:31:41Z</time>
      </trkpt>
      <trkpt lat="41.668463054" lon="2.507882163">
        <ele>234.70</ele>
        <time>2013-06-16T09:31:43Z</time>
      </trkpt>
      <trkpt lat="41.668558775" lon="2.508319447">
        <ele>232.78</ele>
        <time>2013-06-16T09:31:48Z</time>
      </trkpt>
      <trkpt lat="41.668571181" lon="2.508868462">
        <ele>229.41</ele>
        <time>2013-06-16T09:31:53Z</time>
      </trkpt>
      <trkpt lat="41.668636727" lon="2.509128301">
        <ele>227.97</ele>
        <time>2013-06-16T09:31:56Z</time>
      </trkpt>
      <trkpt lat="41.668798330" lon="2.509228716">
        <ele>226.53</ele>
        <time>2013-06-16T09:31:59Z</time>
      </trkpt>
      <trkpt lat="41.669006369" lon="2.509477239">
        <ele>225.09</ele>
        <time>2013-06-16T09:32:03Z</time>
      </trkpt>
      <trkpt lat="41.669028413" lon="2.509743616">
        <ele>223.64</ele>
        <time>2013-06-16T09:32:06Z</time>
      </trkpt>
      <trkpt lat="41.669026150" lon="2.509818634">
        <ele>222.68</ele>
        <time>2013-06-16T09:32:07Z</time>
      </trkpt>
      <trkpt lat="41.669030928" lon="2.509901615">
        <ele>222.20</ele>
        <time>2013-06-16T09:32:09Z</time>
      </trkpt>
      <trkpt lat="41.669033023" lon="2.509915110">
        <ele>221.24</ele>
        <time>2013-06-16T09:32:14Z</time>
      </trkpt>
      <trkpt lat="41.669025480" lon="2.509914523">
        <ele>221.24</ele>
        <time>2013-06-16T09:32:26Z</time>
      </trkpt>
      <trkpt lat="41.669025396" lon="2.509926928">
        <ele>221.24</ele>
        <time>2013-06-16T09:32:37Z</time>
      </trkpt>
      <trkpt lat="41.669007459" lon="2.509937406">
        <ele>221.24</ele>
        <time>2013-06-16T09:32:44Z</time>
      </trkpt>
      <trkpt lat="41.668961274" lon="2.509951823">
        <ele>221.24</ele>
        <time>2013-06-16T09:32:53Z</time>
      </trkpt>
      <trkpt lat="41.668951719" lon="2.509938831">
        <ele>221.24</ele>
        <time>2013-06-16T09:33:01Z</time>
      </trkpt>
      <trkpt lat="41.668946606" lon="2.509916283">
        <ele>221.24</ele>
        <time>2013-06-16T09:33:22Z</time>
      </trkpt>
      <trkpt lat="41.668951300" lon="2.509917960">
        <ele>221.24</ele>
        <time>2013-06-16T09:33:39Z</time>
      </trkpt>
      <trkpt lat="41.668957167" lon="2.509926090">
        <ele>221.24</ele>
        <time>2013-06-16T09:33:51Z</time>
      </trkpt>
      <trkpt lat="41.668976697" lon="2.509917960">
        <ele>221.24</ele>
        <time>2013-06-16T09:34:07Z</time>
      </trkpt>
      <trkpt lat="41.668970327" lon="2.509898765">
        <ele>221.24</ele>
        <time>2013-06-16T09:34:24Z</time>
      </trkpt>
      <trkpt lat="41.668971249" lon="2.509901112">
        <ele>221.24</ele>
        <time>2013-06-16T09:34:44Z</time>
      </trkpt>
      <trkpt lat="41.668965130" lon="2.509895664">
        <ele>222.20</ele>
        <time>2013-06-16T09:35:00Z</time>
      </trkpt>
      <trkpt lat="41.668950546" lon="2.509908237">
        <ele>222.20</ele>
        <time>2013-06-16T09:35:13Z</time>
      </trkpt>
      <trkpt lat="41.668946355" lon="2.509911338">
        <ele>222.20</ele>
        <time>2013-06-16T09:35:29Z</time>
      </trkpt>
      <trkpt lat="41.668938476" lon="2.509927180">
        <ele>222.20</ele>
        <time>2013-06-16T09:35:50Z</time>
      </trkpt>
      <trkpt lat="41.668947947" lon="2.509943441">
        <ele>222.68</ele>
        <time>2013-06-16T09:36:12Z</time>
      </trkpt>
      <trkpt lat="41.668952054" lon="2.509946039">
        <ele>222.68</ele>
        <time>2013-06-16T09:36:25Z</time>
      </trkpt>
      <trkpt lat="41.668946522" lon="2.509969341">
        <ele>223.16</ele>
        <time>2013-06-16T09:36:43Z</time>
      </trkpt>
      <trkpt lat="41.668942750" lon="2.509982417">
        <ele>223.16</ele>
        <time>2013-06-16T09:36:54Z</time>
      </trkpt>
      <trkpt lat="41.668927914" lon="2.509987446">
        <ele>223.16</ele>
        <time>2013-06-16T09:37:13Z</time>
      </trkpt>
      <trkpt lat="41.668924981" lon="2.509982752">
        <ele>223.16</ele>
        <time>2013-06-16T09:37:32Z</time>
      </trkpt>
      <trkpt lat="41.668927495" lon="2.509978561">
        <ele>223.16</ele>
        <time>2013-06-16T09:37:49Z</time>
      </trkpt>
      <trkpt lat="41.668936045" lon="2.509993313">
        <ele>223.64</ele>
        <time>2013-06-16T09:38:06Z</time>
      </trkpt>
      <trkpt lat="41.668942331" lon="2.509984763">
        <ele>223.64</ele>
        <time>2013-06-16T09:38:23Z</time>
      </trkpt>
      <trkpt lat="41.668937302" lon="2.509988871">
        <ele>223.64</ele>
        <time>2013-06-16T09:38:39Z</time>
      </trkpt>
      <trkpt lat="41.668937637" lon="2.509993732">
        <ele>223.64</ele>
        <time>2013-06-16T09:38:54Z</time>
      </trkpt>
      <trkpt lat="41.668937051" lon="2.509972777">
        <ele>223.64</ele>
        <time>2013-06-16T09:39:13Z</time>
      </trkpt>
      <trkpt lat="41.668929758" lon="2.509974538">
        <ele>223.64</ele>
        <time>2013-06-16T09:39:31Z</time>
      </trkpt>
      <trkpt lat="41.668931686" lon="2.509940423">
        <ele>223.64</ele>
        <time>2013-06-16T09:39:50Z</time>
      </trkpt>
      <trkpt lat="41.668912240" lon="2.509931706">
        <ele>224.12</ele>
        <time>2013-06-16T09:40:09Z</time>
      </trkpt>
      <trkpt lat="41.668909810" lon="2.509934053">
        <ele>224.12</ele>
        <time>2013-06-16T09:40:31Z</time>
      </trkpt>
      <trkpt lat="41.668905702" lon="2.509949392">
        <ele>224.12</ele>
        <time>2013-06-16T09:40:53Z</time>
      </trkpt>
      <trkpt lat="41.668917269" lon="2.509940256">
        <ele>224.12</ele>
        <time>2013-06-16T09:41:02Z</time>
      </trkpt>
      <trkpt lat="41.668937637" lon="2.509974035">
        <ele>224.12</ele>
        <time>2013-06-16T09:41:12Z</time>
      </trkpt>
      <trkpt lat="41.668932608" lon="2.509974035">
        <ele>224.12</ele>
        <time>2013-06-16T09:41:19Z</time>
      </trkpt>
      <trkpt lat="41.668927831" lon="2.509986859">
        <ele>224.12</ele>
        <time>2013-06-16T09:41:28Z</time>
      </trkpt>
      <trkpt lat="41.668820458" lon="2.510144858">
        <ele>225.09</ele>
        <time>2013-06-16T09:41:39Z</time>
      </trkpt>
      <trkpt lat="41.668795480" lon="2.510160532">
        <ele>225.09</ele>
        <time>2013-06-16T09:41:44Z</time>
      </trkpt>
      <trkpt lat="41.668784249" lon="2.510183917">
        <ele>225.57</ele>
        <time>2013-06-16T09:41:50Z</time>
      </trkpt>
      <trkpt lat="41.668680313" lon="2.510280309">
        <ele>227.01</ele>
        <time>2013-06-16T09:41:57Z</time>
      </trkpt>
      <trkpt lat="41.668498090" lon="2.510383658">
        <ele>228.45</ele>
        <time>2013-06-16T09:42:05Z</time>
      </trkpt>
      <trkpt lat="41.668372362" lon="2.510486839">
        <ele>229.89</ele>
        <time>2013-06-16T09:42:12Z</time>
      </trkpt>
      <trkpt lat="41.668213273" lon="2.510566803">
        <ele>230.37</ele>
        <time>2013-06-16T09:42:20Z</time>
      </trkpt>
      <trkpt lat="41.668067344" lon="2.510618854">
        <ele>231.81</ele>
        <time>2013-06-16T09:42:27Z</time>
      </trkpt>
      <trkpt lat="41.667915045" lon="2.510646934">
        <ele>232.78</ele>
        <time>2013-06-16T09:42:34Z</time>
      </trkpt>
      <trkpt lat="41.667760567" lon="2.510742236">
        <ele>233.26</ele>
        <time>2013-06-16T09:42:41Z</time>
      </trkpt>
      <trkpt lat="41.667688818" lon="2.510816835">
        <ele>233.26</ele>
        <time>2013-06-16T09:42:43Z</time>
      </trkpt>
      <trkpt lat="41.667648082" lon="2.510998806">
        <ele>232.78</ele>
        <time>2013-06-16T09:42:47Z</time>
      </trkpt>
      <trkpt lat="41.667628133" lon="2.511075501">
        <ele>233.74</ele>
        <time>2013-06-16T09:42:50Z</time>
      </trkpt>
      <trkpt lat="41.667581278" lon="2.511177424">
        <ele>235.18</ele>
        <time>2013-06-16T09:42:56Z</time>
      </trkpt>
      <trkpt lat="41.667500812" lon="2.511344979">
        <ele>236.14</ele>
        <time>2013-06-16T09:43:03Z</time>
      </trkpt>
      <trkpt lat="41.667486814" lon="2.511377417">
        <ele>236.14</ele>
        <time>2013-06-16T09:43:04Z</time>
      </trkpt>
      <trkpt lat="41.667359660" lon="2.511609176">
        <ele>236.62</ele>
        <time>2013-06-16T09:43:11Z</time>
      </trkpt>
      <trkpt lat="41.667273830" lon="2.511755692">
        <ele>238.54</ele>
        <time>2013-06-16T09:43:17Z</time>
      </trkpt>
      <trkpt lat="41.667168804" lon="2.511967586">
        <ele>239.51</ele>
        <time>2013-06-16T09:43:25Z</time>
      </trkpt>
      <trkpt lat="41.667127482" lon="2.512209488">
        <ele>239.99</ele>
        <time>2013-06-16T09:43:32Z</time>
      </trkpt>
      <trkpt lat="41.667049111" lon="2.512401434">
        <ele>240.95</ele>
        <time>2013-06-16T09:43:39Z</time>
      </trkpt>
      <trkpt lat="41.667017511" lon="2.512427418">
        <ele>241.43</ele>
        <time>2013-06-16T09:43:41Z</time>
      </trkpt>
      <trkpt lat="41.666839899" lon="2.512434542">
        <ele>241.43</ele>
        <time>2013-06-16T09:43:46Z</time>
      </trkpt>
      <trkpt lat="41.666782985" lon="2.512461113">
        <ele>241.43</ele>
        <time>2013-06-16T09:43:48Z</time>
      </trkpt>
      <trkpt lat="41.666745937" lon="2.512488689">
        <ele>241.43</ele>
        <time>2013-06-16T09:43:50Z</time>
      </trkpt>
      <trkpt lat="41.666688940" lon="2.512511907">
        <ele>241.43</ele>
        <time>2013-06-16T09:43:57Z</time>
      </trkpt>
      <trkpt lat="41.666673685" lon="2.512533365">
        <ele>241.43</ele>
        <time>2013-06-16T09:44:02Z</time>
      </trkpt>
      <trkpt lat="41.666648623" lon="2.512572592">
        <ele>239.51</ele>
        <time>2013-06-16T09:44:05Z</time>
      </trkpt>
      <trkpt lat="41.666649126" lon="2.512584159">
        <ele>239.51</ele>
        <time>2013-06-16T09:44:06Z</time>
      </trkpt>
      <trkpt lat="41.666596572" lon="2.512666386">
        <ele>236.14</ele>
        <time>2013-06-16T09:44:12Z</time>
      </trkpt>
      <trkpt lat="41.666534294" lon="2.512712319">
        <ele>234.22</ele>
        <time>2013-06-16T09:44:16Z</time>
      </trkpt>
      <trkpt lat="41.666463383" lon="2.512671163">
        <ele>234.22</ele>
        <time>2013-06-16T09:44:20Z</time>
      </trkpt>
      <trkpt lat="41.666255177" lon="2.512536634">
        <ele>234.22</ele>
        <time>2013-06-16T09:44:31Z</time>
      </trkpt>
      <trkpt lat="41.666218297" lon="2.512510063">
        <ele>235.66</ele>
        <time>2013-06-16T09:44:33Z</time>
      </trkpt>
      <trkpt lat="41.666102375" lon="2.512426831">
        <ele>237.58</ele>
        <time>2013-06-16T09:44:41Z</time>
      </trkpt>
      <trkpt lat="41.666069266" lon="2.512395566">
        <ele>237.58</ele>
        <time>2013-06-16T09:44:44Z</time>
      </trkpt>
      <trkpt lat="41.665979496" lon="2.512398752">
        <ele>238.54</ele>
        <time>2013-06-16T09:44:51Z</time>
      </trkpt>
      <trkpt lat="41.665968432" lon="2.512396321">
        <ele>238.06</ele>
        <time>2013-06-16T09:44:52Z</time>
      </trkpt>
      <trkpt lat="41.665944041" lon="2.512383748">
        <ele>238.54</ele>
        <time>2013-06-16T09:44:54Z</time>
      </trkpt>
      <trkpt lat="41.665863910" lon="2.512394477">
        <ele>239.51</ele>
        <time>2013-06-16T09:45:02Z</time>
      </trkpt>
      <trkpt lat="41.665770284" lon="2.512414342">
        <ele>240.95</ele>
        <time>2013-06-16T09:45:09Z</time>
      </trkpt>
      <trkpt lat="41.665736002" lon="2.512446780">
        <ele>242.39</ele>
        <time>2013-06-16T09:45:13Z</time>
      </trkpt>
      <trkpt lat="41.665741450" lon="2.512493467">
        <ele>243.35</ele>
        <time>2013-06-16T09:45:18Z</time>
      </trkpt>
      <trkpt lat="41.665786461" lon="2.512597989">
        <ele>246.23</ele>
        <time>2013-06-16T09:45:26Z</time>
      </trkpt>
      <trkpt lat="41.665821497" lon="2.512659848">
        <ele>247.20</ele>
        <time>2013-06-16T09:45:30Z</time>
      </trkpt>
      <trkpt lat="41.665882853" lon="2.512760431">
        <ele>247.68</ele>
        <time>2013-06-16T09:45:35Z</time>
      </trkpt>
      <trkpt lat="41.666084102" lon="2.512902336">
        <ele>245.75</ele>
        <time>2013-06-16T09:45:40Z</time>
      </trkpt>
      <trkpt lat="41.666126431" lon="2.512925973">
        <ele>244.79</ele>
        <time>2013-06-16T09:45:41Z</time>
      </trkpt>
      <trkpt lat="41.666243358" lon="2.513102915">
        <ele>242.39</ele>
        <time>2013-06-16T09:45:45Z</time>
      </trkpt>
      <trkpt lat="41.666185775" lon="2.513279941">
        <ele>240.47</ele>
        <time>2013-06-16T09:45:48Z</time>
      </trkpt>
      <trkpt lat="41.666053592" lon="2.513406759">
        <ele>237.58</ele>
        <time>2013-06-16T09:45:52Z</time>
      </trkpt>
      <trkpt lat="41.666091814" lon="2.513497451">
        <ele>236.14</ele>
        <time>2013-06-16T09:45:55Z</time>
      </trkpt>
      <trkpt lat="41.666168760" lon="2.513568446">
        <ele>234.70</ele>
        <time>2013-06-16T09:46:00Z</time>
      </trkpt>
      <trkpt lat="41.666128526" lon="2.513648326">
        <ele>234.70</ele>
        <time>2013-06-16T09:46:03Z</time>
      </trkpt>
      <trkpt lat="41.665980167" lon="2.513928449">
        <ele>234.70</ele>
        <time>2013-06-16T09:46:13Z</time>
      </trkpt>
      <trkpt lat="41.665867598" lon="2.514265485">
        <ele>234.70</ele>
        <time>2013-06-16T09:46:22Z</time>
      </trkpt>
      <trkpt lat="41.665750670" lon="2.514625991">
        <ele>234.22</ele>
        <time>2013-06-16T09:46:31Z</time>
      </trkpt>
      <trkpt lat="41.665652686" lon="2.515002338">
        <ele>234.22</ele>
        <time>2013-06-16T09:46:41Z</time>
      </trkpt>
      <trkpt lat="41.665530897" lon="2.515290760">
        <ele>234.22</ele>
        <time>2013-06-16T09:46:49Z</time>
      </trkpt>
      <trkpt lat="41.665353619" lon="2.515361838">
        <ele>235.18</ele>
        <time>2013-06-16T09:46:55Z</time>
      </trkpt>
      <trkpt lat="41.665143988" lon="2.515323533">
        <ele>235.18</ele>
        <time>2013-06-16T09:47:02Z</time>
      </trkpt>
      <trkpt lat="41.664938296" lon="2.515411291">
        <ele>235.18</ele>
        <time>2013-06-16T09:47:09Z</time>
      </trkpt>
      <trkpt lat="41.664820027" lon="2.515662078">
        <ele>235.66</ele>
        <time>2013-06-16T09:47:16Z</time>
      </trkpt>
      <trkpt lat="41.664706453" lon="2.515979165">
        <ele>236.14</ele>
        <time>2013-06-16T09:47:25Z</time>
      </trkpt>
      <trkpt lat="41.664552477" lon="2.516347885">
        <ele>236.62</ele>
        <time>2013-06-16T09:47:36Z</time>
      </trkpt>
      <trkpt lat="41.664458684" lon="2.516573107">
        <ele>237.10</ele>
        <time>2013-06-16T09:47:43Z</time>
      </trkpt>
      <trkpt lat="41.664356844" lon="2.516861277">
        <ele>238.06</ele>
        <time>2013-06-16T09:47:52Z</time>
      </trkpt>
      <trkpt lat="41.664235222" lon="2.517177442">
        <ele>239.51</ele>
        <time>2013-06-16T09:48:01Z</time>
      </trkpt>
      <trkpt lat="41.664106225" lon="2.517536774">
        <ele>240.95</ele>
        <time>2013-06-16T09:48:11Z</time>
      </trkpt>
      <trkpt lat="41.664089712" lon="2.517813126">
        <ele>241.91</ele>
        <time>2013-06-16T09:48:18Z</time>
      </trkpt>
      <trkpt lat="41.664189122" lon="2.518074222">
        <ele>242.87</ele>
        <time>2013-06-16T09:48:25Z</time>
      </trkpt>
      <trkpt lat="41.664291548" lon="2.518322075">
        <ele>243.83</ele>
        <time>2013-06-16T09:48:32Z</time>
      </trkpt>
      <trkpt lat="41.664403866" lon="2.518630697">
        <ele>245.27</ele>
        <time>2013-06-16T09:48:41Z</time>
      </trkpt>
      <trkpt lat="41.664536132" lon="2.519026322">
        <ele>247.20</ele>
        <time>2013-06-16T09:48:52Z</time>
      </trkpt>
      <trkpt lat="41.664490870" lon="2.519249952">
        <ele>248.64</ele>
        <time>2013-06-16T09:48:58Z</time>
      </trkpt>
      <trkpt lat="41.664348797" lon="2.519370148">
        <ele>249.60</ele>
        <time>2013-06-16T09:49:04Z</time>
      </trkpt>
      <trkpt lat="41.664106476" lon="2.519426391">
        <ele>250.08</ele>
        <time>2013-06-16T09:49:12Z</time>
      </trkpt>
      <trkpt lat="41.664041265" lon="2.519490093">
        <ele>250.08</ele>
        <time>2013-06-16T09:49:14Z</time>
      </trkpt>
      <trkpt lat="41.663788299" lon="2.519853449">
        <ele>250.56</ele>
        <time>2013-06-16T09:49:23Z</time>
      </trkpt>
      <trkpt lat="41.663750832" lon="2.520167854">
        <ele>251.52</ele>
        <time>2013-06-16T09:49:30Z</time>
      </trkpt>
      <trkpt lat="41.663760639" lon="2.520545961">
        <ele>253.44</ele>
        <time>2013-06-16T09:49:39Z</time>
      </trkpt>
      <trkpt lat="41.663806572" lon="2.520840921">
        <ele>254.41</ele>
        <time>2013-06-16T09:49:46Z</time>
      </trkpt>
      <trkpt lat="41.663830963" lon="2.521217520">
        <ele>255.85</ele>
        <time>2013-06-16T09:49:55Z</time>
      </trkpt>
      <trkpt lat="41.663803051" lon="2.521501079">
        <ele>257.77</ele>
        <time>2013-06-16T09:50:03Z</time>
      </trkpt>
      <trkpt lat="41.663704229" lon="2.521743652">
        <ele>259.21</ele>
        <time>2013-06-16T09:50:11Z</time>
      </trkpt>
      <trkpt lat="41.663570621" lon="2.521897711">
        <ele>260.17</ele>
        <time>2013-06-16T09:50:19Z</time>
      </trkpt>
      <trkpt lat="41.663403486" lon="2.522018997">
        <ele>261.14</ele>
        <time>2013-06-16T09:50:27Z</time>
      </trkpt>
      <trkpt lat="41.663273902" lon="2.522118826">
        <ele>261.62</ele>
        <time>2013-06-16T09:50:33Z</time>
      </trkpt>
      <trkpt lat="41.663111712" lon="2.522247907">
        <ele>262.10</ele>
        <time>2013-06-16T09:50:40Z</time>
      </trkpt>
      <trkpt lat="41.662946337" lon="2.522405822">
        <ele>262.58</ele>
        <time>2013-06-16T09:50:47Z</time>
      </trkpt>
      <trkpt lat="41.662772245" lon="2.522660632">
        <ele>263.54</ele>
        <time>2013-06-16T09:50:55Z</time>
      </trkpt>
      <trkpt lat="41.662690605" lon="2.522868000">
        <ele>264.02</ele>
        <time>2013-06-16T09:51:02Z</time>
      </trkpt>
      <trkpt lat="41.662608462" lon="2.523121469">
        <ele>264.98</ele>
        <time>2013-06-16T09:51:11Z</time>
      </trkpt>
      <trkpt lat="41.662518776" lon="2.523403771">
        <ele>266.42</ele>
        <time>2013-06-16T09:51:20Z</time>
      </trkpt>
      <trkpt lat="41.662466892" lon="2.523599154">
        <ele>267.38</ele>
        <time>2013-06-16T09:51:27Z</time>
      </trkpt>
      <trkpt lat="41.662380726" lon="2.523820268">
        <ele>269.31</ele>
        <time>2013-06-16T09:51:35Z</time>
      </trkpt>
      <trkpt lat="41.662257764" lon="2.524063930">
        <ele>271.23</ele>
        <time>2013-06-16T09:51:44Z</time>
      </trkpt>
      <trkpt lat="41.662133292" lon="2.524294181">
        <ele>272.67</ele>
        <time>2013-06-16T09:51:53Z</time>
      </trkpt>
      <trkpt lat="41.661997841" lon="2.524510350">
        <ele>274.11</ele>
        <time>2013-06-16T09:52:02Z</time>
      </trkpt>
      <trkpt lat="41.661879991" lon="2.524665499">
        <ele>274.59</ele>
        <time>2013-06-16T09:52:10Z</time>
      </trkpt>
      <trkpt lat="41.661826515" lon="2.524775721">
        <ele>275.07</ele>
        <time>2013-06-16T09:52:17Z</time>
      </trkpt>
      <trkpt lat="41.661829951" lon="2.524878651">
        <ele>275.07</ele>
        <time>2013-06-16T09:52:21Z</time>
      </trkpt>
      <trkpt lat="41.661879404" lon="2.524981832">
        <ele>275.07</ele>
        <time>2013-06-16T09:52:28Z</time>
      </trkpt>
      <trkpt lat="41.661893151" lon="2.525019048">
        <ele>275.07</ele>
        <time>2013-06-16T09:52:35Z</time>
      </trkpt>
      <trkpt lat="41.661956937" lon="2.525056599">
        <ele>273.63</ele>
        <time>2013-06-16T09:52:39Z</time>
      </trkpt>
      <trkpt lat="41.662169418" lon="2.525196828">
        <ele>272.67</ele>
        <time>2013-06-16T09:52:47Z</time>
      </trkpt>
      <trkpt lat="41.662332195" lon="2.525283246">
        <ele>271.71</ele>
        <time>2013-06-16T09:52:52Z</time>
      </trkpt>
      <trkpt lat="41.662385168" lon="2.525510144">
        <ele>271.23</ele>
        <time>2013-06-16T09:52:57Z</time>
      </trkpt>
      <trkpt lat="41.662339068" lon="2.525975675">
        <ele>268.83</ele>
        <time>2013-06-16T09:53:06Z</time>
      </trkpt>
      <trkpt lat="41.662412242" lon="2.526128560">
        <ele>269.31</ele>
        <time>2013-06-16T09:53:11Z</time>
      </trkpt>
      <trkpt lat="41.662473095" lon="2.526225791">
        <ele>268.83</ele>
        <time>2013-06-16T09:53:14Z</time>
      </trkpt>
      <trkpt lat="41.662454990" lon="2.526323356">
        <ele>268.83</ele>
        <time>2013-06-16T09:53:19Z</time>
      </trkpt>
      <trkpt lat="41.662383744" lon="2.526349256">
        <ele>268.83</ele>
        <time>2013-06-16T09:53:25Z</time>
      </trkpt>
      <trkpt lat="41.662373518" lon="2.526366942">
        <ele>268.83</ele>
        <time>2013-06-16T09:53:32Z</time>
      </trkpt>
      <trkpt lat="41.662365974" lon="2.526384125">
        <ele>268.83</ele>
        <time>2013-06-16T09:53:40Z</time>
      </trkpt>
      <trkpt lat="41.662380894" lon="2.526387142">
        <ele>268.83</ele>
        <time>2013-06-16T09:53:50Z</time>
      </trkpt>
      <trkpt lat="41.662395311" lon="2.526351016">
        <ele>268.35</ele>
        <time>2013-06-16T09:54:11Z</time>
      </trkpt>
      <trkpt lat="41.662402770" lon="2.526364762">
        <ele>268.83</ele>
        <time>2013-06-16T09:54:28Z</time>
      </trkpt>
      <trkpt lat="41.662405788" lon="2.526412120">
        <ele>268.83</ele>
        <time>2013-06-16T09:54:42Z</time>
      </trkpt>
      <trkpt lat="41.662403190" lon="2.526448917">
        <ele>268.35</ele>
        <time>2013-06-16T09:55:04Z</time>
      </trkpt>
      <trkpt lat="41.662391706" lon="2.526418574">
        <ele>268.35</ele>
        <time>2013-06-16T09:55:18Z</time>
      </trkpt>
      <trkpt lat="41.662389862" lon="2.526404074">
        <ele>268.35</ele>
        <time>2013-06-16T09:55:35Z</time>
      </trkpt>
      <trkpt lat="41.662370752" lon="2.526440200">
        <ele>268.35</ele>
        <time>2013-06-16T09:55:53Z</time>
      </trkpt>
      <trkpt lat="41.662395059" lon="2.526469369">
        <ele>268.35</ele>
        <time>2013-06-16T09:56:11Z</time>
      </trkpt>
      <trkpt lat="41.662421714" lon="2.526478589">
        <ele>268.35</ele>
        <time>2013-06-16T09:56:32Z</time>
      </trkpt>
      <trkpt lat="41.662410985" lon="2.526450258">
        <ele>268.35</ele>
        <time>2013-06-16T09:56:42Z</time>
      </trkpt>
      <trkpt lat="41.662455157" lon="2.526456460">
        <ele>268.35</ele>
        <time>2013-06-16T09:57:02Z</time>
      </trkpt>
      <trkpt lat="41.662436717" lon="2.526484959">
        <ele>268.35</ele>
        <time>2013-06-16T09:57:17Z</time>
      </trkpt>
      <trkpt lat="41.662433700" lon="2.526471967">
        <ele>268.35</ele>
        <time>2013-06-16T09:57:30Z</time>
      </trkpt>
      <trkpt lat="41.662419199" lon="2.526461573">
        <ele>268.35</ele>
        <time>2013-06-16T09:57:43Z</time>
      </trkpt>
      <trkpt lat="41.662425821" lon="2.526458556">
        <ele>268.35</ele>
        <time>2013-06-16T09:57:57Z</time>
      </trkpt>
      <trkpt lat="41.662455660" lon="2.526513877">
        <ele>268.35</ele>
        <time>2013-06-16T09:58:13Z</time>
      </trkpt>
      <trkpt lat="41.662443674" lon="2.526522761">
        <ele>268.35</ele>
        <time>2013-06-16T09:58:29Z</time>
      </trkpt>
      <trkpt lat="41.662427078" lon="2.526477331">
        <ele>267.86</ele>
        <time>2013-06-16T09:58:51Z</time>
      </trkpt>
      <trkpt lat="41.662382570" lon="2.526405666">
        <ele>267.86</ele>
        <time>2013-06-16T09:59:08Z</time>
      </trkpt>
      <trkpt lat="41.662390533" lon="2.526382867">
        <ele>267.86</ele>
        <time>2013-06-16T09:59:23Z</time>
      </trkpt>
      <trkpt lat="41.662354658" lon="2.526404912">
        <ele>268.35</ele>
        <time>2013-06-16T09:59:43Z</time>
      </trkpt>
      <trkpt lat="41.662374775" lon="2.526389824">
        <ele>268.35</ele>
        <time>2013-06-16T10:00:05Z</time>
      </trkpt>
      <trkpt lat="41.662352060" lon="2.526402230">
        <ele>268.35</ele>
        <time>2013-06-16T10:00:28Z</time>
      </trkpt>
      <trkpt lat="41.662378714" lon="2.526394518">
        <ele>268.35</ele>
        <time>2013-06-16T10:00:47Z</time>
      </trkpt>
      <trkpt lat="41.662385168" lon="2.526402397">
        <ele>268.35</ele>
        <time>2013-06-16T10:01:01Z</time>
      </trkpt>
      <trkpt lat="41.662410649" lon="2.526396111">
        <ele>268.35</ele>
        <time>2013-06-16T10:01:09Z</time>
      </trkpt>
      <trkpt lat="41.662415427" lon="2.526390914">
        <ele>268.35</ele>
        <time>2013-06-16T10:01:11Z</time>
      </trkpt>
      <trkpt lat="41.662455325" lon="2.526380940">
        <ele>268.35</ele>
        <time>2013-06-16T10:01:15Z</time>
      </trkpt>
      <trkpt lat="41.662477872" lon="2.526434835">
        <ele>268.35</ele>
        <time>2013-06-16T10:01:21Z</time>
      </trkpt>
      <trkpt lat="41.662402687" lon="2.526562324">
        <ele>270.75</ele>
        <time>2013-06-16T10:01:29Z</time>
      </trkpt>
      <trkpt lat="41.662396065" lon="2.526582692">
        <ele>270.75</ele>
        <time>2013-06-16T10:01:30Z</time>
      </trkpt>
      <trkpt lat="41.662303110" lon="2.526753599">
        <ele>272.19</ele>
        <time>2013-06-16T10:01:39Z</time>
      </trkpt>
      <trkpt lat="41.662220883" lon="2.526920147">
        <ele>273.15</ele>
        <time>2013-06-16T10:01:46Z</time>
      </trkpt>
      <trkpt lat="41.662138824" lon="2.527132210">
        <ele>274.11</ele>
        <time>2013-06-16T10:01:54Z</time>
      </trkpt>
      <trkpt lat="41.662024244" lon="2.527336896">
        <ele>274.59</ele>
        <time>2013-06-16T10:02:02Z</time>
      </trkpt>
      <trkpt lat="41.661897509" lon="2.527412752">
        <ele>274.59</ele>
        <time>2013-06-16T10:02:09Z</time>
      </trkpt>
      <trkpt lat="41.661789047" lon="2.527572846">
        <ele>274.59</ele>
        <time>2013-06-16T10:02:17Z</time>
      </trkpt>
      <trkpt lat="41.661787120" lon="2.527810389">
        <ele>275.07</ele>
        <time>2013-06-16T10:02:25Z</time>
      </trkpt>
      <trkpt lat="41.661734481" lon="2.527925976">
        <ele>276.04</ele>
        <time>2013-06-16T10:02:31Z</time>
      </trkpt>
      <trkpt lat="41.661629875" lon="2.528022032">
        <ele>277.00</ele>
        <time>2013-06-16T10:02:38Z</time>
      </trkpt>
      <trkpt lat="41.661579332" lon="2.528052962">
        <ele>277.48</ele>
        <time>2013-06-16T10:02:41Z</time>
      </trkpt>
      <trkpt lat="41.661536082" lon="2.528104007">
        <ele>278.92</ele>
        <time>2013-06-16T10:02:44Z</time>
      </trkpt>
      <trkpt lat="41.661514373" lon="2.528256055">
        <ele>280.84</ele>
        <time>2013-06-16T10:02:52Z</time>
      </trkpt>
      <trkpt lat="41.661496268" lon="2.528403996">
        <ele>281.80</ele>
        <time>2013-06-16T10:02:59Z</time>
      </trkpt>
      <trkpt lat="41.661434158" lon="2.528550092">
        <ele>282.28</ele>
        <time>2013-06-16T10:03:06Z</time>
      </trkpt>
      <trkpt lat="41.661420830" lon="2.528564928">
        <ele>282.28</ele>
        <time>2013-06-16T10:03:07Z</time>
      </trkpt>
      <trkpt lat="41.661330222" lon="2.528665260">
        <ele>283.25</ele>
        <time>2013-06-16T10:03:14Z</time>
      </trkpt>
      <trkpt lat="41.661251348" lon="2.528800292">
        <ele>284.69</ele>
        <time>2013-06-16T10:03:20Z</time>
      </trkpt>
      <trkpt lat="41.661187897" lon="2.528947646">
        <ele>285.65</ele>
        <time>2013-06-16T10:03:27Z</time>
      </trkpt>
      <trkpt lat="41.661101061" lon="2.529085864">
        <ele>286.13</ele>
        <time>2013-06-16T10:03:34Z</time>
      </trkpt>
      <trkpt lat="41.660970303" lon="2.529120229">
        <ele>287.09</ele>
        <time>2013-06-16T10:03:41Z</time>
      </trkpt>
      <trkpt lat="41.660873911" lon="2.529151159">
        <ele>288.05</ele>
        <time>2013-06-16T10:03:46Z</time>
      </trkpt>
      <trkpt lat="41.660734017" lon="2.529185524">
        <ele>288.53</ele>
        <time>2013-06-16T10:03:55Z</time>
      </trkpt>
      <trkpt lat="41.660715829" lon="2.529192398">
        <ele>288.53</ele>
        <time>2013-06-16T10:03:56Z</time>
      </trkpt>
      <trkpt lat="41.660571073" lon="2.529216537">
        <ele>289.01</ele>
        <time>2013-06-16T10:04:04Z</time>
      </trkpt>
      <trkpt lat="41.660518351" lon="2.529116960">
        <ele>289.01</ele>
        <time>2013-06-16T10:04:09Z</time>
      </trkpt>
      <trkpt lat="41.660524386" lon="2.529053928">
        <ele>287.57</ele>
        <time>2013-06-16T10:04:12Z</time>
      </trkpt>
      <trkpt lat="41.660526230" lon="2.529018222">
        <ele>287.57</ele>
        <time>2013-06-16T10:04:14Z</time>
      </trkpt>
      <trkpt lat="41.660616755" lon="2.528917387">
        <ele>287.57</ele>
        <time>2013-06-16T10:04:22Z</time>
      </trkpt>
      <trkpt lat="41.660748518" lon="2.528749665">
        <ele>287.57</ele>
        <time>2013-06-16T10:04:30Z</time>
      </trkpt>
      <trkpt lat="41.660787913" lon="2.528706163">
        <ele>287.57</ele>
        <time>2013-06-16T10:04:32Z</time>
      </trkpt>
      <trkpt lat="41.660846000" lon="2.528502735">
        <ele>287.57</ele>
        <time>2013-06-16T10:04:39Z</time>
      </trkpt>
      <trkpt lat="41.660884472" lon="2.528403744">
        <ele>287.57</ele>
        <time>2013-06-16T10:04:43Z</time>
      </trkpt>
      <trkpt lat="41.660915486" lon="2.528301820">
        <ele>287.57</ele>
        <time>2013-06-16T10:04:47Z</time>
      </trkpt>
      <trkpt lat="41.660946499" lon="2.528226048">
        <ele>287.57</ele>
        <time>2013-06-16T10:04:50Z</time>
      </trkpt>
      <trkpt lat="41.660969046" lon="2.528034521">
        <ele>288.53</ele>
        <time>2013-06-16T10:04:58Z</time>
      </trkpt>
      <trkpt lat="41.660989414" lon="2.527854059">
        <ele>289.97</ele>
        <time>2013-06-16T10:05:06Z</time>
      </trkpt>
      <trkpt lat="41.660986229" lon="2.527634956">
        <ele>291.90</ele>
        <time>2013-06-16T10:05:15Z</time>
      </trkpt>
      <trkpt lat="41.660914647" lon="2.527414596">
        <ele>292.38</ele>
        <time>2013-06-16T10:05:24Z</time>
      </trkpt>
      <trkpt lat="41.660881120" lon="2.527379643">
        <ele>292.38</ele>
        <time>2013-06-16T10:05:26Z</time>
      </trkpt>
      <trkpt lat="41.660785817" lon="2.527291130">
        <ele>291.42</ele>
        <time>2013-06-16T10:05:31Z</time>
      </trkpt>
      <trkpt lat="41.660810125" lon="2.527161211">
        <ele>291.42</ele>
        <time>2013-06-16T10:05:36Z</time>
      </trkpt>
      <trkpt lat="41.660952366" lon="2.527033722">
        <ele>291.42</ele>
        <time>2013-06-16T10:05:44Z</time>
      </trkpt>
      <trkpt lat="41.660983714" lon="2.527010337">
        <ele>292.38</ele>
        <time>2013-06-16T10:05:46Z</time>
      </trkpt>
      <trkpt lat="41.661097876" lon="2.526921991">
        <ele>294.30</ele>
        <time>2013-06-16T10:05:53Z</time>
      </trkpt>
      <trkpt lat="41.661197872" lon="2.526816547">
        <ele>297.18</ele>
        <time>2013-06-16T10:06:00Z</time>
      </trkpt>
      <trkpt lat="41.661147916" lon="2.526730968">
        <ele>298.15</ele>
        <time>2013-06-16T10:06:07Z</time>
      </trkpt>
      <trkpt lat="41.660976171" lon="2.526764160">
        <ele>299.11</ele>
        <time>2013-06-16T10:06:18Z</time>
      </trkpt>
      <trkpt lat="41.660845916" lon="2.526776314">
        <ele>299.59</ele>
        <time>2013-06-16T10:06:26Z</time>
      </trkpt>
      <trkpt lat="41.660698227" lon="2.526783439">
        <ele>301.03</ele>
        <time>2013-06-16T10:06:34Z</time>
      </trkpt>
      <trkpt lat="41.660572582" lon="2.526743624">
        <ele>302.47</ele>
        <time>2013-06-16T10:06:42Z</time>
      </trkpt>
      <trkpt lat="41.660546263" lon="2.526732812">
        <ele>302.47</ele>
        <time>2013-06-16T10:06:44Z</time>
      </trkpt>
      <trkpt lat="41.660459342" lon="2.526676066">
        <ele>303.43</ele>
        <time>2013-06-16T10:06:51Z</time>
      </trkpt>
      <trkpt lat="41.660339984" lon="2.526550841">
        <ele>305.36</ele>
        <time>2013-06-16T10:07:00Z</time>
      </trkpt>
      <trkpt lat="41.660227750" lon="2.526420921">
        <ele>306.80</ele>
        <time>2013-06-16T10:07:10Z</time>
      </trkpt>
      <trkpt lat="41.660183326" lon="2.526359817">
        <ele>307.28</ele>
        <time>2013-06-16T10:07:14Z</time>
      </trkpt>
      <trkpt lat="41.660122306" lon="2.526211793">
        <ele>307.76</ele>
        <time>2013-06-16T10:07:22Z</time>
      </trkpt>
      <trkpt lat="41.660109063" lon="2.526175667">
        <ele>307.76</ele>
        <time>2013-06-16T10:07:24Z</time>
      </trkpt>
      <trkpt lat="41.660105710" lon="2.526067792">
        <ele>308.24</ele>
        <time>2013-06-16T10:07:30Z</time>
      </trkpt>
      <trkpt lat="41.660100765" lon="2.525965532">
        <ele>309.20</ele>
        <time>2013-06-16T10:07:35Z</time>
      </trkpt>
      <trkpt lat="41.660125743" lon="2.525825219">
        <ele>309.20</ele>
        <time>2013-06-16T10:07:41Z</time>
      </trkpt>
      <trkpt lat="41.660207215" lon="2.525709801">
        <ele>310.16</ele>
        <time>2013-06-16T10:07:47Z</time>
      </trkpt>
      <trkpt lat="41.660266307" lon="2.525534116">
        <ele>310.64</ele>
        <time>2013-06-16T10:07:54Z</time>
      </trkpt>
      <trkpt lat="41.660219536" lon="2.525349043">
        <ele>311.60</ele>
        <time>2013-06-16T10:08:01Z</time>
      </trkpt>
      <trkpt lat="41.660077211" lon="2.525188111">
        <ele>312.57</ele>
        <time>2013-06-16T10:08:10Z</time>
      </trkpt>
      <trkpt lat="41.659922062" lon="2.525148967">
        <ele>313.05</ele>
        <time>2013-06-16T10:08:18Z</time>
      </trkpt>
      <trkpt lat="41.659827766" lon="2.525044277">
        <ele>314.01</ele>
        <time>2013-06-16T10:08:25Z</time>
      </trkpt>
      <trkpt lat="41.659731793" lon="2.524868174">
        <ele>315.45</ele>
        <time>2013-06-16T10:08:33Z</time>
      </trkpt>
      <trkpt lat="41.659648393" lon="2.524682515">
        <ele>316.89</ele>
        <time>2013-06-16T10:08:41Z</time>
      </trkpt>
      <trkpt lat="41.659579745" lon="2.524513368">
        <ele>317.37</ele>
        <time>2013-06-16T10:08:49Z</time>
      </trkpt>
      <trkpt lat="41.659485281" lon="2.524312370">
        <ele>318.81</ele>
        <time>2013-06-16T10:08:59Z</time>
      </trkpt>
      <trkpt lat="41.659410850" lon="2.524214385">
        <ele>320.26</ele>
        <time>2013-06-16T10:09:05Z</time>
      </trkpt>
      <trkpt lat="41.659370868" lon="2.524197957">
        <ele>321.22</ele>
        <time>2013-06-16T10:09:08Z</time>
      </trkpt>
      <trkpt lat="41.659333234" lon="2.524320584">
        <ele>322.66</ele>
        <time>2013-06-16T10:09:16Z</time>
      </trkpt>
      <trkpt lat="41.659349243" lon="2.524503058">
        <ele>324.58</ele>
        <time>2013-06-16T10:09:26Z</time>
      </trkpt>
      <trkpt lat="41.659362403" lon="2.524694920">
        <ele>325.54</ele>
        <time>2013-06-16T10:09:35Z</time>
      </trkpt>
      <trkpt lat="41.659390985" lon="2.524969930">
        <ele>327.95</ele>
        <time>2013-06-16T10:09:46Z</time>
      </trkpt>
      <trkpt lat="41.659373970" lon="2.525124408">
        <ele>328.91</ele>
        <time>2013-06-16T10:09:53Z</time>
      </trkpt>
      <trkpt lat="41.659300041" lon="2.525124995">
        <ele>330.35</ele>
        <time>2013-06-16T10:09:59Z</time>
      </trkpt>
      <trkpt lat="41.659275566" lon="2.525038829">
        <ele>330.83</ele>
        <time>2013-06-16T10:10:03Z</time>
      </trkpt>
      <trkpt lat="41.659201889" lon="2.524841603">
        <ele>332.75</ele>
        <time>2013-06-16T10:10:13Z</time>
      </trkpt>
      <trkpt lat="41.659144808" lon="2.524701877">
        <ele>334.20</ele>
        <time>2013-06-16T10:10:21Z</time>
      </trkpt>
      <trkpt lat="41.659055290" lon="2.524502555">
        <ele>335.16</ele>
        <time>2013-06-16T10:10:30Z</time>
      </trkpt>
      <trkpt lat="41.658963340" lon="2.524355620">
        <ele>336.12</ele>
        <time>2013-06-16T10:10:38Z</time>
      </trkpt>
      <trkpt lat="41.658843228" lon="2.524223186">
        <ele>337.08</ele>
        <time>2013-06-16T10:10:46Z</time>
      </trkpt>
      <trkpt lat="41.658699897" lon="2.524073988">
        <ele>338.52</ele>
        <time>2013-06-16T10:10:55Z</time>
      </trkpt>
      <trkpt lat="41.658568804" lon="2.523937615">
        <ele>339.96</ele>
        <time>2013-06-16T10:11:04Z</time>
      </trkpt>
      <trkpt lat="41.658523793" lon="2.523848599">
        <ele>341.41</ele>
        <time>2013-06-16T10:11:09Z</time>
      </trkpt>
      <trkpt lat="41.658490936" lon="2.523715243">
        <ele>342.37</ele>
        <time>2013-06-16T10:11:16Z</time>
      </trkpt>
      <trkpt lat="41.658471742" lon="2.523535535">
        <ele>343.81</ele>
        <time>2013-06-16T10:11:24Z</time>
      </trkpt>
      <trkpt lat="41.658449865" lon="2.523330597">
        <ele>344.77</ele>
        <time>2013-06-16T10:11:32Z</time>
      </trkpt>
      <trkpt lat="41.658370404" lon="2.523086181">
        <ele>346.21</ele>
        <time>2013-06-16T10:11:42Z</time>
      </trkpt>
      <trkpt lat="41.658314162" lon="2.522885183">
        <ele>346.69</ele>
        <time>2013-06-16T10:11:50Z</time>
      </trkpt>
      <trkpt lat="41.658273174" lon="2.522745038">
        <ele>347.65</ele>
        <time>2013-06-16T10:11:56Z</time>
      </trkpt>
      <trkpt lat="41.658219195" lon="2.522561558">
        <ele>348.13</ele>
        <time>2013-06-16T10:12:03Z</time>
      </trkpt>
      <trkpt lat="41.658182734" lon="2.522343712">
        <ele>348.62</ele>
        <time>2013-06-16T10:12:11Z</time>
      </trkpt>
      <trkpt lat="41.658178878" lon="2.522144307">
        <ele>349.58</ele>
        <time>2013-06-16T10:12:18Z</time>
      </trkpt>
      <trkpt lat="41.658179549" lon="2.521927131">
        <ele>350.54</ele>
        <time>2013-06-16T10:12:26Z</time>
      </trkpt>
      <trkpt lat="41.658205365" lon="2.521656647">
        <ele>352.46</ele>
        <time>2013-06-16T10:12:36Z</time>
      </trkpt>
      <trkpt lat="41.658218189" lon="2.521466546">
        <ele>354.86</ele>
        <time>2013-06-16T10:12:44Z</time>
      </trkpt>
      <trkpt lat="41.658239060" lon="2.521242079">
        <ele>356.31</ele>
        <time>2013-06-16T10:12:53Z</time>
      </trkpt>
      <trkpt lat="41.658290776" lon="2.521020461">
        <ele>358.71</ele>
        <time>2013-06-16T10:13:02Z</time>
      </trkpt>
      <trkpt lat="41.658347187" lon="2.520743523">
        <ele>360.15</ele>
        <time>2013-06-16T10:13:12Z</time>
      </trkpt>
      <trkpt lat="41.658314078" lon="2.520514865">
        <ele>361.11</ele>
        <time>2013-06-16T10:13:20Z</time>
      </trkpt>
      <trkpt lat="41.658342744" lon="2.520257540">
        <ele>361.11</ele>
        <time>2013-06-16T10:13:28Z</time>
      </trkpt>
      <trkpt lat="41.658367303" lon="2.520055117">
        <ele>361.59</ele>
        <time>2013-06-16T10:13:35Z</time>
      </trkpt>
      <trkpt lat="41.658310641" lon="2.519913631">
        <ele>363.04</ele>
        <time>2013-06-16T10:13:41Z</time>
      </trkpt>
      <trkpt lat="41.658228834" lon="2.519774407">
        <ele>363.52</ele>
        <time>2013-06-16T10:13:47Z</time>
      </trkpt>
      <trkpt lat="41.658114086" lon="2.519653959">
        <ele>363.52</ele>
        <time>2013-06-16T10:13:51Z</time>
      </trkpt>
      <trkpt lat="41.657968911" lon="2.519480957">
        <ele>362.07</ele>
        <time>2013-06-16T10:13:55Z</time>
      </trkpt>
      <trkpt lat="41.657933204" lon="2.519435778">
        <ele>362.07</ele>
        <time>2013-06-16T10:13:56Z</time>
      </trkpt>
      <trkpt lat="41.657794065" lon="2.519192536">
        <ele>361.59</ele>
        <time>2013-06-16T10:14:02Z</time>
      </trkpt>
      <trkpt lat="41.657632126" lon="2.518943761">
        <ele>361.59</ele>
        <time>2013-06-16T10:14:09Z</time>
      </trkpt>
      <trkpt lat="41.657481336" lon="2.518727005">
        <ele>361.59</ele>
        <time>2013-06-16T10:14:15Z</time>
      </trkpt>
      <trkpt lat="41.657459459" lon="2.518689454">
        <ele>361.59</ele>
        <time>2013-06-16T10:14:16Z</time>
      </trkpt>
      <trkpt lat="41.657300790" lon="2.518469429">
        <ele>361.11</ele>
        <time>2013-06-16T10:14:21Z</time>
      </trkpt>
      <trkpt lat="41.657265418" lon="2.518406313">
        <ele>360.63</ele>
        <time>2013-06-16T10:14:23Z</time>
      </trkpt>
      <trkpt lat="41.657099289" lon="2.518228952">
        <ele>357.27</ele>
        <time>2013-06-16T10:14:31Z</time>
      </trkpt>
      <trkpt lat="41.656976662" lon="2.518139517">
        <ele>354.38</ele>
        <time>2013-06-16T10:14:36Z</time>
      </trkpt>
      <trkpt lat="41.656897788" lon="2.518088974">
        <ele>352.46</ele>
        <time>2013-06-16T10:14:39Z</time>
      </trkpt>
      <trkpt lat="41.656791002" lon="2.518031810">
        <ele>349.10</ele>
        <time>2013-06-16T10:14:44Z</time>
      </trkpt>
      <trkpt lat="41.656764683" lon="2.517943883">
        <ele>347.17</ele>
        <time>2013-06-16T10:14:48Z</time>
      </trkpt>
      <trkpt lat="41.656842635" lon="2.517926030">
        <ele>345.73</ele>
        <time>2013-06-16T10:14:53Z</time>
      </trkpt>
      <trkpt lat="41.656878090" lon="2.517906835">
        <ele>343.81</ele>
        <time>2013-06-16T10:14:55Z</time>
      </trkpt>
      <trkpt lat="41.656949337" lon="2.517834164">
        <ele>342.37</ele>
        <time>2013-06-16T10:15:00Z</time>
      </trkpt>
      <trkpt lat="41.657036676" lon="2.517766858">
        <ele>339.96</ele>
        <time>2013-06-16T10:15:04Z</time>
      </trkpt>
      <trkpt lat="41.657222168" lon="2.517756548">
        <ele>339.00</ele>
        <time>2013-06-16T10:15:11Z</time>
      </trkpt>
      <trkpt lat="41.657319984" lon="2.517784124">
        <ele>338.04</ele>
        <time>2013-06-16T10:15:15Z</time>
      </trkpt>
      <trkpt lat="41.657347393" lon="2.517763840">
        <ele>336.60</ele>
        <time>2013-06-16T10:15:18Z</time>
      </trkpt>
      <trkpt lat="41.657342951" lon="2.517742299">
        <ele>336.60</ele>
        <time>2013-06-16T10:15:20Z</time>
      </trkpt>
      <trkpt lat="41.657235662" lon="2.517634926">
        <ele>335.16</ele>
        <time>2013-06-16T10:15:27Z</time>
      </trkpt>
      <trkpt lat="41.657134409" lon="2.517566782">
        <ele>334.20</ele>
        <time>2013-06-16T10:15:33Z</time>
      </trkpt>
      <trkpt lat="41.656976829" lon="2.517487824">
        <ele>330.83</ele>
        <time>2013-06-16T10:15:39Z</time>
      </trkpt>
      <trkpt lat="41.656894854" lon="2.517458404">
        <ele>329.39</ele>
        <time>2013-06-16T10:15:42Z</time>
      </trkpt>
      <trkpt lat="41.656808856" lon="2.517435689">
        <ele>328.43</ele>
        <time>2013-06-16T10:15:44Z</time>
      </trkpt>
      <trkpt lat="41.656558740" lon="2.517338542">
        <ele>326.50</ele>
        <time>2013-06-16T10:15:49Z</time>
      </trkpt>
      <trkpt lat="41.656099160" lon="2.516972505">
        <ele>324.10</ele>
        <time>2013-06-16T10:15:59Z</time>
      </trkpt>
      <trkpt lat="41.656011653" lon="2.516890949">
        <ele>324.10</ele>
        <time>2013-06-16T10:16:01Z</time>
      </trkpt>
      <trkpt lat="41.655859941" lon="2.516808471">
        <ele>321.70</ele>
        <time>2013-06-16T10:16:05Z</time>
      </trkpt>
      <trkpt lat="41.655789449" lon="2.516788522">
        <ele>320.74</ele>
        <time>2013-06-16T10:16:07Z</time>
      </trkpt>
      <trkpt lat="41.655726668" lon="2.516848117">
        <ele>319.78</ele>
        <time>2013-06-16T10:16:12Z</time>
      </trkpt>
      <trkpt lat="41.655747875" lon="2.516940067">
        <ele>320.26</ele>
        <time>2013-06-16T10:16:18Z</time>
      </trkpt>
      <trkpt lat="41.655760867" lon="2.516980384">
        <ele>320.26</ele>
        <time>2013-06-16T10:16:20Z</time>
      </trkpt>
      <trkpt lat="41.655799423" lon="2.517125642">
        <ele>320.26</ele>
        <time>2013-06-16T10:16:27Z</time>
      </trkpt>
      <trkpt lat="41.655813756" lon="2.517233769">
        <ele>319.78</ele>
        <time>2013-06-16T10:16:33Z</time>
      </trkpt>
      <trkpt lat="41.655826497" lon="2.517434264">
        <ele>319.30</ele>
        <time>2013-06-16T10:16:41Z</time>
      </trkpt>
      <trkpt lat="41.655797915" lon="2.517592179">
        <ele>319.30</ele>
        <time>2013-06-16T10:16:47Z</time>
      </trkpt>
      <trkpt lat="41.655654165" lon="2.517690247">
        <ele>318.81</ele>
        <time>2013-06-16T10:16:54Z</time>
      </trkpt>
      <trkpt lat="41.655536148" lon="2.517743807">
        <ele>320.26</ele>
        <time>2013-06-16T10:17:00Z</time>
      </trkpt>
      <trkpt lat="41.655396002" lon="2.517849168">
        <ele>321.70</ele>
        <time>2013-06-16T10:17:08Z</time>
      </trkpt>
      <trkpt lat="41.655271782" lon="2.517989397">
        <ele>322.66</ele>
        <time>2013-06-16T10:17:15Z</time>
      </trkpt>
      <trkpt lat="41.655228197" lon="2.518109594">
        <ele>324.58</ele>
        <time>2013-06-16T10:17:21Z</time>
      </trkpt>
      <trkpt lat="41.655230460" lon="2.518254433">
        <ele>326.02</ele>
        <time>2013-06-16T10:17:27Z</time>
      </trkpt>
      <trkpt lat="41.655265748" lon="2.518423244">
        <ele>328.43</ele>
        <time>2013-06-16T10:17:35Z</time>
      </trkpt>
      <trkpt lat="41.655321068" lon="2.518529108">
        <ele>329.39</ele>
        <time>2013-06-16T10:17:41Z</time>
      </trkpt>
      <trkpt lat="41.655383178" lon="2.518692806">
        <ele>331.31</ele>
        <time>2013-06-16T10:17:49Z</time>
      </trkpt>
      <trkpt lat="41.655389129" lon="2.518739075">
        <ele>331.79</ele>
        <time>2013-06-16T10:17:51Z</time>
      </trkpt>
      <trkpt lat="41.655364989" lon="2.518888943">
        <ele>332.75</ele>
        <time>2013-06-16T10:17:59Z</time>
      </trkpt>
      <trkpt lat="41.655322996" lon="2.518949796">
        <ele>332.75</ele>
        <time>2013-06-16T10:18:04Z</time>
      </trkpt>
      <trkpt lat="41.655262395" lon="2.519039901">
        <ele>332.75</ele>
        <time>2013-06-16T10:18:10Z</time>
      </trkpt>
      <trkpt lat="41.655245380" lon="2.519226566">
        <ele>334.20</ele>
        <time>2013-06-16T10:18:19Z</time>
      </trkpt>
      <trkpt lat="41.655202380" lon="2.519420775">
        <ele>335.16</ele>
        <time>2013-06-16T10:18:28Z</time>
      </trkpt>
      <trkpt lat="41.655179246" lon="2.519627975">
        <ele>335.16</ele>
        <time>2013-06-16T10:18:34Z</time>
      </trkpt>
      <trkpt lat="41.655184862" lon="2.519710537">
        <ele>335.16</ele>
        <time>2013-06-16T10:18:37Z</time>
      </trkpt>
      <trkpt lat="41.655214534" lon="2.519929221">
        <ele>335.16</ele>
        <time>2013-06-16T10:18:45Z</time>
      </trkpt>
      <trkpt lat="41.655196094" lon="2.520210602">
        <ele>335.16</ele>
        <time>2013-06-16T10:18:54Z</time>
      </trkpt>
      <trkpt lat="41.655186706" lon="2.520301797">
        <ele>335.16</ele>
        <time>2013-06-16T10:18:57Z</time>
      </trkpt>
      <trkpt lat="41.655046561" lon="2.520388214">
        <ele>332.75</ele>
        <time>2013-06-16T10:19:03Z</time>
      </trkpt>
      <trkpt lat="41.654957880" lon="2.520398943">
        <ele>331.31</ele>
        <time>2013-06-16T10:19:05Z</time>
      </trkpt>
      <trkpt lat="41.654762750" lon="2.520389723">
        <ele>329.87</ele>
        <time>2013-06-16T10:19:09Z</time>
      </trkpt>
      <trkpt lat="41.654522357" lon="2.520303641">
        <ele>328.91</ele>
        <time>2013-06-16T10:19:14Z</time>
      </trkpt>
      <trkpt lat="41.654318509" lon="2.520030726">
        <ele>327.47</ele>
        <time>2013-06-16T10:19:19Z</time>
      </trkpt>
      <trkpt lat="41.654114242" lon="2.519884545">
        <ele>326.99</ele>
        <time>2013-06-16T10:19:24Z</time>
      </trkpt>
      <trkpt lat="41.653741415" lon="2.519894101">
        <ele>322.66</ele>
        <time>2013-06-16T10:19:32Z</time>
      </trkpt>
      <trkpt lat="41.653607388" lon="2.519862082">
        <ele>319.78</ele>
        <time>2013-06-16T10:19:36Z</time>
      </trkpt>
      <trkpt lat="41.653496412" lon="2.519819753">
        <ele>317.85</ele>
        <time>2013-06-16T10:19:39Z</time>
      </trkpt>
      <trkpt lat="41.653338748" lon="2.519744903">
        <ele>316.41</ele>
        <time>2013-06-16T10:19:42Z</time>
      </trkpt>
      <trkpt lat="41.653213941" lon="2.519701904">
        <ele>315.45</ele>
        <time>2013-06-16T10:19:44Z</time>
      </trkpt>
      <trkpt lat="41.652969441" lon="2.519597801">
        <ele>313.05</ele>
        <time>2013-06-16T10:19:49Z</time>
      </trkpt>
      <trkpt lat="41.652950079" lon="2.519565782">
        <ele>312.57</ele>
        <time>2013-06-16T10:19:51Z</time>
      </trkpt>
      <trkpt lat="41.652934656" lon="2.519502247">
        <ele>311.60</ele>
        <time>2013-06-16T10:19:55Z</time>
      </trkpt>
      <trkpt lat="41.652927951" lon="2.519461343">
        <ele>311.12</ele>
        <time>2013-06-16T10:19:57Z</time>
      </trkpt>
      <trkpt lat="41.652903140" lon="2.519366879">
        <ele>310.16</ele>
        <time>2013-06-16T10:20:03Z</time>
      </trkpt>
      <trkpt lat="41.652870367" lon="2.519215251">
        <ele>308.24</ele>
        <time>2013-06-16T10:20:09Z</time>
      </trkpt>
      <trkpt lat="41.652841701" lon="2.519041494">
        <ele>306.80</ele>
        <time>2013-06-16T10:20:15Z</time>
      </trkpt>
      <trkpt lat="41.652782022" lon="2.518726166">
        <ele>304.39</ele>
        <time>2013-06-16T10:20:21Z</time>
      </trkpt>
      <trkpt lat="41.652692671" lon="2.518505136">
        <ele>303.43</ele>
        <time>2013-06-16T10:20:27Z</time>
      </trkpt>
      <trkpt lat="41.652637602" lon="2.518430956">
        <ele>302.47</ele>
        <time>2013-06-16T10:20:32Z</time>
      </trkpt>
      <trkpt lat="41.652536851" lon="2.518368594">
        <ele>300.55</ele>
        <time>2013-06-16T10:20:38Z</time>
      </trkpt>
      <trkpt lat="41.652494607" lon="2.518374965">
        <ele>299.59</ele>
        <time>2013-06-16T10:20:40Z</time>
      </trkpt>
      <trkpt lat="41.652436604" lon="2.518393992">
        <ele>298.63</ele>
        <time>2013-06-16T10:20:43Z</time>
      </trkpt>
      <trkpt lat="41.652368627" lon="2.518346802">
        <ele>296.22</ele>
        <time>2013-06-16T10:20:50Z</time>
      </trkpt>
      <trkpt lat="41.652355635" lon="2.518308245">
        <ele>295.74</ele>
        <time>2013-06-16T10:20:58Z</time>
      </trkpt>
      <trkpt lat="41.652326466" lon="2.518278321">
        <ele>295.74</ele>
        <time>2013-06-16T10:21:04Z</time>
      </trkpt>
      <trkpt lat="41.652317665" lon="2.518252840">
        <ele>294.78</ele>
        <time>2013-06-16T10:21:08Z</time>
      </trkpt>
      <trkpt lat="41.652226972" lon="2.518145636">
        <ele>293.82</ele>
        <time>2013-06-16T10:21:15Z</time>
      </trkpt>
      <trkpt lat="41.652073081" lon="2.517994175">
        <ele>291.90</ele>
        <time>2013-06-16T10:21:20Z</time>
      </trkpt>
      <trkpt lat="41.651917932" lon="2.517856963">
        <ele>290.94</ele>
        <time>2013-06-16T10:21:24Z</time>
      </trkpt>
      <trkpt lat="41.651667480" lon="2.517776581">
        <ele>290.94</ele>
        <time>2013-06-16T10:21:31Z</time>
      </trkpt>
      <trkpt lat="41.651525156" lon="2.517639117">
        <ele>290.46</ele>
        <time>2013-06-16T10:21:36Z</time>
      </trkpt>
      <trkpt lat="41.651474864" lon="2.517504672">
        <ele>288.53</ele>
        <time>2013-06-16T10:21:41Z</time>
      </trkpt>
      <trkpt lat="41.651480061" lon="2.517406771">
        <ele>287.09</ele>
        <time>2013-06-16T10:21:45Z</time>
      </trkpt>
      <trkpt lat="41.651409737" lon="2.517377099">
        <ele>283.73</ele>
        <time>2013-06-16T10:21:51Z</time>
      </trkpt>
      <trkpt lat="41.651318206" lon="2.517369891">
        <ele>281.32</ele>
        <time>2013-06-16T10:21:56Z</time>
      </trkpt>
      <trkpt lat="41.651282919" lon="2.517358491">
        <ele>280.36</ele>
        <time>2013-06-16T10:21:58Z</time>
      </trkpt>
      <trkpt lat="41.651189879" lon="2.517342817">
        <ele>277.00</ele>
        <time>2013-06-16T10:22:04Z</time>
      </trkpt>
      <trkpt lat="41.651178564" lon="2.517342230">
        <ele>277.00</ele>
        <time>2013-06-16T10:22:05Z</time>
      </trkpt>
      <trkpt lat="41.651101786" lon="2.517298980">
        <ele>274.59</ele>
        <time>2013-06-16T10:22:10Z</time>
      </trkpt>
      <trkpt lat="41.651063648" lon="2.517273750">
        <ele>274.11</ele>
        <time>2013-06-16T10:22:13Z</time>
      </trkpt>
      <trkpt lat="41.650939093" lon="2.517211389">
        <ele>272.67</ele>
        <time>2013-06-16T10:22:20Z</time>
      </trkpt>
      <trkpt lat="41.650875810" lon="2.517182639">
        <ele>271.71</ele>
        <time>2013-06-16T10:22:23Z</time>
      </trkpt>
      <trkpt lat="41.650836498" lon="2.517169563">
        <ele>270.75</ele>
        <time>2013-06-16T10:22:30Z</time>
      </trkpt>
      <trkpt lat="41.650764414" lon="2.517140646">
        <ele>270.75</ele>
        <time>2013-06-16T10:22:40Z</time>
      </trkpt>
      <trkpt lat="41.650654946" lon="2.517083313">
        <ele>269.79</ele>
        <time>2013-06-16T10:22:47Z</time>
      </trkpt>
      <trkpt lat="41.650545814" lon="2.516995220">
        <ele>268.83</ele>
        <time>2013-06-16T10:22:54Z</time>
      </trkpt>
      <trkpt lat="41.650451434" lon="2.516858846">
        <ele>268.35</ele>
        <time>2013-06-16T10:23:01Z</time>
      </trkpt>
      <trkpt lat="41.650339619" lon="2.516694309">
        <ele>268.35</ele>
        <time>2013-06-16T10:23:08Z</time>
      </trkpt>
      <trkpt lat="41.650211795" lon="2.516504292">
        <ele>267.38</ele>
        <time>2013-06-16T10:23:13Z</time>
      </trkpt>
      <trkpt lat="41.650180615" lon="2.516456096">
        <ele>267.38</ele>
        <time>2013-06-16T10:23:14Z</time>
      </trkpt>
      <trkpt lat="41.650032339" lon="2.516255433">
        <ele>265.94</ele>
        <time>2013-06-16T10:23:18Z</time>
      </trkpt>
      <trkpt lat="41.649899402" lon="2.516104642">
        <ele>265.46</ele>
        <time>2013-06-16T10:23:21Z</time>
      </trkpt>
      <trkpt lat="41.649699577" lon="2.515832733">
        <ele>265.46</ele>
        <time>2013-06-16T10:23:28Z</time>
      </trkpt>
      <trkpt lat="41.649631851" lon="2.515724691">
        <ele>267.38</ele>
        <time>2013-06-16T10:23:32Z</time>
      </trkpt>
      <trkpt lat="41.649548535" lon="2.515525621">
        <ele>269.79</ele>
        <time>2013-06-16T10:23:39Z</time>
      </trkpt>
      <trkpt lat="41.649486425" lon="2.515258154">
        <ele>270.27</ele>
        <time>2013-06-16T10:23:47Z</time>
      </trkpt>
      <trkpt lat="41.649457340" lon="2.515111806">
        <ele>270.27</ele>
        <time>2013-06-16T10:23:50Z</time>
      </trkpt>
      <trkpt lat="41.649427668" lon="2.514996722">
        <ele>268.83</ele>
        <time>2013-06-16T10:23:52Z</time>
      </trkpt>
      <trkpt lat="41.649337060" lon="2.514784493">
        <ele>266.90</ele>
        <time>2013-06-16T10:23:56Z</time>
      </trkpt>
      <trkpt lat="41.649297832" lon="2.514742416">
        <ele>266.90</ele>
        <time>2013-06-16T10:23:57Z</time>
      </trkpt>
      <trkpt lat="41.649245781" lon="2.514714504">
        <ele>265.94</ele>
        <time>2013-06-16T10:23:58Z</time>
      </trkpt>
      <trkpt lat="41.649064732" lon="2.514647784">
        <ele>264.98</ele>
        <time>2013-06-16T10:24:01Z</time>
      </trkpt>
      <trkpt lat="41.648961886" lon="2.514589446">
        <ele>264.02</ele>
        <time>2013-06-16T10:24:03Z</time>
      </trkpt>
      <trkpt lat="41.648853843" lon="2.514599001">
        <ele>263.54</ele>
        <time>2013-06-16T10:24:07Z</time>
      </trkpt>
      <trkpt lat="41.648779663" lon="2.514654657">
        <ele>263.06</ele>
        <time>2013-06-16T10:24:11Z</time>
      </trkpt>
      <trkpt lat="41.648709591" lon="2.514710648">
        <ele>263.06</ele>
        <time>2013-06-16T10:24:17Z</time>
      </trkpt>
      <trkpt lat="41.648674051" lon="2.514742416">
        <ele>262.58</ele>
        <time>2013-06-16T10:24:25Z</time>
      </trkpt>
      <trkpt lat="41.648593417" lon="2.514801843">
        <ele>260.17</ele>
        <time>2013-06-16T10:24:31Z</time>
      </trkpt>
      <trkpt lat="41.648402226" lon="2.514870826">
        <ele>257.29</ele>
        <time>2013-06-16T10:24:38Z</time>
      </trkpt>
      <trkpt lat="41.648244982" lon="2.514939474">
        <ele>253.93</ele>
        <time>2013-06-16T10:24:44Z</time>
      </trkpt>
      <trkpt lat="41.648222350" lon="2.514954981">
        <ele>253.93</ele>
        <time>2013-06-16T10:24:45Z</time>
      </trkpt>
      <trkpt lat="41.648116236" lon="2.515071908">
        <ele>250.08</ele>
        <time>2013-06-16T10:24:51Z</time>
      </trkpt>
      <trkpt lat="41.648005343" lon="2.515180789">
        <ele>247.20</ele>
        <time>2013-06-16T10:24:57Z</time>
      </trkpt>
      <trkpt lat="41.647967708" lon="2.515218843">
        <ele>246.23</ele>
        <time>2013-06-16T10:24:59Z</time>
      </trkpt>
      <trkpt lat="41.647874250" lon="2.515330574">
        <ele>242.87</ele>
        <time>2013-06-16T10:25:04Z</time>
      </trkpt>
      <trkpt lat="41.647807195" lon="2.515440460">
        <ele>240.47</ele>
        <time>2013-06-16T10:25:08Z</time>
      </trkpt>
      <trkpt lat="41.647740391" lon="2.515541546">
        <ele>238.06</ele>
        <time>2013-06-16T10:25:14Z</time>
      </trkpt>
      <trkpt lat="41.647694039" lon="2.515592005">
        <ele>237.10</ele>
        <time>2013-06-16T10:25:17Z</time>
      </trkpt>
      <trkpt lat="41.647638886" lon="2.515625449">
        <ele>235.18</ele>
        <time>2013-06-16T10:25:21Z</time>
      </trkpt>
      <trkpt lat="41.647567389" lon="2.515621677">
        <ele>233.74</ele>
        <time>2013-06-16T10:25:24Z</time>
      </trkpt>
      <trkpt lat="41.647408216" lon="2.515623018">
        <ele>230.37</ele>
        <time>2013-06-16T10:25:29Z</time>
      </trkpt>
      <trkpt lat="41.647352057" lon="2.515618157">
        <ele>229.89</ele>
        <time>2013-06-16T10:25:31Z</time>
      </trkpt>
      <trkpt lat="41.647287433" lon="2.515614888">
        <ele>229.41</ele>
        <time>2013-06-16T10:25:37Z</time>
      </trkpt>
      <trkpt lat="41.647276034" lon="2.515637770">
        <ele>228.93</ele>
        <time>2013-06-16T10:25:45Z</time>
      </trkpt>
      <trkpt lat="41.647249631" lon="2.515801972">
        <ele>228.93</ele>
        <time>2013-06-16T10:25:52Z</time>
      </trkpt>
      <trkpt lat="41.647268741" lon="2.516064745">
        <ele>228.93</ele>
        <time>2013-06-16T10:26:01Z</time>
      </trkpt>
      <trkpt lat="41.647286679" lon="2.516349813">
        <ele>228.93</ele>
        <time>2013-06-16T10:26:09Z</time>
      </trkpt>
      <trkpt lat="41.647296150" lon="2.516559528">
        <ele>228.93</ele>
        <time>2013-06-16T10:26:16Z</time>
      </trkpt>
      <trkpt lat="41.647296402" lon="2.516698416">
        <ele>229.89</ele>
        <time>2013-06-16T10:26:21Z</time>
      </trkpt>
      <trkpt lat="41.647299922" lon="2.516863121">
        <ele>229.89</ele>
        <time>2013-06-16T10:26:27Z</time>
      </trkpt>
      <trkpt lat="41.647285840" lon="2.517070238">
        <ele>230.37</ele>
        <time>2013-06-16T10:26:34Z</time>
      </trkpt>
      <trkpt lat="41.647194059" lon="2.517225051">
        <ele>230.37</ele>
        <time>2013-06-16T10:26:41Z</time>
      </trkpt>
      <trkpt lat="41.647185844" lon="2.517373579">
        <ele>230.37</ele>
        <time>2013-06-16T10:26:46Z</time>
      </trkpt>
      <trkpt lat="41.647186347" lon="2.517610032">
        <ele>231.81</ele>
        <time>2013-06-16T10:26:54Z</time>
      </trkpt>
      <trkpt lat="41.647164303" lon="2.517874733">
        <ele>232.30</ele>
        <time>2013-06-16T10:27:02Z</time>
      </trkpt>
      <trkpt lat="41.647117951" lon="2.518078748">
        <ele>232.78</ele>
        <time>2013-06-16T10:27:10Z</time>
      </trkpt>
      <trkpt lat="41.647071515" lon="2.518272203">
        <ele>233.74</ele>
        <time>2013-06-16T10:27:17Z</time>
      </trkpt>
      <trkpt lat="41.647010495" lon="2.518451156">
        <ele>234.22</ele>
        <time>2013-06-16T10:27:24Z</time>
      </trkpt>
      <trkpt lat="41.646944278" lon="2.518642096">
        <ele>235.66</ele>
        <time>2013-06-16T10:27:31Z</time>
      </trkpt>
      <trkpt lat="41.646888287" lon="2.518875951">
        <ele>236.14</ele>
        <time>2013-06-16T10:27:37Z</time>
      </trkpt>
      <trkpt lat="41.646896250" lon="2.519133862">
        <ele>237.10</ele>
        <time>2013-06-16T10:27:44Z</time>
      </trkpt>
      <trkpt lat="41.646906475" lon="2.519316001">
        <ele>237.58</ele>
        <time>2013-06-16T10:27:50Z</time>
      </trkpt>
      <trkpt lat="41.646876720" lon="2.519560082">
        <ele>238.54</ele>
        <time>2013-06-16T10:27:57Z</time>
      </trkpt>
      <trkpt lat="41.646813101" lon="2.519832662">
        <ele>239.02</ele>
        <time>2013-06-16T10:28:06Z</time>
      </trkpt>
      <trkpt lat="41.646775383" lon="2.520011867">
        <ele>240.47</ele>
        <time>2013-06-16T10:28:12Z</time>
      </trkpt>
      <trkpt lat="41.646723582" lon="2.520321997">
        <ele>241.91</ele>
        <time>2013-06-16T10:28:21Z</time>
      </trkpt>
      <trkpt lat="41.646663987" lon="2.520588961">
        <ele>243.35</ele>
        <time>2013-06-16T10:28:29Z</time>
      </trkpt>
      <trkpt lat="41.646600620" lon="2.520820050">
        <ele>244.31</ele>
        <time>2013-06-16T10:28:36Z</time>
      </trkpt>
      <trkpt lat="41.646559381" lon="2.521193128">
        <ele>244.31</ele>
        <time>2013-06-16T10:28:45Z</time>
      </trkpt>
      <trkpt lat="41.646525518" lon="2.521437628">
        <ele>243.35</ele>
        <time>2013-06-16T10:28:50Z</time>
      </trkpt>
      <trkpt lat="41.646471539" lon="2.521791764">
        <ele>242.87</ele>
        <time>2013-06-16T10:28:58Z</time>
      </trkpt>
      <trkpt lat="41.646412195" lon="2.522251930">
        <ele>243.35</ele>
        <time>2013-06-16T10:29:09Z</time>
      </trkpt>
      <trkpt lat="41.646386546" lon="2.522525432">
        <ele>244.31</ele>
        <time>2013-06-16T10:29:16Z</time>
      </trkpt>
      <trkpt lat="41.646356371" lon="2.522718886">
        <ele>244.79</ele>
        <time>2013-06-16T10:29:22Z</time>
      </trkpt>
      <trkpt lat="41.646301470" lon="2.522895409">
        <ele>246.23</ele>
        <time>2013-06-16T10:29:29Z</time>
      </trkpt>
      <trkpt lat="41.646241288" lon="2.523118284">
        <ele>246.72</ele>
        <time>2013-06-16T10:29:36Z</time>
      </trkpt>
      <trkpt lat="41.646227458" lon="2.523463786">
        <ele>246.72</ele>
        <time>2013-06-16T10:29:43Z</time>
      </trkpt>
      <trkpt lat="41.646279258" lon="2.523839630">
        <ele>246.72</ele>
        <time>2013-06-16T10:29:50Z</time>
      </trkpt>
      <trkpt lat="41.646351677" lon="2.524198879">
        <ele>246.72</ele>
        <time>2013-06-16T10:29:57Z</time>
      </trkpt>
      <trkpt lat="41.646415380" lon="2.524633145">
        <ele>246.72</ele>
        <time>2013-06-16T10:30:06Z</time>
      </trkpt>
      <trkpt lat="41.646450332" lon="2.524956938">
        <ele>246.72</ele>
        <time>2013-06-16T10:30:13Z</time>
      </trkpt>
      <trkpt lat="41.646491487" lon="2.525282407">
        <ele>246.72</ele>
        <time>2013-06-16T10:30:20Z</time>
      </trkpt>
      <trkpt lat="41.646532726" lon="2.525662527">
        <ele>247.68</ele>
        <time>2013-06-16T10:30:29Z</time>
      </trkpt>
      <trkpt lat="41.646512861" lon="2.525919516">
        <ele>248.16</ele>
        <time>2013-06-16T10:30:36Z</time>
      </trkpt>
      <trkpt lat="41.646449829" lon="2.526105510">
        <ele>249.60</ele>
        <time>2013-06-16T10:30:42Z</time>
      </trkpt>
      <trkpt lat="41.646376572" lon="2.526378425">
        <ele>249.60</ele>
        <time>2013-06-16T10:30:49Z</time>
      </trkpt>
      <trkpt lat="41.646401885" lon="2.526710181">
        <ele>250.56</ele>
        <time>2013-06-16T10:30:57Z</time>
      </trkpt>
      <trkpt lat="41.646477490" lon="2.527005224">
        <ele>251.04</ele>
        <time>2013-06-16T10:31:05Z</time>
      </trkpt>
      <trkpt lat="41.646519986" lon="2.527261375">
        <ele>252.00</ele>
        <time>2013-06-16T10:31:12Z</time>
      </trkpt>
      <trkpt lat="41.646556950" lon="2.527518699">
        <ele>252.96</ele>
        <time>2013-06-16T10:31:19Z</time>
      </trkpt>
      <trkpt lat="41.646603134" lon="2.527849030">
        <ele>253.93</ele>
        <time>2013-06-16T10:31:28Z</time>
      </trkpt>
      <trkpt lat="41.646646385" lon="2.528146420">
        <ele>254.89</ele>
        <time>2013-06-16T10:31:36Z</time>
      </trkpt>
      <trkpt lat="41.646695000" lon="2.528478092">
        <ele>255.85</ele>
        <time>2013-06-16T10:31:45Z</time>
      </trkpt>
      <trkpt lat="41.646762391" lon="2.528762071">
        <ele>256.33</ele>
        <time>2013-06-16T10:31:52Z</time>
      </trkpt>
      <trkpt lat="41.646864734" lon="2.529108159">
        <ele>257.29</ele>
        <time>2013-06-16T10:32:01Z</time>
      </trkpt>
      <trkpt lat="41.646983589" lon="2.529427761">
        <ele>258.73</ele>
        <time>2013-06-16T10:32:10Z</time>
      </trkpt>
      <trkpt lat="41.647098002" lon="2.529661700">
        <ele>259.21</ele>
        <time>2013-06-16T10:32:17Z</time>
      </trkpt>
      <trkpt lat="41.647193556" lon="2.529917181">
        <ele>259.21</ele>
        <time>2013-06-16T10:32:23Z</time>
      </trkpt>
      <trkpt lat="41.647223060" lon="2.530212810">
        <ele>259.21</ele>
        <time>2013-06-16T10:32:30Z</time>
      </trkpt>
      <trkpt lat="41.647253570" lon="2.530601563">
        <ele>260.17</ele>
        <time>2013-06-16T10:32:40Z</time>
      </trkpt>
      <trkpt lat="41.647264299" lon="2.530752773">
        <ele>260.17</ele>
        <time>2013-06-16T10:32:46Z</time>
      </trkpt>
      <trkpt lat="41.647290870" lon="2.530920578">
        <ele>260.17</ele>
        <time>2013-06-16T10:32:53Z</time>
      </trkpt>
      <trkpt lat="41.647281817" lon="2.531106489">
        <ele>261.14</ele>
        <time>2013-06-16T10:33:00Z</time>
      </trkpt>
      <trkpt lat="41.647263377" lon="2.531258956">
        <ele>261.62</ele>
        <time>2013-06-16T10:33:06Z</time>
      </trkpt>
      <trkpt lat="41.647276285" lon="2.531422068">
        <ele>263.54</ele>
        <time>2013-06-16T10:33:13Z</time>
      </trkpt>
      <trkpt lat="41.647282152" lon="2.531625915">
        <ele>265.46</ele>
        <time>2013-06-16T10:33:20Z</time>
      </trkpt>
      <trkpt lat="41.647262790" lon="2.531806210">
        <ele>265.94</ele>
        <time>2013-06-16T10:33:26Z</time>
      </trkpt>
      <trkpt lat="41.647249714" lon="2.531998072">
        <ele>267.38</ele>
        <time>2013-06-16T10:33:33Z</time>
      </trkpt>
      <trkpt lat="41.647250301" lon="2.532214493">
        <ele>267.86</ele>
        <time>2013-06-16T10:33:40Z</time>
      </trkpt>
      <trkpt lat="41.647227670" lon="2.532453796">
        <ele>268.83</ele>
        <time>2013-06-16T10:33:48Z</time>
      </trkpt>
      <trkpt lat="41.647186683" lon="2.532697290">
        <ele>269.31</ele>
        <time>2013-06-16T10:33:56Z</time>
      </trkpt>
      <trkpt lat="41.647192801" lon="2.532947322">
        <ele>270.27</ele>
        <time>2013-06-16T10:34:03Z</time>
      </trkpt>
      <trkpt lat="41.647280476" lon="2.533170868">
        <ele>269.79</ele>
        <time>2013-06-16T10:34:10Z</time>
      </trkpt>
      <trkpt lat="41.647397487" lon="2.533307493">
        <ele>270.75</ele>
        <time>2013-06-16T10:34:16Z</time>
      </trkpt>
      <trkpt lat="41.647500417" lon="2.533495499">
        <ele>271.23</ele>
        <time>2013-06-16T10:34:23Z</time>
      </trkpt>
      <trkpt lat="41.647534699" lon="2.533713093">
        <ele>271.23</ele>
        <time>2013-06-16T10:34:30Z</time>
      </trkpt>
      <trkpt lat="41.647566215" lon="2.533867320">
        <ele>272.19</ele>
        <time>2013-06-16T10:34:37Z</time>
      </trkpt>
      <trkpt lat="41.647571160" lon="2.533929765">
        <ele>273.63</ele>
        <time>2013-06-16T10:34:40Z</time>
      </trkpt>
      <trkpt lat="41.647576441" lon="2.533950720">
        <ele>273.63</ele>
        <time>2013-06-16T10:34:41Z</time>
      </trkpt>
      <trkpt lat="41.647596725" lon="2.534130596">
        <ele>276.04</ele>
        <time>2013-06-16T10:34:49Z</time>
      </trkpt>
      <trkpt lat="41.647589517" lon="2.534293875">
        <ele>277.00</ele>
        <time>2013-06-16T10:34:56Z</time>
      </trkpt>
      <trkpt lat="41.647590523" lon="2.534332516">
        <ele>277.96</ele>
        <time>2013-06-16T10:34:58Z</time>
      </trkpt>
      <trkpt lat="41.647575268" lon="2.534408791">
        <ele>277.96</ele>
        <time>2013-06-16T10:35:02Z</time>
      </trkpt>
      <trkpt lat="41.647564455" lon="2.534572574">
        <ele>279.88</ele>
        <time>2013-06-16T10:35:11Z</time>
      </trkpt>
      <trkpt lat="41.647525311" lon="2.534685310">
        <ele>281.32</ele>
        <time>2013-06-16T10:35:19Z</time>
      </trkpt>
      <trkpt lat="41.647463202" lon="2.534820510">
        <ele>282.28</ele>
        <time>2013-06-16T10:35:27Z</time>
      </trkpt>
      <trkpt lat="41.647429255" lon="2.534912124">
        <ele>283.73</ele>
        <time>2013-06-16T10:35:33Z</time>
      </trkpt>
      <trkpt lat="41.647372174" lon="2.535031818">
        <ele>284.21</ele>
        <time>2013-06-16T10:35:40Z</time>
      </trkpt>
      <trkpt lat="41.647324230" lon="2.535187889">
        <ele>285.17</ele>
        <time>2013-06-16T10:35:48Z</time>
      </trkpt>
      <trkpt lat="41.647274357" lon="2.535341948">
        <ele>285.65</ele>
        <time>2013-06-16T10:35:56Z</time>
      </trkpt>
      <trkpt lat="41.647226832" lon="2.535516795">
        <ele>287.57</ele>
        <time>2013-06-16T10:36:06Z</time>
      </trkpt>
      <trkpt lat="41.647191209" lon="2.535627604">
        <ele>288.05</ele>
        <time>2013-06-16T10:36:12Z</time>
      </trkpt>
      <trkpt lat="41.647134212" lon="2.535766743">
        <ele>289.49</ele>
        <time>2013-06-16T10:36:21Z</time>
      </trkpt>
      <trkpt lat="41.647082663" lon="2.535887024">
        <ele>290.46</ele>
        <time>2013-06-16T10:36:28Z</time>
      </trkpt>
      <trkpt lat="41.647043017" lon="2.535979225">
        <ele>291.42</ele>
        <time>2013-06-16T10:36:34Z</time>
      </trkpt>
      <trkpt lat="41.646978979" lon="2.536059188">
        <ele>292.38</ele>
        <time>2013-06-16T10:36:41Z</time>
      </trkpt>
      <trkpt lat="41.646901698" lon="2.536131859">
        <ele>292.38</ele>
        <time>2013-06-16T10:36:48Z</time>
      </trkpt>
      <trkpt lat="41.646830033" lon="2.536218528">
        <ele>293.34</ele>
        <time>2013-06-16T10:36:55Z</time>
      </trkpt>
      <trkpt lat="41.646820226" lon="2.536232190">
        <ele>293.82</ele>
        <time>2013-06-16T10:36:56Z</time>
      </trkpt>
      <trkpt lat="41.646771946" lon="2.536277034">
        <ele>294.30</ele>
        <time>2013-06-16T10:37:00Z</time>
      </trkpt>
      <trkpt lat="41.646742861" lon="2.536325565">
        <ele>294.30</ele>
        <time>2013-06-16T10:37:03Z</time>
      </trkpt>
      <trkpt lat="41.646711093" lon="2.536356326">
        <ele>294.78</ele>
        <time>2013-06-16T10:37:06Z</time>
      </trkpt>
      <trkpt lat="41.646617384" lon="2.536515750">
        <ele>296.70</ele>
        <time>2013-06-16T10:37:16Z</time>
      </trkpt>
      <trkpt lat="41.646570110" lon="2.536605772">
        <ele>297.67</ele>
        <time>2013-06-16T10:37:21Z</time>
      </trkpt>
      <trkpt lat="41.646536582" lon="2.536724962">
        <ele>298.63</ele>
        <time>2013-06-16T10:37:28Z</time>
      </trkpt>
      <trkpt lat="41.646460726" lon="2.536867874">
        <ele>300.07</ele>
        <time>2013-06-16T10:37:38Z</time>
      </trkpt>
      <trkpt lat="41.646434323" lon="2.536972564">
        <ele>300.55</ele>
        <time>2013-06-16T10:37:44Z</time>
      </trkpt>
      <trkpt lat="41.646427282" lon="2.536981197">
        <ele>301.03</ele>
        <time>2013-06-16T10:37:45Z</time>
      </trkpt>
      <trkpt lat="41.646365843" lon="2.537108518">
        <ele>301.99</ele>
        <time>2013-06-16T10:37:54Z</time>
      </trkpt>
      <trkpt lat="41.646351091" lon="2.537136430">
        <ele>302.47</ele>
        <time>2013-06-16T10:37:56Z</time>
      </trkpt>
      <trkpt lat="41.646278419" lon="2.537211113">
        <ele>302.95</ele>
        <time>2013-06-16T10:38:03Z</time>
      </trkpt>
      <trkpt lat="41.646186302" lon="2.537280347">
        <ele>303.43</ele>
        <time>2013-06-16T10:38:11Z</time>
      </trkpt>
      <trkpt lat="41.646173897" lon="2.537287137">
        <ele>303.43</ele>
        <time>2013-06-16T10:38:12Z</time>
      </trkpt>
      <trkpt lat="41.646128300" lon="2.537348744">
        <ele>304.39</ele>
        <time>2013-06-16T10:38:17Z</time>
      </trkpt>
      <trkpt lat="41.646048588" lon="2.537422421">
        <ele>304.88</ele>
        <time>2013-06-16T10:38:23Z</time>
      </trkpt>
      <trkpt lat="41.646030315" lon="2.537453517">
        <ele>305.36</ele>
        <time>2013-06-16T10:38:25Z</time>
      </trkpt>
      <trkpt lat="41.645950519" lon="2.537632471">
        <ele>307.28</ele>
        <time>2013-06-16T10:38:37Z</time>
      </trkpt>
      <trkpt lat="41.645885141" lon="2.537740933">
        <ele>309.20</ele>
        <time>2013-06-16T10:38:46Z</time>
      </trkpt>
      <trkpt lat="41.645876926" lon="2.537765492">
        <ele>309.20</ele>
        <time>2013-06-16T10:38:48Z</time>
      </trkpt>
      <trkpt lat="41.645854044" lon="2.537805306">
        <ele>310.64</ele>
        <time>2013-06-16T10:38:52Z</time>
      </trkpt>
      <trkpt lat="41.645812637" lon="2.537883090">
        <ele>312.57</ele>
        <time>2013-06-16T10:38:59Z</time>
      </trkpt>
      <trkpt lat="41.645743319" lon="2.538005298">
        <ele>313.53</ele>
        <time>2013-06-16T10:39:08Z</time>
      </trkpt>
      <trkpt lat="41.645694201" lon="2.538122226">
        <ele>315.93</ele>
        <time>2013-06-16T10:39:17Z</time>
      </trkpt>
      <trkpt lat="41.645659500" lon="2.538249212">
        <ele>316.89</ele>
        <time>2013-06-16T10:39:26Z</time>
      </trkpt>
      <trkpt lat="41.645624882" lon="2.538398493">
        <ele>318.81</ele>
        <time>2013-06-16T10:39:37Z</time>
      </trkpt>
      <trkpt lat="41.645615159" lon="2.538519612">
        <ele>322.18</ele>
        <time>2013-06-16T10:39:46Z</time>
      </trkpt>
      <trkpt lat="41.645601832" lon="2.538579542">
        <ele>322.66</ele>
        <time>2013-06-16T10:39:51Z</time>
      </trkpt>
      <trkpt lat="41.645645251" lon="2.538707785">
        <ele>324.10</ele>
        <time>2013-06-16T10:40:00Z</time>
      </trkpt>
      <trkpt lat="41.645661092" lon="2.538737625">
        <ele>324.58</ele>
        <time>2013-06-16T10:40:03Z</time>
      </trkpt>
      <trkpt lat="41.645702080" lon="2.538865198">
        <ele>326.50</ele>
        <time>2013-06-16T10:40:12Z</time>
      </trkpt>
      <trkpt lat="41.645727645" lon="2.538982544">
        <ele>329.39</ele>
        <time>2013-06-16T10:40:21Z</time>
      </trkpt>
      <trkpt lat="41.645728064" lon="2.539083714">
        <ele>330.35</ele>
        <time>2013-06-16T10:40:29Z</time>
      </trkpt>
      <trkpt lat="41.645703421" lon="2.539170383">
        <ele>332.27</ele>
        <time>2013-06-16T10:40:38Z</time>
      </trkpt>
      <trkpt lat="41.645705684" lon="2.539298374">
        <ele>334.68</ele>
        <time>2013-06-16T10:40:47Z</time>
      </trkpt>
      <trkpt lat="41.645718005" lon="2.539390911">
        <ele>336.60</ele>
        <time>2013-06-16T10:40:54Z</time>
      </trkpt>
      <trkpt lat="41.645717419" lon="2.539494343">
        <ele>338.52</ele>
        <time>2013-06-16T10:41:02Z</time>
      </trkpt>
      <trkpt lat="41.645716497" lon="2.539542036">
        <ele>339.00</ele>
        <time>2013-06-16T10:41:05Z</time>
      </trkpt>
      <trkpt lat="41.645697805" lon="2.539652342">
        <ele>339.96</ele>
        <time>2013-06-16T10:41:14Z</time>
      </trkpt>
      <trkpt lat="41.645671067" lon="2.539735658">
        <ele>340.92</ele>
        <time>2013-06-16T10:41:21Z</time>
      </trkpt>
      <trkpt lat="41.645640054" lon="2.539840600">
        <ele>341.89</ele>
        <time>2013-06-16T10:41:29Z</time>
      </trkpt>
      <trkpt lat="41.645591355" lon="2.539942691">
        <ele>343.33</ele>
        <time>2013-06-16T10:41:37Z</time>
      </trkpt>
      <trkpt lat="41.645587415" lon="2.539955013">
        <ele>343.81</ele>
        <time>2013-06-16T10:41:38Z</time>
      </trkpt>
      <trkpt lat="41.645556570" lon="2.540064899">
        <ele>345.25</ele>
        <time>2013-06-16T10:41:46Z</time>
      </trkpt>
      <trkpt lat="41.645525892" lon="2.540123657">
        <ele>346.21</ele>
        <time>2013-06-16T10:41:51Z</time>
      </trkpt>
      <trkpt lat="41.645479037" lon="2.540135559">
        <ele>346.69</ele>
        <time>2013-06-16T10:41:55Z</time>
      </trkpt>
      <trkpt lat="41.645409887" lon="2.540151317">
        <ele>347.17</ele>
        <time>2013-06-16T10:42:01Z</time>
      </trkpt>
      <trkpt lat="41.645304191" lon="2.540139331">
        <ele>348.13</ele>
        <time>2013-06-16T10:42:11Z</time>
      </trkpt>
      <trkpt lat="41.645244093" lon="2.540113514">
        <ele>349.10</ele>
        <time>2013-06-16T10:42:17Z</time>
      </trkpt>
      <trkpt lat="41.645178295" lon="2.540086692">
        <ele>349.58</ele>
        <time>2013-06-16T10:42:23Z</time>
      </trkpt>
      <trkpt lat="41.645040664" lon="2.540033467">
        <ele>350.54</ele>
        <time>2013-06-16T10:42:33Z</time>
      </trkpt>
      <trkpt lat="41.644971932" lon="2.539988540">
        <ele>351.02</ele>
        <time>2013-06-16T10:42:39Z</time>
      </trkpt>
      <trkpt lat="41.644917701" lon="2.539966161">
        <ele>351.50</ele>
        <time>2013-06-16T10:42:44Z</time>
      </trkpt>
      <trkpt lat="41.644812341" lon="2.539917881">
        <ele>352.94</ele>
        <time>2013-06-16T10:42:52Z</time>
      </trkpt>
      <trkpt lat="41.644744280" lon="2.539875133">
        <ele>353.90</ele>
        <time>2013-06-16T10:42:58Z</time>
      </trkpt>
      <trkpt lat="41.644670016" lon="2.539858872">
        <ele>354.38</ele>
        <time>2013-06-16T10:43:03Z</time>
      </trkpt>
      <trkpt lat="41.644620144" lon="2.539895333">
        <ele>354.86</ele>
        <time>2013-06-16T10:43:07Z</time>
      </trkpt>
      <trkpt lat="41.644602877" lon="2.539920312">
        <ele>355.34</ele>
        <time>2013-06-16T10:43:09Z</time>
      </trkpt>
      <trkpt lat="41.644571696" lon="2.540019218">
        <ele>356.31</ele>
        <time>2013-06-16T10:43:16Z</time>
      </trkpt>
      <trkpt lat="41.644547976" lon="2.540136229">
        <ele>357.75</ele>
        <time>2013-06-16T10:43:24Z</time>
      </trkpt>
      <trkpt lat="41.644511766" lon="2.540262712">
        <ele>359.19</ele>
        <time>2013-06-16T10:43:33Z</time>
      </trkpt>
      <trkpt lat="41.644503216" lon="2.540303365">
        <ele>360.15</ele>
        <time>2013-06-16T10:43:36Z</time>
      </trkpt>
      <trkpt lat="41.644414619" lon="2.540414760">
        <ele>360.63</ele>
        <time>2013-06-16T10:43:44Z</time>
      </trkpt>
      <trkpt lat="41.644323257" lon="2.540419705">
        <ele>361.59</ele>
        <time>2013-06-16T10:43:52Z</time>
      </trkpt>
      <trkpt lat="41.644292747" lon="2.540319039">
        <ele>364.00</ele>
        <time>2013-06-16T10:44:00Z</time>
      </trkpt>
      <trkpt lat="41.644259638" lon="2.540226335">
        <ele>365.44</ele>
        <time>2013-06-16T10:44:06Z</time>
      </trkpt>
      <trkpt lat="41.644240863" lon="2.540165063">
        <ele>365.44</ele>
        <time>2013-06-16T10:44:10Z</time>
      </trkpt>
      <trkpt lat="41.644151176" lon="2.540029109">
        <ele>367.36</ele>
        <time>2013-06-16T10:44:22Z</time>
      </trkpt>
      <trkpt lat="41.644055958" lon="2.539909667">
        <ele>369.28</ele>
        <time>2013-06-16T10:44:32Z</time>
      </trkpt>
      <trkpt lat="41.643970882" lon="2.539796427">
        <ele>371.69</ele>
        <time>2013-06-16T10:44:41Z</time>
      </trkpt>
      <trkpt lat="41.643881530" lon="2.539716380">
        <ele>372.17</ele>
        <time>2013-06-16T10:44:48Z</time>
      </trkpt>
      <trkpt lat="41.643792096" lon="2.539645972">
        <ele>373.61</ele>
        <time>2013-06-16T10:44:55Z</time>
      </trkpt>
      <trkpt lat="41.643682209" lon="2.539574390">
        <ele>374.09</ele>
        <time>2013-06-16T10:45:02Z</time>
      </trkpt>
      <trkpt lat="41.643551283" lon="2.539490320">
        <ele>376.01</ele>
        <time>2013-06-16T10:45:11Z</time>
      </trkpt>
      <trkpt lat="41.643440642" lon="2.539434245">
        <ele>377.94</ele>
        <time>2013-06-16T10:45:19Z</time>
      </trkpt>
      <trkpt lat="41.643397895" lon="2.539390491">
        <ele>377.94</ele>
        <time>2013-06-16T10:45:23Z</time>
      </trkpt>
      <trkpt lat="41.643317345" lon="2.539235091">
        <ele>379.86</ele>
        <time>2013-06-16T10:45:33Z</time>
      </trkpt>
      <trkpt lat="41.643215840" lon="2.539142890">
        <ele>381.78</ele>
        <time>2013-06-16T10:45:42Z</time>
      </trkpt>
      <trkpt lat="41.643172338" lon="2.539100729">
        <ele>382.26</ele>
        <time>2013-06-16T10:45:46Z</time>
      </trkpt>
      <trkpt lat="41.643085669" lon="2.539062927">
        <ele>382.74</ele>
        <time>2013-06-16T10:45:51Z</time>
      </trkpt>
      <trkpt lat="41.642945272" lon="2.539000482">
        <ele>384.18</ele>
        <time>2013-06-16T10:46:00Z</time>
      </trkpt>
      <trkpt lat="41.642853658" lon="2.538924039">
        <ele>384.66</ele>
        <time>2013-06-16T10:46:07Z</time>
      </trkpt>
      <trkpt lat="41.642815352" lon="2.538887242">
        <ele>384.66</ele>
        <time>2013-06-16T10:46:10Z</time>
      </trkpt>
      <trkpt lat="41.642694988" lon="2.538803926">
        <ele>385.63</ele>
        <time>2013-06-16T10:46:18Z</time>
      </trkpt>
      <trkpt lat="41.642624916" lon="2.538725052">
        <ele>386.11</ele>
        <time>2013-06-16T10:46:24Z</time>
      </trkpt>
      <trkpt lat="41.642571439" lon="2.538658500">
        <ele>386.59</ele>
        <time>2013-06-16T10:46:28Z</time>
      </trkpt>
      <trkpt lat="41.642414194" lon="2.538555319">
        <ele>386.59</ele>
        <time>2013-06-16T10:46:35Z</time>
      </trkpt>
      <trkpt lat="41.642248317" lon="2.538552972">
        <ele>385.63</ele>
        <time>2013-06-16T10:46:39Z</time>
      </trkpt>
      <trkpt lat="41.641972301" lon="2.538472925">
        <ele>384.66</ele>
        <time>2013-06-16T10:46:45Z</time>
      </trkpt>
      <trkpt lat="41.641791503" lon="2.538313920">
        <ele>384.66</ele>
        <time>2013-06-16T10:46:51Z</time>
      </trkpt>
      <trkpt lat="41.641674911" lon="2.538113341">
        <ele>385.63</ele>
        <time>2013-06-16T10:46:58Z</time>
      </trkpt>
      <trkpt lat="41.641614058" lon="2.537881497">
        <ele>385.63</ele>
        <time>2013-06-16T10:47:04Z</time>
      </trkpt>
      <trkpt lat="41.641597546" lon="2.537704220">
        <ele>385.63</ele>
        <time>2013-06-16T10:47:07Z</time>
      </trkpt>
      <trkpt lat="41.641576675" lon="2.537514622">
        <ele>384.18</ele>
        <time>2013-06-16T10:47:10Z</time>
      </trkpt>
      <trkpt lat="41.641629984" lon="2.537096616">
        <ele>383.70</ele>
        <time>2013-06-16T10:47:17Z</time>
      </trkpt>
      <trkpt lat="41.641606598" lon="2.536970301">
        <ele>383.70</ele>
        <time>2013-06-16T10:47:20Z</time>
      </trkpt>
      <trkpt lat="41.641573490" lon="2.536884302">
        <ele>383.70</ele>
        <time>2013-06-16T10:47:22Z</time>
      </trkpt>
      <trkpt lat="41.641388669" lon="2.536550032">
        <ele>382.26</ele>
        <time>2013-06-16T10:47:28Z</time>
      </trkpt>
      <trkpt lat="41.641354303" lon="2.536390944">
        <ele>381.78</ele>
        <time>2013-06-16T10:47:30Z</time>
      </trkpt>
      <trkpt lat="41.641290433" lon="2.536118951">
        <ele>379.38</ele>
        <time>2013-06-16T10:47:33Z</time>
      </trkpt>
      <trkpt lat="41.641109467" lon="2.535637075">
        <ele>376.97</ele>
        <time>2013-06-16T10:47:38Z</time>
      </trkpt>
      <trkpt lat="41.641074180" lon="2.535557363">
        <ele>376.01</ele>
        <time>2013-06-16T10:47:39Z</time>
      </trkpt>
      <trkpt lat="41.640906458" lon="2.535368100">
        <ele>375.05</ele>
        <time>2013-06-16T10:47:44Z</time>
      </trkpt>
      <trkpt lat="41.640751476" lon="2.535230721">
        <ele>375.05</ele>
        <time>2013-06-16T10:47:50Z</time>
      </trkpt>
      <trkpt lat="41.640617953" lon="2.535219154">
        <ele>375.05</ele>
        <time>2013-06-16T10:47:53Z</time>
      </trkpt>
      <trkpt lat="41.640417793" lon="2.535223093">
        <ele>375.05</ele>
        <time>2013-06-16T10:47:57Z</time>
      </trkpt>
      <trkpt lat="41.640277815" lon="2.535243461">
        <ele>375.05</ele>
        <time>2013-06-16T10:48:00Z</time>
      </trkpt>
      <trkpt lat="41.640029124" lon="2.535129551">
        <ele>374.09</ele>
        <time>2013-06-16T10:48:06Z</time>
      </trkpt>
      <trkpt lat="41.639628804" lon="2.534972642">
        <ele>370.24</ele>
        <time>2013-06-16T10:48:13Z</time>
      </trkpt>
      <trkpt lat="41.639468123" lon="2.534955710">
        <ele>368.80</ele>
        <time>2013-06-16T10:48:16Z</time>
      </trkpt>
      <trkpt lat="41.639342646" lon="2.534946490">
        <ele>367.84</ele>
        <time>2013-06-16T10:48:19Z</time>
      </trkpt>
      <trkpt lat="41.639206105" lon="2.534924949">
        <ele>366.40</ele>
        <time>2013-06-16T10:48:22Z</time>
      </trkpt>
      <trkpt lat="41.639106947" lon="2.534921345">
        <ele>365.92</ele>
        <time>2013-06-16T10:48:24Z</time>
      </trkpt>
      <trkpt lat="41.639007538" lon="2.534895947">
        <ele>365.92</ele>
        <time>2013-06-16T10:48:26Z</time>
      </trkpt>
      <trkpt lat="41.638691037" lon="2.534717916">
        <ele>364.96</ele>
        <time>2013-06-16T10:48:34Z</time>
      </trkpt>
      <trkpt lat="41.638440669" lon="2.534614902">
        <ele>364.96</ele>
        <time>2013-06-16T10:48:43Z</time>
      </trkpt>
      <trkpt lat="41.638208742" lon="2.534654800">
        <ele>364.96</ele>
        <time>2013-06-16T10:48:50Z</time>
      </trkpt>
      <trkpt lat="41.638096509" lon="2.534753706">
        <ele>365.92</ele>
        <time>2013-06-16T10:48:55Z</time>
      </trkpt>
      <trkpt lat="41.637930128" lon="2.534894606">
        <ele>366.88</ele>
        <time>2013-06-16T10:49:03Z</time>
      </trkpt>
      <trkpt lat="41.637866509" lon="2.534923105">
        <ele>367.36</ele>
        <time>2013-06-16T10:49:06Z</time>
      </trkpt>
      <trkpt lat="41.637753856" lon="2.534808356">
        <ele>368.32</ele>
        <time>2013-06-16T10:49:13Z</time>
      </trkpt>
      <trkpt lat="41.637601892" lon="2.534655219">
        <ele>369.28</ele>
        <time>2013-06-16T10:49:22Z</time>
      </trkpt>
      <trkpt lat="41.637427214" lon="2.534554050">
        <ele>370.24</ele>
        <time>2013-06-16T10:49:30Z</time>
      </trkpt>
      <trkpt lat="41.637273070" lon="2.534487916">
        <ele>371.21</ele>
        <time>2013-06-16T10:49:37Z</time>
      </trkpt>
      <trkpt lat="41.637099146" lon="2.534378365">
        <ele>371.21</ele>
        <time>2013-06-16T10:49:45Z</time>
      </trkpt>
      <trkpt lat="41.636890185" lon="2.534241488">
        <ele>372.65</ele>
        <time>2013-06-16T10:49:54Z</time>
      </trkpt>
      <trkpt lat="41.636723050" lon="2.534179965">
        <ele>373.61</ele>
        <time>2013-06-16T10:50:01Z</time>
      </trkpt>
      <trkpt lat="41.636583910" lon="2.534111401">
        <ele>374.57</ele>
        <time>2013-06-16T10:50:08Z</time>
      </trkpt>
      <trkpt lat="41.636578043" lon="2.533963461">
        <ele>374.57</ele>
        <time>2013-06-16T10:50:13Z</time>
      </trkpt>
      <trkpt lat="41.636646942" lon="2.533775455">
        <ele>374.57</ele>
        <time>2013-06-16T10:50:19Z</time>
      </trkpt>
      <trkpt lat="41.636705783" lon="2.533545790">
        <ele>374.09</ele>
        <time>2013-06-16T10:50:26Z</time>
      </trkpt>
      <trkpt lat="41.636707543" lon="2.533238761">
        <ele>374.09</ele>
        <time>2013-06-16T10:50:34Z</time>
      </trkpt>
      <trkpt lat="41.636591203" lon="2.533051007">
        <ele>374.09</ele>
        <time>2013-06-16T10:50:40Z</time>
      </trkpt>
      <trkpt lat="41.636461702" lon="2.532900384">
        <ele>374.09</ele>
        <time>2013-06-16T10:50:47Z</time>
      </trkpt>
      <trkpt lat="41.636460110" lon="2.532696284">
        <ele>374.57</ele>
        <time>2013-06-16T10:50:52Z</time>
      </trkpt>
      <trkpt lat="41.636541749" lon="2.532381712">
        <ele>374.57</ele>
        <time>2013-06-16T10:51:01Z</time>
      </trkpt>
      <trkpt lat="41.636548539" lon="2.532298647">
        <ele>374.57</ele>
        <time>2013-06-16T10:51:03Z</time>
      </trkpt>
      <trkpt lat="41.636448207" lon="2.532046184">
        <ele>374.57</ele>
        <time>2013-06-16T10:51:10Z</time>
      </trkpt>
      <trkpt lat="41.636417027" lon="2.531926993">
        <ele>374.57</ele>
        <time>2013-06-16T10:51:13Z</time>
      </trkpt>
      <trkpt lat="41.636381655" lon="2.531810653">
        <ele>374.57</ele>
        <time>2013-06-16T10:51:16Z</time>
      </trkpt>
      <trkpt lat="41.636349133" lon="2.531493649">
        <ele>374.57</ele>
        <time>2013-06-16T10:51:23Z</time>
      </trkpt>
      <trkpt lat="41.636337063" lon="2.531203635">
        <ele>374.57</ele>
        <time>2013-06-16T10:51:29Z</time>
      </trkpt>
      <trkpt lat="41.636284425" lon="2.530996770">
        <ele>374.57</ele>
        <time>2013-06-16T10:51:35Z</time>
      </trkpt>
      <trkpt lat="41.636159367" lon="2.530888643">
        <ele>374.57</ele>
        <time>2013-06-16T10:51:41Z</time>
      </trkpt>
      <trkpt lat="41.635949903" lon="2.530906413">
        <ele>374.57</ele>
        <time>2013-06-16T10:51:47Z</time>
      </trkpt>
      <trkpt lat="41.635761310" lon="2.530979335">
        <ele>372.17</ele>
        <time>2013-06-16T10:51:52Z</time>
      </trkpt>
      <trkpt lat="41.635673300" lon="2.531208329">
        <ele>370.24</ele>
        <time>2013-06-16T10:51:57Z</time>
      </trkpt>
      <trkpt lat="41.635616806" lon="2.531484764">
        <ele>367.84</ele>
        <time>2013-06-16T10:52:03Z</time>
      </trkpt>
      <trkpt lat="41.635612364" lon="2.531542180">
        <ele>366.88</ele>
        <time>2013-06-16T10:52:04Z</time>
      </trkpt>
      <trkpt lat="41.635590906" lon="2.531683331">
        <ele>366.40</ele>
        <time>2013-06-16T10:52:06Z</time>
      </trkpt>
      <trkpt lat="41.635578920" lon="2.531755416">
        <ele>365.92</ele>
        <time>2013-06-16T10:52:07Z</time>
      </trkpt>
      <trkpt lat="41.635564587" lon="2.531958342">
        <ele>365.92</ele>
        <time>2013-06-16T10:52:10Z</time>
      </trkpt>
      <trkpt lat="41.635450845" lon="2.532124806">
        <ele>365.92</ele>
        <time>2013-06-16T10:52:15Z</time>
      </trkpt>
      <trkpt lat="41.635278429" lon="2.532030761">
        <ele>365.92</ele>
        <time>2013-06-16T10:52:21Z</time>
      </trkpt>
      <trkpt lat="41.635199974" lon="2.531939482">
        <ele>365.92</ele>
        <time>2013-06-16T10:52:24Z</time>
      </trkpt>
      <trkpt lat="41.635056644" lon="2.531795481">
        <ele>364.00</ele>
        <time>2013-06-16T10:52:28Z</time>
      </trkpt>
      <trkpt lat="41.634883557" lon="2.531795230">
        <ele>362.07</ele>
        <time>2013-06-16T10:52:32Z</time>
      </trkpt>
      <trkpt lat="41.634769312" lon="2.531954989">
        <ele>359.67</ele>
        <time>2013-06-16T10:52:36Z</time>
      </trkpt>
      <trkpt lat="41.634710974" lon="2.532065127">
        <ele>359.19</ele>
        <time>2013-06-16T10:52:38Z</time>
      </trkpt>
      <trkpt lat="41.634628580" lon="2.532402918">
        <ele>358.23</ele>
        <time>2013-06-16T10:52:43Z</time>
      </trkpt>
      <trkpt lat="41.634649618" lon="2.532707097">
        <ele>360.15</ele>
        <time>2013-06-16T10:52:50Z</time>
      </trkpt>
      <trkpt lat="41.634671579" lon="2.532946903">
        <ele>361.59</ele>
        <time>2013-06-16T10:52:57Z</time>
      </trkpt>
      <trkpt lat="41.634719356" lon="2.533216214">
        <ele>364.00</ele>
        <time>2013-06-16T10:53:06Z</time>
      </trkpt>
      <trkpt lat="41.634684739" lon="2.533396928">
        <ele>364.48</ele>
        <time>2013-06-16T10:53:12Z</time>
      </trkpt>
      <trkpt lat="41.634557250" lon="2.533449315">
        <ele>365.92</ele>
        <time>2013-06-16T10:53:18Z</time>
      </trkpt>
      <trkpt lat="41.634405286" lon="2.533431294">
        <ele>367.36</ele>
        <time>2013-06-16T10:53:26Z</time>
      </trkpt>
      <trkpt lat="41.634265057" lon="2.533474041">
        <ele>368.80</ele>
        <time>2013-06-16T10:53:33Z</time>
      </trkpt>
      <trkpt lat="41.634175119" lon="2.533505306">
        <ele>369.28</ele>
        <time>2013-06-16T10:53:39Z</time>
      </trkpt>
      <trkpt lat="41.634098425" lon="2.533546545">
        <ele>370.24</ele>
        <time>2013-06-16T10:53:45Z</time>
      </trkpt>
      <trkpt lat="41.634010331" lon="2.533526931">
        <ele>369.76</ele>
        <time>2013-06-16T10:53:49Z</time>
      </trkpt>
      <trkpt lat="41.633875634" lon="2.533463229">
        <ele>368.32</ele>
        <time>2013-06-16T10:53:52Z</time>
      </trkpt>
      <trkpt lat="41.633727944" lon="2.533315456">
        <ele>368.32</ele>
        <time>2013-06-16T10:53:56Z</time>
      </trkpt>
      <trkpt lat="41.633584530" lon="2.533160893">
        <ele>372.17</ele>
        <time>2013-06-16T10:54:02Z</time>
      </trkpt>
      <trkpt lat="41.633440948" lon="2.532968529">
        <ele>375.05</ele>
        <time>2013-06-16T10:54:10Z</time>
      </trkpt>
      <trkpt lat="41.633281692" lon="2.532792928">
        <ele>377.45</ele>
        <time>2013-06-16T10:54:17Z</time>
      </trkpt>
      <trkpt lat="41.633260905" lon="2.532766860">
        <ele>377.45</ele>
        <time>2013-06-16T10:54:18Z</time>
      </trkpt>
      <trkpt lat="41.633241710" lon="2.532659236">
        <ele>376.49</ele>
        <time>2013-06-16T10:54:23Z</time>
      </trkpt>
      <trkpt lat="41.633239112" lon="2.532571226">
        <ele>375.05</ele>
        <time>2013-06-16T10:54:26Z</time>
      </trkpt>
      <trkpt lat="41.633233747" lon="2.532291690">
        <ele>372.65</ele>
        <time>2013-06-16T10:54:33Z</time>
      </trkpt>
      <trkpt lat="41.633235172" lon="2.532226982">
        <ele>372.65</ele>
        <time>2013-06-16T10:54:34Z</time>
      </trkpt>
      <trkpt lat="41.633136685" lon="2.531818196">
        <ele>369.76</ele>
        <time>2013-06-16T10:54:39Z</time>
      </trkpt>
      <trkpt lat="41.633083963" lon="2.531731025">
        <ele>368.80</ele>
        <time>2013-06-16T10:54:40Z</time>
      </trkpt>
      <trkpt lat="41.632685906" lon="2.531167509">
        <ele>368.32</ele>
        <time>2013-06-16T10:54:47Z</time>
      </trkpt>
      <trkpt lat="41.632590688" lon="2.531064328">
        <ele>368.32</ele>
        <time>2013-06-16T10:54:49Z</time>
      </trkpt>
      <trkpt lat="41.632300674" lon="2.530769956">
        <ele>368.32</ele>
        <time>2013-06-16T10:54:57Z</time>
      </trkpt>
      <trkpt lat="41.632125157" lon="2.530610951">
        <ele>370.24</ele>
        <time>2013-06-16T10:55:04Z</time>
      </trkpt>
      <trkpt lat="41.632038153" lon="2.530536100">
        <ele>371.21</ele>
        <time>2013-06-16T10:55:09Z</time>
      </trkpt>
      <trkpt lat="41.631949221" lon="2.530599971">
        <ele>372.17</ele>
        <time>2013-06-16T10:55:15Z</time>
      </trkpt>
      <trkpt lat="41.631933966" lon="2.530623356">
        <ele>372.17</ele>
        <time>2013-06-16T10:55:16Z</time>
      </trkpt>
      <trkpt lat="41.631787869" lon="2.530839944">
        <ele>373.13</ele>
        <time>2013-06-16T10:55:25Z</time>
      </trkpt>
      <trkpt lat="41.631651244" lon="2.531083774">
        <ele>374.09</ele>
        <time>2013-06-16T10:55:34Z</time>
      </trkpt>
      <trkpt lat="41.631527443" lon="2.531254262">
        <ele>375.05</ele>
        <time>2013-06-16T10:55:41Z</time>
      </trkpt>
      <trkpt lat="41.631391489" lon="2.531419721">
        <ele>376.01</ele>
        <time>2013-06-16T10:55:48Z</time>
      </trkpt>
      <trkpt lat="41.631167860" lon="2.531445537">
        <ele>376.49</ele>
        <time>2013-06-16T10:55:55Z</time>
      </trkpt>
      <trkpt lat="41.630932747" lon="2.531409411">
        <ele>376.49</ele>
        <time>2013-06-16T10:56:02Z</time>
      </trkpt>
      <trkpt lat="41.630694953" lon="2.531489290">
        <ele>376.49</ele>
        <time>2013-06-16T10:56:09Z</time>
      </trkpt>
      <trkpt lat="41.630468809" lon="2.531591717">
        <ele>376.97</ele>
        <time>2013-06-16T10:56:16Z</time>
      </trkpt>
      <trkpt lat="41.630227159" lon="2.531604123">
        <ele>377.45</ele>
        <time>2013-06-16T10:56:23Z</time>
      </trkpt>
      <trkpt lat="41.629952987" lon="2.531503959">
        <ele>379.38</ele>
        <time>2013-06-16T10:56:32Z</time>
      </trkpt>
      <trkpt lat="41.629675462" lon="2.531375129">
        <ele>381.78</ele>
        <time>2013-06-16T10:56:42Z</time>
      </trkpt>
      <trkpt lat="41.629465747" lon="2.531202546">
        <ele>383.22</ele>
        <time>2013-06-16T10:56:50Z</time>
      </trkpt>
      <trkpt lat="41.629386119" lon="2.530956453">
        <ele>383.22</ele>
        <time>2013-06-16T10:56:56Z</time>
      </trkpt>
      <trkpt lat="41.629371534" lon="2.530846650">
        <ele>383.22</ele>
        <time>2013-06-16T10:56:58Z</time>
      </trkpt>
      <trkpt lat="41.629369187" lon="2.530469297">
        <ele>381.78</ele>
        <time>2013-06-16T10:57:03Z</time>
      </trkpt>
      <trkpt lat="41.629316213" lon="2.530170733">
        <ele>380.34</ele>
        <time>2013-06-16T10:57:06Z</time>
      </trkpt>
      <trkpt lat="41.629134326" lon="2.529594142">
        <ele>376.97</ele>
        <time>2013-06-16T10:57:11Z</time>
      </trkpt>
      <trkpt lat="41.629081688" lon="2.529483669">
        <ele>376.97</ele>
        <time>2013-06-16T10:57:12Z</time>
      </trkpt>
      <trkpt lat="41.628874152" lon="2.529100951">
        <ele>376.97</ele>
        <time>2013-06-16T10:57:16Z</time>
      </trkpt>
      <trkpt lat="41.628575589" lon="2.528471135">
        <ele>376.01</ele>
        <time>2013-06-16T10:57:24Z</time>
      </trkpt>
      <trkpt lat="41.628276522" lon="2.528108198">
        <ele>374.09</ele>
        <time>2013-06-16T10:57:30Z</time>
      </trkpt>
      <trkpt lat="41.627966476" lon="2.527831093">
        <ele>372.17</ele>
        <time>2013-06-16T10:57:35Z</time>
      </trkpt>
      <trkpt lat="41.627736560" lon="2.527706454">
        <ele>369.76</ele>
        <time>2013-06-16T10:57:38Z</time>
      </trkpt>
      <trkpt lat="41.627427938" lon="2.527500510">
        <ele>367.84</ele>
        <time>2013-06-16T10:57:42Z</time>
      </trkpt>
      <trkpt lat="41.627173296" lon="2.527372435">
        <ele>364.96</ele>
        <time>2013-06-16T10:57:46Z</time>
      </trkpt>
      <trkpt lat="41.626927706" lon="2.527296327">
        <ele>361.11</ele>
        <time>2013-06-16T10:57:50Z</time>
      </trkpt>
      <trkpt lat="41.626757973" lon="2.527274953">
        <ele>358.71</ele>
        <time>2013-06-16T10:57:53Z</time>
      </trkpt>
      <trkpt lat="41.626596286" lon="2.527247209">
        <ele>354.86</ele>
        <time>2013-06-16T10:57:57Z</time>
      </trkpt>
      <trkpt lat="41.626475084" lon="2.527112344">
        <ele>354.38</ele>
        <time>2013-06-16T10:58:03Z</time>
      </trkpt>
      <trkpt lat="41.626419595" lon="2.527020646">
        <ele>353.42</ele>
        <time>2013-06-16T10:58:05Z</time>
      </trkpt>
      <trkpt lat="41.626350948" lon="2.526868766">
        <ele>352.94</ele>
        <time>2013-06-16T10:58:08Z</time>
      </trkpt>
      <trkpt lat="41.626131677" lon="2.526491413">
        <ele>351.98</ele>
        <time>2013-06-16T10:58:16Z</time>
      </trkpt>
      <trkpt lat="41.626060598" lon="2.526395021">
        <ele>351.98</ele>
        <time>2013-06-16T10:58:18Z</time>
      </trkpt>
      <trkpt lat="41.625905701" lon="2.526246242">
        <ele>351.02</ele>
        <time>2013-06-16T10:58:22Z</time>
      </trkpt>
      <trkpt lat="41.625586099" lon="2.526016494">
        <ele>350.54</ele>
        <time>2013-06-16T10:58:31Z</time>
      </trkpt>
      <trkpt lat="41.625402451" lon="2.525699658">
        <ele>350.54</ele>
        <time>2013-06-16T10:58:39Z</time>
      </trkpt>
      <trkpt lat="41.625376635" lon="2.525651295">
        <ele>350.54</ele>
        <time>2013-06-16T10:58:40Z</time>
      </trkpt>
      <trkpt lat="41.625088717" lon="2.525292298">
        <ele>350.54</ele>
        <time>2013-06-16T10:58:48Z</time>
      </trkpt>
      <trkpt lat="41.624919319" lon="2.525069088">
        <ele>350.06</ele>
        <time>2013-06-16T10:58:53Z</time>
      </trkpt>
      <trkpt lat="41.624817981" lon="2.524749989">
        <ele>349.10</ele>
        <time>2013-06-16T10:58:58Z</time>
      </trkpt>
      <trkpt lat="41.624733156" lon="2.524548404">
        <ele>348.62</ele>
        <time>2013-06-16T10:59:01Z</time>
      </trkpt>
      <trkpt lat="41.624478682" lon="2.523889251">
        <ele>345.25</ele>
        <time>2013-06-16T10:59:09Z</time>
      </trkpt>
      <trkpt lat="41.624315402" lon="2.523522208">
        <ele>342.85</ele>
        <time>2013-06-16T10:59:13Z</time>
      </trkpt>
      <trkpt lat="41.624043829" lon="2.522734895">
        <ele>340.44</ele>
        <time>2013-06-16T10:59:21Z</time>
      </trkpt>
      <trkpt lat="41.623763119" lon="2.522389561">
        <ele>339.00</ele>
        <time>2013-06-16T10:59:26Z</time>
      </trkpt>
      <trkpt lat="41.623592044" lon="2.522259055">
        <ele>337.08</ele>
        <time>2013-06-16T10:59:30Z</time>
      </trkpt>
      <trkpt lat="41.623580477" lon="2.522259306">
        <ele>337.08</ele>
        <time>2013-06-16T10:59:31Z</time>
      </trkpt>
      <trkpt lat="41.623573017" lon="2.522266682">
        <ele>337.08</ele>
        <time>2013-06-16T10:59:32Z</time>
      </trkpt>
      <trkpt lat="41.623484085" lon="2.522323260">
        <ele>334.20</ele>
        <time>2013-06-16T10:59:37Z</time>
      </trkpt>
      <trkpt lat="41.623410408" lon="2.522363912">
        <ele>330.83</ele>
        <time>2013-06-16T10:59:40Z</time>
      </trkpt>
      <trkpt lat="41.623308149" lon="2.522448402">
        <ele>329.39</ele>
        <time>2013-06-16T10:59:44Z</time>
      </trkpt>
      <trkpt lat="41.623147719" lon="2.522427699">
        <ele>327.95</ele>
        <time>2013-06-16T10:59:48Z</time>
      </trkpt>
      <trkpt lat="41.622764667" lon="2.522350837">
        <ele>326.50</ele>
        <time>2013-06-16T10:59:55Z</time>
      </trkpt>
      <trkpt lat="41.622489656" lon="2.522304820">
        <ele>326.50</ele>
        <time>2013-06-16T11:00:01Z</time>
      </trkpt>
      <trkpt lat="41.622294945" lon="2.522329379">
        <ele>324.58</ele>
        <time>2013-06-16T11:00:06Z</time>
      </trkpt>
      <trkpt lat="41.622208611" lon="2.522345724">
        <ele>322.66</ele>
        <time>2013-06-16T11:00:09Z</time>
      </trkpt>
      <trkpt lat="41.622119763" lon="2.522353267">
        <ele>320.26</ele>
        <time>2013-06-16T11:00:12Z</time>
      </trkpt>
      <trkpt lat="41.621947934" lon="2.522243716">
        <ele>316.41</ele>
        <time>2013-06-16T11:00:17Z</time>
      </trkpt>
      <trkpt lat="41.621924548" lon="2.522194263">
        <ele>316.41</ele>
        <time>2013-06-16T11:00:18Z</time>
      </trkpt>
      <trkpt lat="41.621793455" lon="2.521862088">
        <ele>312.57</ele>
        <time>2013-06-16T11:00:24Z</time>
      </trkpt>
      <trkpt lat="41.621711313" lon="2.521707274">
        <ele>311.12</ele>
        <time>2013-06-16T11:00:27Z</time>
      </trkpt>
      <trkpt lat="41.621539735" lon="2.521400999">
        <ele>307.28</ele>
        <time>2013-06-16T11:00:32Z</time>
      </trkpt>
      <trkpt lat="41.621462119" lon="2.521288095">
        <ele>305.84</ele>
        <time>2013-06-16T11:00:34Z</time>
      </trkpt>
      <trkpt lat="41.621251482" lon="2.521129761">
        <ele>301.99</ele>
        <time>2013-06-16T11:00:39Z</time>
      </trkpt>
      <trkpt lat="41.621076384" lon="2.521104029">
        <ele>300.55</ele>
        <time>2013-06-16T11:00:43Z</time>
      </trkpt>
      <trkpt lat="41.620949565" lon="2.521078045">
        <ele>298.15</ele>
        <time>2013-06-16T11:00:49Z</time>
      </trkpt>
      <trkpt lat="41.620808749" lon="2.521104531">
        <ele>295.26</ele>
        <time>2013-06-16T11:00:56Z</time>
      </trkpt>
      <trkpt lat="41.620819311" lon="2.521159936">
        <ele>294.78</ele>
        <time>2013-06-16T11:01:01Z</time>
      </trkpt>
      <trkpt lat="41.620894077" lon="2.521281222">
        <ele>293.82</ele>
        <time>2013-06-16T11:01:07Z</time>
      </trkpt>
      <trkpt lat="41.620936071" lon="2.521323551">
        <ele>292.86</ele>
        <time>2013-06-16T11:01:10Z</time>
      </trkpt>
      <trkpt lat="41.620942692" lon="2.521348026">
        <ele>292.38</ele>
        <time>2013-06-16T11:01:12Z</time>
      </trkpt>
      <trkpt lat="41.620925090" lon="2.521354564">
        <ele>291.42</ele>
        <time>2013-06-16T11:01:14Z</time>
      </trkpt>
      <trkpt lat="41.620815287" lon="2.521309050">
        <ele>289.97</ele>
        <time>2013-06-16T11:01:20Z</time>
      </trkpt>
      <trkpt lat="41.620743203" lon="2.521261692">
        <ele>288.53</ele>
        <time>2013-06-16T11:01:26Z</time>
      </trkpt>
      <trkpt lat="41.620663575" lon="2.521215676">
        <ele>287.57</ele>
        <time>2013-06-16T11:01:32Z</time>
      </trkpt>
      <trkpt lat="41.620492333" lon="2.521133449">
        <ele>284.69</ele>
        <time>2013-06-16T11:01:38Z</time>
      </trkpt>
      <trkpt lat="41.620334166" lon="2.521051139">
        <ele>283.25</ele>
        <time>2013-06-16T11:01:45Z</time>
      </trkpt>
      <trkpt lat="41.620314133" lon="2.521060443">
        <ele>283.25</ele>
        <time>2013-06-16T11:01:54Z</time>
      </trkpt>
      <trkpt lat="41.620298878" lon="2.521061951">
        <ele>283.25</ele>
        <time>2013-06-16T11:02:04Z</time>
      </trkpt>
      <trkpt lat="41.620279181" lon="2.521048959">
        <ele>282.77</ele>
        <time>2013-06-16T11:02:12Z</time>
      </trkpt>
      <trkpt lat="41.620260321" lon="2.521016689">
        <ele>282.77</ele>
        <time>2013-06-16T11:02:21Z</time>
      </trkpt>
      <trkpt lat="41.620249174" lon="2.521006463">
        <ele>282.77</ele>
        <time>2013-06-16T11:02:30Z</time>
      </trkpt>
      <trkpt lat="41.620226375" lon="2.521021132">
        <ele>282.28</ele>
        <time>2013-06-16T11:02:42Z</time>
      </trkpt>
      <trkpt lat="41.620194524" lon="2.521029178">
        <ele>280.36</ele>
        <time>2013-06-16T11:02:50Z</time>
      </trkpt>
      <trkpt lat="41.620187147" lon="2.521035548">
        <ele>279.88</ele>
        <time>2013-06-16T11:02:57Z</time>
      </trkpt>
      <trkpt lat="41.620196703" lon="2.521069663">
        <ele>279.40</ele>
        <time>2013-06-16T11:03:07Z</time>
      </trkpt>
      <trkpt lat="41.620209024" lon="2.521103945">
        <ele>279.40</ele>
        <time>2013-06-16T11:03:14Z</time>
      </trkpt>
      <trkpt lat="41.620215478" lon="2.521113081">
        <ele>278.92</ele>
        <time>2013-06-16T11:03:19Z</time>
      </trkpt>
      <trkpt lat="41.620322180" lon="2.521258088">
        <ele>277.00</ele>
        <time>2013-06-16T11:03:27Z</time>
      </trkpt>
      <trkpt lat="41.620405580" lon="2.521335369">
        <ele>274.59</ele>
        <time>2013-06-16T11:03:32Z</time>
      </trkpt>
      <trkpt lat="41.620411028" lon="2.521367053">
        <ele>273.15</ele>
        <time>2013-06-16T11:03:36Z</time>
      </trkpt>
      <trkpt lat="41.620266943" lon="2.521295807">
        <ele>270.75</ele>
        <time>2013-06-16T11:03:43Z</time>
      </trkpt>
      <trkpt lat="41.620024706" lon="2.521269906">
        <ele>269.31</ele>
        <time>2013-06-16T11:03:50Z</time>
      </trkpt>
      <trkpt lat="41.619850363" lon="2.521277702">
        <ele>265.94</ele>
        <time>2013-06-16T11:03:56Z</time>
      </trkpt>
      <trkpt lat="41.619796970" lon="2.521255741">
        <ele>265.46</ele>
        <time>2013-06-16T11:03:58Z</time>
      </trkpt>
      <trkpt lat="41.619651376" lon="2.521227997">
        <ele>263.54</ele>
        <time>2013-06-16T11:04:03Z</time>
      </trkpt>
      <trkpt lat="41.619575688" lon="2.521159182">
        <ele>260.65</ele>
        <time>2013-06-16T11:04:07Z</time>
      </trkpt>
      <trkpt lat="41.619532772" lon="2.521115512">
        <ele>260.17</ele>
        <time>2013-06-16T11:04:10Z</time>
      </trkpt>
      <trkpt lat="41.619444762" lon="2.521050720">
        <ele>257.77</ele>
        <time>2013-06-16T11:04:17Z</time>
      </trkpt>
      <trkpt lat="41.619436967" lon="2.521072345">
        <ele>257.77</ele>
        <time>2013-06-16T11:04:18Z</time>
      </trkpt>
      <trkpt lat="41.619404278" lon="2.521166558">
        <ele>255.85</ele>
        <time>2013-06-16T11:04:22Z</time>
      </trkpt>
      <trkpt lat="41.619324817" lon="2.521181813">
        <ele>253.93</ele>
        <time>2013-06-16T11:04:26Z</time>
      </trkpt>
      <trkpt lat="41.619260612" lon="2.521028172">
        <ele>252.48</ele>
        <time>2013-06-16T11:04:34Z</time>
      </trkpt>
      <trkpt lat="41.619125999" lon="2.521041248">
        <ele>249.12</ele>
        <time>2013-06-16T11:04:41Z</time>
      </trkpt>
      <trkpt lat="41.618950146" lon="2.521096485">
        <ele>244.79</ele>
        <time>2013-06-16T11:04:48Z</time>
      </trkpt>
      <trkpt lat="41.618802541" lon="2.521117943">
        <ele>241.91</ele>
        <time>2013-06-16T11:04:55Z</time>
      </trkpt>
      <trkpt lat="41.618726349" lon="2.521206120">
        <ele>239.99</ele>
        <time>2013-06-16T11:05:01Z</time>
      </trkpt>
      <trkpt lat="41.618712855" lon="2.521229673">
        <ele>239.02</ele>
        <time>2013-06-16T11:05:02Z</time>
      </trkpt>
      <trkpt lat="41.618558879" lon="2.521329334">
        <ele>235.18</ele>
        <time>2013-06-16T11:05:08Z</time>
      </trkpt>
      <trkpt lat="41.618462403" lon="2.521365879">
        <ele>232.78</ele>
        <time>2013-06-16T11:05:12Z</time>
      </trkpt>
      <trkpt lat="41.618411693" lon="2.521369316">
        <ele>231.33</ele>
        <time>2013-06-16T11:05:14Z</time>
      </trkpt>
      <trkpt lat="41.618268781" lon="2.521449447">
        <ele>227.49</ele>
        <time>2013-06-16T11:05:19Z</time>
      </trkpt>
      <trkpt lat="41.618152692" lon="2.521541229">
        <ele>225.09</ele>
        <time>2013-06-16T11:05:24Z</time>
      </trkpt>
      <trkpt lat="41.618078093" lon="2.521627311">
        <ele>221.24</ele>
        <time>2013-06-16T11:05:28Z</time>
      </trkpt>
      <trkpt lat="41.617962926" lon="2.521660503">
        <ele>219.32</ele>
        <time>2013-06-16T11:05:31Z</time>
      </trkpt>
      <trkpt lat="41.617877011" lon="2.521518011">
        <ele>217.40</ele>
        <time>2013-06-16T11:05:35Z</time>
      </trkpt>
      <trkpt lat="41.617721275" lon="2.520956759">
        <ele>214.99</ele>
        <time>2013-06-16T11:05:42Z</time>
      </trkpt>
      <trkpt lat="41.617673247" lon="2.520598600">
        <ele>212.59</ele>
        <time>2013-06-16T11:05:48Z</time>
      </trkpt>
      <trkpt lat="41.617691855" lon="2.520518134">
        <ele>212.59</ele>
        <time>2013-06-16T11:05:50Z</time>
      </trkpt>
      <trkpt lat="41.617697471" lon="2.520214122">
        <ele>210.67</ele>
        <time>2013-06-16T11:05:56Z</time>
      </trkpt>
      <trkpt lat="41.617774920" lon="2.520120748">
        <ele>209.22</ele>
        <time>2013-06-16T11:05:58Z</time>
      </trkpt>
      <trkpt lat="41.617901905" lon="2.519982027">
        <ele>206.82</ele>
        <time>2013-06-16T11:06:02Z</time>
      </trkpt>
      <trkpt lat="41.617894948" lon="2.519813215">
        <ele>205.38</ele>
        <time>2013-06-16T11:06:07Z</time>
      </trkpt>
      <trkpt lat="41.617830240" lon="2.519733923">
        <ele>204.42</ele>
        <time>2013-06-16T11:06:11Z</time>
      </trkpt>
      <trkpt lat="41.617821271" lon="2.519689499">
        <ele>204.90</ele>
        <time>2013-06-16T11:06:14Z</time>
      </trkpt>
      <trkpt lat="41.617777937" lon="2.519623365">
        <ele>203.46</ele>
        <time>2013-06-16T11:06:20Z</time>
      </trkpt>
      <trkpt lat="41.617756396" lon="2.519622946">
        <ele>203.46</ele>
        <time>2013-06-16T11:06:21Z</time>
      </trkpt>
      <trkpt lat="41.617496473" lon="2.519631580">
        <ele>202.49</ele>
        <time>2013-06-16T11:06:28Z</time>
      </trkpt>
      <trkpt lat="41.617144349" lon="2.519675417">
        <ele>201.53</ele>
        <time>2013-06-16T11:06:35Z</time>
      </trkpt>
      <trkpt lat="41.616877721" lon="2.519718668">
        <ele>199.61</ele>
        <time>2013-06-16T11:06:40Z</time>
      </trkpt>
      <trkpt lat="41.616540433" lon="2.519849090">
        <ele>197.21</ele>
        <time>2013-06-16T11:06:47Z</time>
      </trkpt>
      <trkpt lat="41.616498272" lon="2.519872224">
        <ele>196.73</ele>
        <time>2013-06-16T11:06:49Z</time>
      </trkpt>
      <trkpt lat="41.616355612" lon="2.520010274">
        <ele>198.17</ele>
        <time>2013-06-16T11:06:57Z</time>
      </trkpt>
      <trkpt lat="41.616309009" lon="2.520055201">
        <ele>198.65</ele>
        <time>2013-06-16T11:07:03Z</time>
      </trkpt>
      <trkpt lat="41.616282689" lon="2.520117730">
        <ele>198.65</ele>
        <time>2013-06-16T11:07:07Z</time>
      </trkpt>
      <trkpt lat="41.616251341" lon="2.520257708">
        <ele>198.65</ele>
        <time>2013-06-16T11:07:12Z</time>
      </trkpt>
      <trkpt lat="41.616180514" lon="2.520361224">
        <ele>198.65</ele>
        <time>2013-06-16T11:07:16Z</time>
      </trkpt>
      <trkpt lat="41.616077081" lon="2.520629445">
        <ele>197.21</ele>
        <time>2013-06-16T11:07:24Z</time>
      </trkpt>
      <trkpt lat="41.616031987" lon="2.520880064">
        <ele>196.73</ele>
        <time>2013-06-16T11:07:31Z</time>
      </trkpt>
      <trkpt lat="41.615978929" lon="2.521224225">
        <ele>196.25</ele>
        <time>2013-06-16T11:07:38Z</time>
      </trkpt>
      <trkpt lat="41.615938361" lon="2.521542318">
        <ele>195.28</ele>
        <time>2013-06-16T11:07:44Z</time>
      </trkpt>
      <trkpt lat="41.615899720" lon="2.521787405">
        <ele>194.80</ele>
        <time>2013-06-16T11:07:50Z</time>
      </trkpt>
      <trkpt lat="41.615856302" lon="2.522139194">
        <ele>193.84</ele>
        <time>2013-06-16T11:07:56Z</time>
      </trkpt>
      <trkpt lat="41.615802071" lon="2.522451000">
        <ele>192.40</ele>
        <time>2013-06-16T11:08:00Z</time>
      </trkpt>
      <trkpt lat="41.615734010" lon="2.522851488">
        <ele>191.44</ele>
        <time>2013-06-16T11:08:05Z</time>
      </trkpt>
      <trkpt lat="41.615637031" lon="2.523549197">
        <ele>190.00</ele>
        <time>2013-06-16T11:08:13Z</time>
      </trkpt>
      <trkpt lat="41.615598558" lon="2.523998803">
        <ele>187.59</ele>
        <time>2013-06-16T11:08:18Z</time>
      </trkpt>
      <trkpt lat="41.615530330" lon="2.524612442">
        <ele>185.19</ele>
        <time>2013-06-16T11:08:24Z</time>
      </trkpt>
      <trkpt lat="41.615490683" lon="2.525355917">
        <ele>182.79</ele>
        <time>2013-06-16T11:08:31Z</time>
      </trkpt>
      <trkpt lat="41.615513063" lon="2.526051950">
        <ele>180.87</ele>
        <time>2013-06-16T11:08:38Z</time>
      </trkpt>
      <trkpt lat="41.615559247" lon="2.526674977">
        <ele>179.42</ele>
        <time>2013-06-16T11:08:44Z</time>
      </trkpt>
      <trkpt lat="41.615454306" lon="2.527432868">
        <ele>176.54</ele>
        <time>2013-06-16T11:08:51Z</time>
      </trkpt>
      <trkpt lat="41.615306868" lon="2.528239375">
        <ele>174.14</ele>
        <time>2013-06-16T11:08:59Z</time>
      </trkpt>
      <trkpt lat="41.615248111" lon="2.528536262">
        <ele>173.17</ele>
        <time>2013-06-16T11:09:02Z</time>
      </trkpt>
      <trkpt lat="41.615173847" lon="2.529383421">
        <ele>170.77</ele>
        <time>2013-06-16T11:09:10Z</time>
      </trkpt>
      <trkpt lat="41.615172422" lon="2.529483501">
        <ele>170.77</ele>
        <time>2013-06-16T11:09:11Z</time>
      </trkpt>
      <trkpt lat="41.615169070" lon="2.530440128">
        <ele>168.37</ele>
        <time>2013-06-16T11:09:20Z</time>
      </trkpt>
      <trkpt lat="41.615110648" lon="2.531009007">
        <ele>165.96</ele>
        <time>2013-06-16T11:09:25Z</time>
      </trkpt>
      <trkpt lat="41.615160353" lon="2.531515358">
        <ele>165.96</ele>
        <time>2013-06-16T11:09:30Z</time>
      </trkpt>
      <trkpt lat="41.615178960" lon="2.531618456">
        <ele>165.96</ele>
        <time>2013-06-16T11:09:31Z</time>
      </trkpt>
      <trkpt lat="41.615176613" lon="2.532157831">
        <ele>163.56</ele>
        <time>2013-06-16T11:09:36Z</time>
      </trkpt>
      <trkpt lat="41.615100506" lon="2.532506015">
        <ele>162.12</ele>
        <time>2013-06-16T11:09:40Z</time>
      </trkpt>
      <trkpt lat="41.615022135" lon="2.532788821">
        <ele>160.68</ele>
        <time>2013-06-16T11:09:44Z</time>
      </trkpt>
      <trkpt lat="41.614947033" lon="2.532997446">
        <ele>160.20</ele>
        <time>2013-06-16T11:09:47Z</time>
      </trkpt>
      <trkpt lat="41.614755758" lon="2.533667663">
        <ele>158.75</ele>
        <time>2013-06-16T11:09:55Z</time>
      </trkpt>
      <trkpt lat="41.614533135" lon="2.534382304">
        <ele>156.83</ele>
        <time>2013-06-16T11:10:03Z</time>
      </trkpt>
      <trkpt lat="41.614397851" lon="2.534803998">
        <ele>154.91</ele>
        <time>2013-06-16T11:10:08Z</time>
      </trkpt>
      <trkpt lat="41.614153518" lon="2.535509000">
        <ele>152.03</ele>
        <time>2013-06-16T11:10:17Z</time>
      </trkpt>
      <trkpt lat="41.614099623" lon="2.535657695">
        <ele>152.03</ele>
        <time>2013-06-16T11:10:19Z</time>
      </trkpt>
      <trkpt lat="41.614055534" lon="2.535813682">
        <ele>151.54</ele>
        <time>2013-06-16T11:10:21Z</time>
      </trkpt>
      <trkpt lat="41.613926201" lon="2.536187850">
        <ele>151.06</ele>
        <time>2013-06-16T11:10:26Z</time>
      </trkpt>
      <trkpt lat="41.613756384" lon="2.536532262">
        <ele>148.66</ele>
        <time>2013-06-16T11:10:32Z</time>
      </trkpt>
      <trkpt lat="41.613734591" lon="2.536588002">
        <ele>148.66</ele>
        <time>2013-06-16T11:10:34Z</time>
      </trkpt>
      <trkpt lat="41.613711708" lon="2.536623625">
        <ele>148.18</ele>
        <time>2013-06-16T11:10:41Z</time>
      </trkpt>
      <trkpt lat="41.613706595" lon="2.536636366">
        <ele>148.18</ele>
        <time>2013-06-16T11:10:43Z</time>
      </trkpt>
      <trkpt lat="41.613624620" lon="2.536795622">
        <ele>148.18</ele>
        <time>2013-06-16T11:10:49Z</time>
      </trkpt>
      <trkpt lat="41.613516577" lon="2.536984382">
        <ele>148.18</ele>
        <time>2013-06-16T11:10:54Z</time>
      </trkpt>
      <trkpt lat="41.613355561" lon="2.537185045">
        <ele>146.74</ele>
        <time>2013-06-16T11:10:59Z</time>
      </trkpt>
      <trkpt lat="41.613023302" lon="2.537574971">
        <ele>145.78</ele>
        <time>2013-06-16T11:11:08Z</time>
      </trkpt>
      <trkpt lat="41.612828088" lon="2.537768593">
        <ele>144.82</ele>
        <time>2013-06-16T11:11:13Z</time>
      </trkpt>
      <trkpt lat="41.612477724" lon="2.538195316">
        <ele>143.37</ele>
        <time>2013-06-16T11:11:21Z</time>
      </trkpt>
      <trkpt lat="41.612437072" lon="2.538244853">
        <ele>143.37</ele>
        <time>2013-06-16T11:11:22Z</time>
      </trkpt>
      <trkpt lat="41.612225932" lon="2.538598234">
        <ele>141.93</ele>
        <time>2013-06-16T11:11:29Z</time>
      </trkpt>
      <trkpt lat="41.612115794" lon="2.538855558">
        <ele>140.97</ele>
        <time>2013-06-16T11:11:35Z</time>
      </trkpt>
      <trkpt lat="41.612026024" lon="2.538992519">
        <ele>140.01</ele>
        <time>2013-06-16T11:11:40Z</time>
      </trkpt>
      <trkpt lat="41.612003644" lon="2.539036691">
        <ele>140.01</ele>
        <time>2013-06-16T11:11:42Z</time>
      </trkpt>
      <trkpt lat="41.611920915" lon="2.539013809">
        <ele>139.53</ele>
        <time>2013-06-16T11:11:47Z</time>
      </trkpt>
      <trkpt lat="41.611871545" lon="2.538876346">
        <ele>140.49</ele>
        <time>2013-06-16T11:11:51Z</time>
      </trkpt>
      <trkpt lat="41.611815638" lon="2.538759837">
        <ele>141.45</ele>
        <time>2013-06-16T11:11:55Z</time>
      </trkpt>
      <trkpt lat="41.611662836" lon="2.538768890">
        <ele>142.41</ele>
        <time>2013-06-16T11:12:01Z</time>
      </trkpt>
      <trkpt lat="41.611608940" lon="2.538758831">
        <ele>142.41</ele>
        <time>2013-06-16T11:12:03Z</time>
      </trkpt>
      <trkpt lat="41.611527887" lon="2.538768470">
        <ele>140.97</ele>
        <time>2013-06-16T11:12:05Z</time>
      </trkpt>
      <trkpt lat="41.611360165" lon="2.538776601">
        <ele>140.97</ele>
        <time>2013-06-16T11:12:08Z</time>
      </trkpt>
      <trkpt lat="41.611138799" lon="2.538825551">
        <ele>140.01</ele>
        <time>2013-06-16T11:12:12Z</time>
      </trkpt>
      <trkpt lat="41.610744682" lon="2.539006433">
        <ele>137.61</ele>
        <time>2013-06-16T11:12:20Z</time>
      </trkpt>
      <trkpt lat="41.610428601" lon="2.539170383">
        <ele>136.64</ele>
        <time>2013-06-16T11:12:27Z</time>
      </trkpt>
      <trkpt lat="41.610116961" lon="2.539339027">
        <ele>134.72</ele>
        <time>2013-06-16T11:12:34Z</time>
      </trkpt>
      <trkpt lat="41.610071364" lon="2.539363921">
        <ele>134.72</ele>
        <time>2013-06-16T11:12:35Z</time>
      </trkpt>
      <trkpt lat="41.609899283" lon="2.539477412">
        <ele>134.24</ele>
        <time>2013-06-16T11:12:39Z</time>
      </trkpt>
      <trkpt lat="41.609703901" lon="2.539597022">
        <ele>132.80</ele>
        <time>2013-06-16T11:12:45Z</time>
      </trkpt>
      <trkpt lat="41.609565851" lon="2.539648989">
        <ele>132.32</ele>
        <time>2013-06-16T11:12:50Z</time>
      </trkpt>
      <trkpt lat="41.609416737" lon="2.539734317">
        <ele>131.84</ele>
        <time>2013-06-16T11:12:57Z</time>
      </trkpt>
      <trkpt lat="41.609250943" lon="2.539858872">
        <ele>130.40</ele>
        <time>2013-06-16T11:13:03Z</time>
      </trkpt>
      <trkpt lat="41.609150109" lon="2.540103121">
        <ele>129.43</ele>
        <time>2013-06-16T11:13:10Z</time>
      </trkpt>
      <trkpt lat="41.609061428" lon="2.540227676">
        <ele>128.95</ele>
        <time>2013-06-16T11:13:16Z</time>
      </trkpt>
      <trkpt lat="41.608934526" lon="2.540337814">
        <ele>128.95</ele>
        <time>2013-06-16T11:13:22Z</time>
      </trkpt>
      <trkpt lat="41.608841906" lon="2.540412245">
        <ele>128.47</ele>
        <time>2013-06-16T11:13:29Z</time>
      </trkpt>
      <trkpt lat="41.608846684" lon="2.540443845">
        <ele>128.47</ele>
        <time>2013-06-16T11:13:37Z</time>
      </trkpt>
      <trkpt lat="41.608839224" lon="2.540440157">
        <ele>128.47</ele>
        <time>2013-06-16T11:13:50Z</time>
      </trkpt>
      <trkpt lat="41.608863029" lon="2.540425908">
        <ele>128.47</ele>
        <time>2013-06-16T11:14:05Z</time>
      </trkpt>
      <trkpt lat="41.608866214" lon="2.540459603">
        <ele>128.47</ele>
        <time>2013-06-16T11:14:23Z</time>
      </trkpt>
      <trkpt lat="41.608864789" lon="2.540456334">
        <ele>128.47</ele>
        <time>2013-06-16T11:14:36Z</time>
      </trkpt>
      <trkpt lat="41.608844337" lon="2.540467566">
        <ele>128.47</ele>
        <time>2013-06-16T11:14:46Z</time>
      </trkpt>
      <trkpt lat="41.608852970" lon="2.540495310">
        <ele>128.47</ele>
        <time>2013-06-16T11:14:59Z</time>
      </trkpt>
      <trkpt lat="41.608834195" lon="2.540512912">
        <ele>128.47</ele>
        <time>2013-06-16T11:15:17Z</time>
      </trkpt>
      <trkpt lat="41.608826903" lon="2.540514505">
        <ele>128.47</ele>
        <time>2013-06-16T11:15:34Z</time>
      </trkpt>
      <trkpt lat="41.608820113" lon="2.540516684">
        <ele>128.47</ele>
        <time>2013-06-16T11:15:49Z</time>
      </trkpt>
      <trkpt lat="41.608815839" lon="2.540537387">
        <ele>128.47</ele>
        <time>2013-06-16T11:16:06Z</time>
      </trkpt>
      <trkpt lat="41.608805361" lon="2.540560437">
        <ele>128.47</ele>
        <time>2013-06-16T11:16:17Z</time>
      </trkpt>
      <trkpt lat="41.608807960" lon="2.540555744">
        <ele>128.47</ele>
        <time>2013-06-16T11:16:31Z</time>
      </trkpt>
      <trkpt lat="41.608818018" lon="2.540539231">
        <ele>128.95</ele>
        <time>2013-06-16T11:16:45Z</time>
      </trkpt>
      <trkpt lat="41.608824220" lon="2.540524311">
        <ele>128.95</ele>
        <time>2013-06-16T11:16:56Z</time>
      </trkpt>
      <trkpt lat="41.608833860" lon="2.540498914">
        <ele>128.95</ele>
        <time>2013-06-16T11:17:09Z</time>
      </trkpt>
      <trkpt lat="41.608812905" lon="2.540491371">
        <ele>128.95</ele>
        <time>2013-06-16T11:17:28Z</time>
      </trkpt>
      <trkpt lat="41.608826316" lon="2.540477457">
        <ele>128.95</ele>
        <time>2013-06-16T11:17:50Z</time>
      </trkpt>
      <trkpt lat="41.608833524" lon="2.540485671">
        <ele>128.95</ele>
        <time>2013-06-16T11:18:05Z</time>
      </trkpt>
      <trkpt lat="41.608823215" lon="2.540473098">
        <ele>128.95</ele>
        <time>2013-06-16T11:18:16Z</time>
      </trkpt>
      <trkpt lat="41.608827489" lon="2.540479971">
        <ele>128.95</ele>
        <time>2013-06-16T11:18:27Z</time>
      </trkpt>
      <trkpt lat="41.608832519" lon="2.540490532">
        <ele>128.95</ele>
        <time>2013-06-16T11:18:39Z</time>
      </trkpt>
      <trkpt lat="41.608832519" lon="2.540496735">
        <ele>128.95</ele>
        <time>2013-06-16T11:18:53Z</time>
      </trkpt>
      <trkpt lat="41.608839392" lon="2.540493047">
        <ele>128.95</ele>
        <time>2013-06-16T11:19:01Z</time>
      </trkpt>
      <trkpt lat="41.608831680" lon="2.540492293">
        <ele>129.43</ele>
        <time>2013-06-16T11:19:19Z</time>
      </trkpt>
      <trkpt lat="41.608823550" lon="2.540470081">
        <ele>129.43</ele>
        <time>2013-06-16T11:19:22Z</time>
      </trkpt>
      <trkpt lat="41.608763452" lon="2.540326918">
        <ele>128.95</ele>
        <time>2013-06-16T11:19:27Z</time>
      </trkpt>
      <trkpt lat="41.608694720" lon="2.540323146">
        <ele>128.95</ele>
        <time>2013-06-16T11:19:29Z</time>
      </trkpt>
      <trkpt lat="41.608332035" lon="2.540382071">
        <ele>127.99</ele>
        <time>2013-06-16T11:19:38Z</time>
      </trkpt>
      <trkpt lat="41.608006566" lon="2.540426076">
        <ele>127.51</ele>
        <time>2013-06-16T11:19:46Z</time>
      </trkpt>
      <trkpt lat="41.607708421" lon="2.540475780">
        <ele>127.03</ele>
        <time>2013-06-16T11:19:54Z</time>
      </trkpt>
      <trkpt lat="41.607606833" lon="2.540564964">
        <ele>126.55</ele>
        <time>2013-06-16T11:19:59Z</time>
      </trkpt>
      <trkpt lat="41.607494180" lon="2.540751880">
        <ele>126.55</ele>
        <time>2013-06-16T11:20:06Z</time>
      </trkpt>
      <trkpt lat="41.607465262" lon="2.540798819">
        <ele>126.55</ele>
        <time>2013-06-16T11:20:08Z</time>
      </trkpt>
      <trkpt lat="41.607262672" lon="2.540764285">
        <ele>126.07</ele>
        <time>2013-06-16T11:20:15Z</time>
      </trkpt>
      <trkpt lat="41.606994451" lon="2.540695554">
        <ele>124.63</ele>
        <time>2013-06-16T11:20:23Z</time>
      </trkpt>
      <trkpt lat="41.606700581" lon="2.540592121">
        <ele>124.15</ele>
        <time>2013-06-16T11:20:31Z</time>
      </trkpt>
      <trkpt lat="41.606661354" lon="2.540577285">
        <ele>123.67</ele>
        <time>2013-06-16T11:20:32Z</time>
      </trkpt>
      <trkpt lat="41.606359941" lon="2.540437140">
        <ele>122.71</ele>
        <time>2013-06-16T11:20:40Z</time>
      </trkpt>
      <trkpt lat="41.606130947" lon="2.540356422">
        <ele>122.22</ele>
        <time>2013-06-16T11:20:47Z</time>
      </trkpt>
      <trkpt lat="41.605918969" lon="2.540366732">
        <ele>122.22</ele>
        <time>2013-06-16T11:20:54Z</time>
      </trkpt>
      <trkpt lat="41.605909917" lon="2.540369665">
        <ele>122.22</ele>
        <time>2013-06-16T11:20:55Z</time>
      </trkpt>
      <trkpt lat="41.605888124" lon="2.540468069">
        <ele>122.22</ele>
        <time>2013-06-16T11:21:00Z</time>
      </trkpt>
      <trkpt lat="41.605948892" lon="2.540537471">
        <ele>122.22</ele>
        <time>2013-06-16T11:21:03Z</time>
      </trkpt>
      <trkpt lat="41.606080907" lon="2.540597737">
        <ele>123.67</ele>
        <time>2013-06-16T11:21:08Z</time>
      </trkpt>
      <trkpt lat="41.606310488" lon="2.540679125">
        <ele>124.15</ele>
        <time>2013-06-16T11:21:16Z</time>
      </trkpt>
      <trkpt lat="41.606500841" lon="2.540768895">
        <ele>124.63</ele>
        <time>2013-06-16T11:21:23Z</time>
      </trkpt>
      <trkpt lat="41.606575188" lon="2.540962853">
        <ele>125.11</ele>
        <time>2013-06-16T11:21:29Z</time>
      </trkpt>
      <trkpt lat="41.606623216" lon="2.541179273">
        <ele>126.55</ele>
        <time>2013-06-16T11:21:36Z</time>
      </trkpt>
      <trkpt lat="41.606667641" lon="2.541381361">
        <ele>127.99</ele>
        <time>2013-06-16T11:21:43Z</time>
      </trkpt>
      <trkpt lat="41.606718603" lon="2.541547742">
        <ele>128.95</ele>
        <time>2013-06-16T11:21:49Z</time>
      </trkpt>
      <trkpt lat="41.606792782" lon="2.541776568">
        <ele>129.92</ele>
        <time>2013-06-16T11:21:57Z</time>
      </trkpt>
      <trkpt lat="41.606867717" lon="2.542008076">
        <ele>131.36</ele>
        <time>2013-06-16T11:22:05Z</time>
      </trkpt>
      <trkpt lat="41.606975340" lon="2.542196166">
        <ele>132.80</ele>
        <time>2013-06-16T11:22:13Z</time>
      </trkpt>
      <trkpt lat="41.607028482" lon="2.542358942">
        <ele>133.28</ele>
        <time>2013-06-16T11:22:21Z</time>
      </trkpt>
      <trkpt lat="41.607041473" lon="2.542364307">
        <ele>134.24</ele>
        <time>2013-06-16T11:22:26Z</time>
      </trkpt>
      <trkpt lat="41.607043150" lon="2.542356260">
        <ele>134.24</ele>
        <time>2013-06-16T11:22:38Z</time>
      </trkpt>
      <trkpt lat="41.607002414" lon="2.542391548">
        <ele>134.24</ele>
        <time>2013-06-16T11:22:50Z</time>
      </trkpt>
      <trkpt lat="41.606917337" lon="2.542514175">
        <ele>134.24</ele>
        <time>2013-06-16T11:23:05Z</time>
      </trkpt>
    </trkseg>
  </trk>
</gpx>
